<?xml version="1.0" encoding="UTF-8"?>
<gpx xmlns="http://www.topografix.com/GPX/1/1" xmlns:gpsies="http://www.gpsies.com/GPX/1/0" creator="GPSies http://www.gpsies.com - GBI Toscana 2018 Day 2 Track 2 final (Lucca-Florence)" version="1.1" xmlns:xsi="http://www.w3.org/2001/XMLSchema-instance" xsi:schemaLocation="http://www.topografix.com/GPX/1/1 http://www.topografix.com/GPX/1/1/gpx.xsd http://www.gpsies.com/GPX/1/0 http://www.gpsies.com/gpsies.xsd">
  <metadata>
    <name>GBIIT21 D2 T2</name>
    <author>
      <name>TOAO</name>
      <link href="http://www.gpsies.com/mapUser.do?username=TOAO">
        <text>TOAO on GPSies.com</text>
        <type>GPSiesUserOnWeb</type>
      </link>
    </author>
    <link href="http://www.gpsies.com/map.do?fileId=tccxfprjsmocgjkk">
      <text>GBIIT21 D2 T2</text>
      <type>trackOnWeb</type>
    </link>
    <time>2018-03-27T17:48:48Z</time>
    <extensions>
      <gpsies:property>one-way trip</gpsies:property>
      <gpsies:trackLengthMeter>129656.15051838213</gpsies:trackLengthMeter>
      <gpsies:totalAscentMeter>2362.0</gpsies:totalAscentMeter>
      <gpsies:totalDescentMeter>2103.0</gpsies:totalDescentMeter>
      <gpsies:minHeightMeter>7.0</gpsies:minHeightMeter>
      <gpsies:maxHeightMeter>804.0</gpsies:maxHeightMeter>
    </extensions>
  </metadata>
  <wpt lat="43.77313134" lon="11.25673234">
    <ele>60.000000</ele>
    <name>Duomo</name>
    <sym>sightseeing</sym>
    <type>Sightseeing</type>
  </wpt>
  <wpt lat="43.76806838" lon="11.25305235">
    <ele>47.000000</ele>
    <name>Ponte Vecchio</name>
    <sym>sightseeing</sym>
    <type>Sightseeing</type>
  </wpt>
  <wpt lat="43.73860793" lon="11.34955823">
    <ele>269.00000</ele>
    <name>Ostello Il Bigallo</name>
    <sym>hostel</sym>
    <type>Hostel</type>
  </wpt>
  <wpt lat="43.75200119" lon="11.32128238">
    <ele>82.000000</ele>
    <name>Steep ascent</name>
    <sym>attention</sym>
    <type>Attention</type>
  </wpt>
  <trk>
    <name>GBIIT21 D2 T2</name>
    <link href="http://www.gpsies.com/map.do?fileId=tccxfprjsmocgjkk">
      <type>trackOnWeb</type>
    </link>
    <link href="http://www.gpsies.com/charts/tc/map/tccxfprjsmocgjkk_map.png">
      <type>elevationChartUrlMap</type>
    </link>
    <link href="http://www.gpsies.com/charts/tc/mapThumb/tccxfprjsmocgjkk_mapThumb.png">
      <type>elevationChartUrlMapThumb</type>
    </link>
    <link href="http://www.gpsies.com/charts/tc/tab/tccxfprjsmocgjkk_tab.png">
      <type>elevationChartUrlTab</type>
    </link>
    <trkseg>
      <trkpt lat="43.83522230" lon="10.48824620">
        <ele>16.000000</ele>
        <time>2010-01-01T00:00:00Z</time>
      </trkpt>
      <trkpt lat="43.83458090" lon="10.48800580">
        <ele>15.000000</ele>
        <time>2010-01-01T00:00:26Z</time>
      </trkpt>
      <trkpt lat="43.83449580" lon="10.49031250">
        <ele>12.000000</ele>
        <time>2010-01-01T00:01:33Z</time>
      </trkpt>
      <trkpt lat="43.83589650" lon="10.49334880">
        <ele>14.000000</ele>
        <time>2010-01-01T00:03:17Z</time>
      </trkpt>
      <trkpt lat="43.83613650" lon="10.49451820">
        <ele>14.000000</ele>
        <time>2010-01-01T00:03:52Z</time>
      </trkpt>
      <trkpt lat="43.83610550" lon="10.49521560">
        <ele>16.000000</ele>
        <time>2010-01-01T00:04:12Z</time>
      </trkpt>
      <trkpt lat="43.83656980" lon="10.49609540">
        <ele>15.000000</ele>
        <time>2010-01-01T00:04:44Z</time>
      </trkpt>
      <trkpt lat="43.83635000" lon="10.50016000">
        <ele>16.000000</ele>
        <time>2010-01-01T00:06:41Z</time>
      </trkpt>
      <trkpt lat="43.83618290" lon="10.50363770">
        <ele>16.000000</ele>
        <time>2010-01-01T00:08:22Z</time>
      </trkpt>
      <trkpt lat="43.83543220" lon="10.50360560">
        <ele>13.000000</ele>
        <time>2010-01-01T00:08:52Z</time>
      </trkpt>
      <trkpt lat="43.83525030" lon="10.50631460">
        <ele>15.000000</ele>
        <time>2010-01-01T00:10:11Z</time>
      </trkpt>
      <trkpt lat="43.83491370" lon="10.50866960">
        <ele>14.000000</ele>
        <time>2010-01-01T00:11:20Z</time>
      </trkpt>
      <trkpt lat="43.83489820" lon="10.50916850">
        <ele>15.000000</ele>
        <time>2010-01-01T00:11:34Z</time>
      </trkpt>
      <trkpt lat="43.83484400" lon="10.51259100">
        <ele>14.000000</ele>
        <time>2010-01-01T00:13:13Z</time>
      </trkpt>
      <trkpt lat="43.83472800" lon="10.51280020">
        <ele>13.000000</ele>
        <time>2010-01-01T00:13:21Z</time>
      </trkpt>
      <trkpt lat="43.83438740" lon="10.51378720">
        <ele>14.000000</ele>
        <time>2010-01-01T00:13:52Z</time>
      </trkpt>
      <trkpt lat="43.83337360" lon="10.51585790">
        <ele>14.000000</ele>
        <time>2010-01-01T00:15:05Z</time>
      </trkpt>
      <trkpt lat="43.83304850" lon="10.51616900">
        <ele>14.000000</ele>
        <time>2010-01-01T00:15:20Z</time>
      </trkpt>
      <trkpt lat="43.83202690" lon="10.51646940">
        <ele>15.000000</ele>
        <time>2010-01-01T00:16:02Z</time>
      </trkpt>
      <trkpt lat="43.83020040" lon="10.51614760">
        <ele>13.000000</ele>
        <time>2010-01-01T00:17:16Z</time>
      </trkpt>
      <trkpt lat="43.82989850" lon="10.51619050">
        <ele>13.000000</ele>
        <time>2010-01-01T00:17:28Z</time>
      </trkpt>
      <trkpt lat="43.82897750" lon="10.51589010">
        <ele>13.000000</ele>
        <time>2010-01-01T00:18:06Z</time>
      </trkpt>
      <trkpt lat="43.82790940" lon="10.51581500">
        <ele>12.000000</ele>
        <time>2010-01-01T00:18:49Z</time>
      </trkpt>
      <trkpt lat="43.82719730" lon="10.51607250">
        <ele>11.000000</ele>
        <time>2010-01-01T00:19:18Z</time>
      </trkpt>
      <trkpt lat="43.82544800" lon="10.51608320">
        <ele>10.000000</ele>
        <time>2010-01-01T00:20:28Z</time>
      </trkpt>
      <trkpt lat="43.82401600" lon="10.51722040">
        <ele>14.000000</ele>
        <time>2010-01-01T00:21:34Z</time>
      </trkpt>
      <trkpt lat="43.82362900" lon="10.51734920">
        <ele>14.000000</ele>
        <time>2010-01-01T00:21:50Z</time>
      </trkpt>
      <trkpt lat="43.82327290" lon="10.51734920">
        <ele>14.000000</ele>
        <time>2010-01-01T00:22:05Z</time>
      </trkpt>
      <trkpt lat="43.82193380" lon="10.51749940">
        <ele>11.000000</ele>
        <time>2010-01-01T00:22:58Z</time>
      </trkpt>
      <trkpt lat="43.82086550" lon="10.51734920">
        <ele>12.000000</ele>
        <time>2010-01-01T00:23:41Z</time>
      </trkpt>
      <trkpt lat="43.81954960" lon="10.51772470">
        <ele>10.000000</ele>
        <time>2010-01-01T00:24:35Z</time>
      </trkpt>
      <trkpt lat="43.81920120" lon="10.51703810">
        <ele>11.000000</ele>
        <time>2010-01-01T00:24:59Z</time>
      </trkpt>
      <trkpt lat="43.81722720" lon="10.51683420">
        <ele>10.000000</ele>
        <time>2010-01-01T00:26:19Z</time>
      </trkpt>
      <trkpt lat="43.81707240" lon="10.51664110">
        <ele>11.000000</ele>
        <time>2010-01-01T00:26:27Z</time>
      </trkpt>
      <trkpt lat="43.81616660" lon="10.51656600">
        <ele>13.000000</ele>
        <time>2010-01-01T00:27:03Z</time>
      </trkpt>
      <trkpt lat="43.81546990" lon="10.51668400">
        <ele>12.000000</ele>
        <time>2010-01-01T00:27:31Z</time>
      </trkpt>
      <trkpt lat="43.81324800" lon="10.51668400">
        <ele>13.000000</ele>
        <time>2010-01-01T00:29:00Z</time>
      </trkpt>
      <trkpt lat="43.81179250" lon="10.51649090">
        <ele>14.000000</ele>
        <time>2010-01-01T00:29:59Z</time>
      </trkpt>
      <trkpt lat="43.81054000" lon="10.51590000">
        <ele>15.000000</ele>
        <time>2010-01-01T00:30:52Z</time>
      </trkpt>
      <trkpt lat="43.81014000" lon="10.51727000">
        <ele>15.000000</ele>
        <time>2010-01-01T00:31:34Z</time>
      </trkpt>
      <trkpt lat="43.80999000" lon="10.51803000">
        <ele>17.000000</ele>
        <time>2010-01-01T00:31:57Z</time>
      </trkpt>
      <trkpt lat="43.80994980" lon="10.51858300">
        <ele>15.000000</ele>
        <time>2010-01-01T00:32:13Z</time>
      </trkpt>
      <trkpt lat="43.81022850" lon="10.52000990">
        <ele>12.000000</ele>
        <time>2010-01-01T00:32:56Z</time>
      </trkpt>
      <trkpt lat="43.81016000" lon="10.52054000">
        <ele>13.000000</ele>
        <time>2010-01-01T00:33:12Z</time>
      </trkpt>
      <trkpt lat="43.81004000" lon="10.52085000">
        <ele>14.000000</ele>
        <time>2010-01-01T00:33:22Z</time>
      </trkpt>
      <trkpt lat="43.80948000" lon="10.52179000">
        <ele>15.000000</ele>
        <time>2010-01-01T00:33:57Z</time>
      </trkpt>
      <trkpt lat="43.80908000" lon="10.52303000">
        <ele>17.000000</ele>
        <time>2010-01-01T00:34:36Z</time>
      </trkpt>
      <trkpt lat="43.80803000" lon="10.52605000">
        <ele>15.000000</ele>
        <time>2010-01-01T00:36:13Z</time>
      </trkpt>
      <trkpt lat="43.80730000" lon="10.52826000">
        <ele>19.000000</ele>
        <time>2010-01-01T00:37:23Z</time>
      </trkpt>
      <trkpt lat="43.80707000" lon="10.52863000">
        <ele>19.000000</ele>
        <time>2010-01-01T00:37:37Z</time>
      </trkpt>
      <trkpt lat="43.80655000" lon="10.52906000">
        <ele>28.000000</ele>
        <time>2010-01-01T00:38:02Z</time>
      </trkpt>
      <trkpt lat="43.80618000" lon="10.52939000">
        <ele>32.000000</ele>
        <time>2010-01-01T00:38:19Z</time>
      </trkpt>
      <trkpt lat="43.80543000" lon="10.53015000">
        <ele>22.000000</ele>
        <time>2010-01-01T00:38:56Z</time>
      </trkpt>
      <trkpt lat="43.80527000" lon="10.53047000">
        <ele>22.000000</ele>
        <time>2010-01-01T00:39:08Z</time>
      </trkpt>
      <trkpt lat="43.80497130" lon="10.53142540">
        <ele>22.000000</ele>
        <time>2010-01-01T00:39:38Z</time>
      </trkpt>
      <trkpt lat="43.80482000" lon="10.53249000">
        <ele>25.000000</ele>
        <time>2010-01-01T00:40:09Z</time>
      </trkpt>
      <trkpt lat="43.80480000" lon="10.53303000">
        <ele>26.000000</ele>
        <time>2010-01-01T00:40:25Z</time>
      </trkpt>
      <trkpt lat="43.80489000" lon="10.53411000">
        <ele>21.000000</ele>
        <time>2010-01-01T00:40:56Z</time>
      </trkpt>
      <trkpt lat="43.80542000" lon="10.53660000">
        <ele>17.000000</ele>
        <time>2010-01-01T00:42:11Z</time>
      </trkpt>
      <trkpt lat="43.80532740" lon="10.53781980">
        <ele>18.000000</ele>
        <time>2010-01-01T00:42:46Z</time>
      </trkpt>
      <trkpt lat="43.80516480" lon="10.53850650">
        <ele>20.000000</ele>
        <time>2010-01-01T00:43:07Z</time>
      </trkpt>
      <trkpt lat="43.80537390" lon="10.53979390">
        <ele>17.000000</ele>
        <time>2010-01-01T00:43:45Z</time>
      </trkpt>
      <trkpt lat="43.80554000" lon="10.54166000">
        <ele>21.000000</ele>
        <time>2010-01-01T00:44:40Z</time>
      </trkpt>
      <trkpt lat="43.80446000" lon="10.54180000">
        <ele>25.000000</ele>
        <time>2010-01-01T00:45:23Z</time>
      </trkpt>
      <trkpt lat="43.80357000" lon="10.54208000">
        <ele>28.000000</ele>
        <time>2010-01-01T00:46:00Z</time>
      </trkpt>
      <trkpt lat="43.80329000" lon="10.54227000">
        <ele>31.000000</ele>
        <time>2010-01-01T00:46:12Z</time>
      </trkpt>
      <trkpt lat="43.80315000" lon="10.54257000">
        <ele>32.000000</ele>
        <time>2010-01-01T00:46:23Z</time>
      </trkpt>
      <trkpt lat="43.80293000" lon="10.54353000">
        <ele>39.000000</ele>
        <time>2010-01-01T00:46:52Z</time>
      </trkpt>
      <trkpt lat="43.80281000" lon="10.54394000">
        <ele>44.000000</ele>
        <time>2010-01-01T00:47:04Z</time>
      </trkpt>
      <trkpt lat="43.80279000" lon="10.54444000">
        <ele>45.000000</ele>
        <time>2010-01-01T00:47:19Z</time>
      </trkpt>
      <trkpt lat="43.80262000" lon="10.54522000">
        <ele>52.000000</ele>
        <time>2010-01-01T00:47:42Z</time>
      </trkpt>
      <trkpt lat="43.80252000" lon="10.54613000">
        <ele>50.000000</ele>
        <time>2010-01-01T00:48:09Z</time>
      </trkpt>
      <trkpt lat="43.80227000" lon="10.54659000">
        <ele>47.000000</ele>
        <time>2010-01-01T00:48:26Z</time>
      </trkpt>
      <trkpt lat="43.80173000" lon="10.54707000">
        <ele>45.000000</ele>
        <time>2010-01-01T00:48:51Z</time>
      </trkpt>
      <trkpt lat="43.80170000" lon="10.54778000">
        <ele>40.000000</ele>
        <time>2010-01-01T00:49:12Z</time>
      </trkpt>
      <trkpt lat="43.80152000" lon="10.54854000">
        <ele>35.000000</ele>
        <time>2010-01-01T00:49:35Z</time>
      </trkpt>
      <trkpt lat="43.80132000" lon="10.54873000">
        <ele>37.000000</ele>
        <time>2010-01-01T00:49:45Z</time>
      </trkpt>
      <trkpt lat="43.80083000" lon="10.54880000">
        <ele>40.000000</ele>
        <time>2010-01-01T00:50:04Z</time>
      </trkpt>
      <trkpt lat="43.80064000" lon="10.54888000">
        <ele>40.000000</ele>
        <time>2010-01-01T00:50:12Z</time>
      </trkpt>
      <trkpt lat="43.80042000" lon="10.54935000">
        <ele>42.000000</ele>
        <time>2010-01-01T00:50:29Z</time>
      </trkpt>
      <trkpt lat="43.79931000" lon="10.54929000">
        <ele>45.000000</ele>
        <time>2010-01-01T00:51:13Z</time>
      </trkpt>
      <trkpt lat="43.79886000" lon="10.54954000">
        <ele>47.000000</ele>
        <time>2010-01-01T00:51:32Z</time>
      </trkpt>
      <trkpt lat="43.79838000" lon="10.54963000">
        <ele>50.000000</ele>
        <time>2010-01-01T00:51:52Z</time>
      </trkpt>
      <trkpt lat="43.79814000" lon="10.54970000">
        <ele>52.000000</ele>
        <time>2010-01-01T00:52:02Z</time>
      </trkpt>
      <trkpt lat="43.79700000" lon="10.55083000">
        <ele>58.000000</ele>
        <time>2010-01-01T00:52:58Z</time>
      </trkpt>
      <trkpt lat="43.79689000" lon="10.55084000">
        <ele>58.000000</ele>
        <time>2010-01-01T00:53:02Z</time>
      </trkpt>
      <trkpt lat="43.79568000" lon="10.55028000">
        <ele>68.000000</ele>
        <time>2010-01-01T00:53:53Z</time>
      </trkpt>
      <trkpt lat="43.79546210" lon="10.55045840">
        <ele>69.000000</ele>
        <time>2010-01-01T00:54:03Z</time>
      </trkpt>
      <trkpt lat="43.79443000" lon="10.55005000">
        <ele>76.000000</ele>
        <time>2010-01-01T00:54:46Z</time>
      </trkpt>
      <trkpt lat="43.79377000" lon="10.55049000">
        <ele>76.000000</ele>
        <time>2010-01-01T00:55:16Z</time>
      </trkpt>
      <trkpt lat="43.79331000" lon="10.55087000">
        <ele>79.000000</ele>
        <time>2010-01-01T00:55:37Z</time>
      </trkpt>
      <trkpt lat="43.79291000" lon="10.55153000">
        <ele>79.000000</ele>
        <time>2010-01-01T00:56:02Z</time>
      </trkpt>
      <trkpt lat="43.79230000" lon="10.55215000">
        <ele>82.000000</ele>
        <time>2010-01-01T00:56:32Z</time>
      </trkpt>
      <trkpt lat="43.79143000" lon="10.55308000">
        <ele>88.000000</ele>
        <time>2010-01-01T00:57:16Z</time>
      </trkpt>
      <trkpt lat="43.79127000" lon="10.55331000">
        <ele>87.000000</ele>
        <time>2010-01-01T00:57:26Z</time>
      </trkpt>
      <trkpt lat="43.79014000" lon="10.55539000">
        <ele>102.00000</ele>
        <time>2010-01-01T00:58:41Z</time>
      </trkpt>
      <trkpt lat="43.78951000" lon="10.55621000">
        <ele>109.00000</ele>
        <time>2010-01-01T00:59:15Z</time>
      </trkpt>
      <trkpt lat="43.78893000" lon="10.55678000">
        <ele>115.00000</ele>
        <time>2010-01-01T00:59:44Z</time>
      </trkpt>
      <trkpt lat="43.78868000" lon="10.55692000">
        <ele>114.00000</ele>
        <time>2010-01-01T00:59:55Z</time>
      </trkpt>
      <trkpt lat="43.78831000" lon="10.55753000">
        <ele>112.00000</ele>
        <time>2010-01-01T01:00:18Z</time>
      </trkpt>
      <trkpt lat="43.78890000" lon="10.55810000">
        <ele>111.00000</ele>
        <time>2010-01-01T01:00:46Z</time>
      </trkpt>
      <trkpt lat="43.78907000" lon="10.55807000">
        <ele>113.00000</ele>
        <time>2010-01-01T01:00:53Z</time>
      </trkpt>
      <trkpt lat="43.78972000" lon="10.55752000">
        <ele>115.00000</ele>
        <time>2010-01-01T01:01:24Z</time>
      </trkpt>
      <trkpt lat="43.78978000" lon="10.55763000">
        <ele>120.00000</ele>
        <time>2010-01-01T01:01:28Z</time>
      </trkpt>
      <trkpt lat="43.78972000" lon="10.55771000">
        <ele>120.00000</ele>
        <time>2010-01-01T01:01:31Z</time>
      </trkpt>
      <trkpt lat="43.78951000" lon="10.55787000">
        <ele>116.00000</ele>
        <time>2010-01-01T01:01:41Z</time>
      </trkpt>
      <trkpt lat="43.78940000" lon="10.55821000">
        <ele>121.00000</ele>
        <time>2010-01-01T01:01:51Z</time>
      </trkpt>
      <trkpt lat="43.78942000" lon="10.55883000">
        <ele>132.00000</ele>
        <time>2010-01-01T01:02:09Z</time>
      </trkpt>
      <trkpt lat="43.78933000" lon="10.55895000">
        <ele>132.00000</ele>
        <time>2010-01-01T01:02:14Z</time>
      </trkpt>
      <trkpt lat="43.78902000" lon="10.55890000">
        <ele>126.00000</ele>
        <time>2010-01-01T01:02:27Z</time>
      </trkpt>
      <trkpt lat="43.78831000" lon="10.55921000">
        <ele>127.00000</ele>
        <time>2010-01-01T01:02:57Z</time>
      </trkpt>
      <trkpt lat="43.78774000" lon="10.55955000">
        <ele>134.00000</ele>
        <time>2010-01-01T01:03:22Z</time>
      </trkpt>
      <trkpt lat="43.78708000" lon="10.56010000">
        <ele>142.00000</ele>
        <time>2010-01-01T01:03:52Z</time>
      </trkpt>
      <trkpt lat="43.78679000" lon="10.56026000">
        <ele>144.00000</ele>
        <time>2010-01-01T01:04:05Z</time>
      </trkpt>
      <trkpt lat="43.78631000" lon="10.56075000">
        <ele>144.00000</ele>
        <time>2010-01-01T01:04:29Z</time>
      </trkpt>
      <trkpt lat="43.78599010" lon="10.56099410">
        <ele>140.00000</ele>
        <time>2010-01-01T01:04:43Z</time>
      </trkpt>
      <trkpt lat="43.78539000" lon="10.56051000">
        <ele>134.00000</ele>
        <time>2010-01-01T01:05:11Z</time>
      </trkpt>
      <trkpt lat="43.78525000" lon="10.56051000">
        <ele>134.00000</ele>
        <time>2010-01-01T01:05:17Z</time>
      </trkpt>
      <trkpt lat="43.78470000" lon="10.56022000">
        <ele>136.00000</ele>
        <time>2010-01-01T01:05:40Z</time>
      </trkpt>
      <trkpt lat="43.78451000" lon="10.55993000">
        <ele>137.00000</ele>
        <time>2010-01-01T01:05:52Z</time>
      </trkpt>
      <trkpt lat="43.78424000" lon="10.55986000">
        <ele>137.00000</ele>
        <time>2010-01-01T01:06:03Z</time>
      </trkpt>
      <trkpt lat="43.78375000" lon="10.55994000">
        <ele>133.00000</ele>
        <time>2010-01-01T01:06:22Z</time>
      </trkpt>
      <trkpt lat="43.78368970" lon="10.56043080">
        <ele>128.00000</ele>
        <time>2010-01-01T01:06:37Z</time>
      </trkpt>
      <trkpt lat="43.78368580" lon="10.56088140">
        <ele>123.00000</ele>
        <time>2010-01-01T01:06:50Z</time>
      </trkpt>
      <trkpt lat="43.78356580" lon="10.56168610">
        <ele>115.00000</ele>
        <time>2010-01-01T01:07:14Z</time>
      </trkpt>
      <trkpt lat="43.78310880" lon="10.56312910">
        <ele>103.00000</ele>
        <time>2010-01-01T01:07:59Z</time>
      </trkpt>
      <trkpt lat="43.78324040" lon="10.56396600">
        <ele>104.00000</ele>
        <time>2010-01-01T01:08:24Z</time>
      </trkpt>
      <trkpt lat="43.78311260" lon="10.56429860">
        <ele>106.00000</ele>
        <time>2010-01-01T01:08:35Z</time>
      </trkpt>
      <trkpt lat="43.78302740" lon="10.56405720">
        <ele>107.00000</ele>
        <time>2010-01-01T01:08:42Z</time>
      </trkpt>
      <trkpt lat="43.78243490" lon="10.56333830">
        <ele>112.00000</ele>
        <time>2010-01-01T01:09:14Z</time>
      </trkpt>
      <trkpt lat="43.78208630" lon="10.56273220">
        <ele>117.00000</ele>
        <time>2010-01-01T01:09:36Z</time>
      </trkpt>
      <trkpt lat="43.78159830" lon="10.56225470">
        <ele>117.00000</ele>
        <time>2010-01-01T01:10:00Z</time>
      </trkpt>
      <trkpt lat="43.78112190" lon="10.56156810">
        <ele>117.00000</ele>
        <time>2010-01-01T01:10:28Z</time>
      </trkpt>
      <trkpt lat="43.78034730" lon="10.56071510">
        <ele>132.00000</ele>
        <time>2010-01-01T01:11:07Z</time>
      </trkpt>
      <trkpt lat="43.78011880" lon="10.56013040">
        <ele>131.00000</ele>
        <time>2010-01-01T01:11:27Z</time>
      </trkpt>
      <trkpt lat="43.77921640" lon="10.55889660">
        <ele>137.00000</ele>
        <time>2010-01-01T01:12:17Z</time>
      </trkpt>
      <trkpt lat="43.77876710" lon="10.55869280">
        <ele>143.00000</ele>
        <time>2010-01-01T01:12:36Z</time>
      </trkpt>
      <trkpt lat="43.77859660" lon="10.55852650">
        <ele>147.00000</ele>
        <time>2010-01-01T01:12:45Z</time>
      </trkpt>
      <trkpt lat="43.77835260" lon="10.55723360">
        <ele>142.00000</ele>
        <time>2010-01-01T01:13:23Z</time>
      </trkpt>
      <trkpt lat="43.77820930" lon="10.55700830">
        <ele>146.00000</ele>
        <time>2010-01-01T01:13:32Z</time>
      </trkpt>
      <trkpt lat="43.77783360" lon="10.55667570">
        <ele>157.00000</ele>
        <time>2010-01-01T01:13:50Z</time>
      </trkpt>
      <trkpt lat="43.77773680" lon="10.55638610">
        <ele>158.00000</ele>
        <time>2010-01-01T01:13:59Z</time>
      </trkpt>
      <trkpt lat="43.77761000" lon="10.55564000">
        <ele>156.00000</ele>
        <time>2010-01-01T01:14:21Z</time>
      </trkpt>
      <trkpt lat="43.77750000" lon="10.55537000">
        <ele>155.00000</ele>
        <time>2010-01-01T01:14:30Z</time>
      </trkpt>
      <trkpt lat="43.77709000" lon="10.55511000">
        <ele>167.00000</ele>
        <time>2010-01-01T01:14:48Z</time>
      </trkpt>
      <trkpt lat="43.77669000" lon="10.55436000">
        <ele>168.00000</ele>
        <time>2010-01-01T01:15:15Z</time>
      </trkpt>
      <trkpt lat="43.77645000" lon="10.55399000">
        <ele>168.00000</ele>
        <time>2010-01-01T01:15:30Z</time>
      </trkpt>
      <trkpt lat="43.77597000" lon="10.55373000">
        <ele>179.00000</ele>
        <time>2010-01-01T01:15:50Z</time>
      </trkpt>
      <trkpt lat="43.77584000" lon="10.55356000">
        <ele>181.00000</ele>
        <time>2010-01-01T01:15:57Z</time>
      </trkpt>
      <trkpt lat="43.77574000" lon="10.55273000">
        <ele>180.00000</ele>
        <time>2010-01-01T01:16:22Z</time>
      </trkpt>
      <trkpt lat="43.77556000" lon="10.55213000">
        <ele>185.00000</ele>
        <time>2010-01-01T01:16:40Z</time>
      </trkpt>
      <trkpt lat="43.77503000" lon="10.55158000">
        <ele>194.00000</ele>
        <time>2010-01-01T01:17:07Z</time>
      </trkpt>
      <trkpt lat="43.77483000" lon="10.55148000">
        <ele>194.00000</ele>
        <time>2010-01-01T01:17:15Z</time>
      </trkpt>
      <trkpt lat="43.77450000" lon="10.55150000">
        <ele>199.00000</ele>
        <time>2010-01-01T01:17:29Z</time>
      </trkpt>
      <trkpt lat="43.77424000" lon="10.55117000">
        <ele>199.00000</ele>
        <time>2010-01-01T01:17:43Z</time>
      </trkpt>
      <trkpt lat="43.77382000" lon="10.55088000">
        <ele>202.00000</ele>
        <time>2010-01-01T01:18:02Z</time>
      </trkpt>
      <trkpt lat="43.77338000" lon="10.55046000">
        <ele>204.00000</ele>
        <time>2010-01-01T01:18:23Z</time>
      </trkpt>
      <trkpt lat="43.77316000" lon="10.55040000">
        <ele>210.00000</ele>
        <time>2010-01-01T01:18:32Z</time>
      </trkpt>
      <trkpt lat="43.77309000" lon="10.55032000">
        <ele>212.00000</ele>
        <time>2010-01-01T01:18:36Z</time>
      </trkpt>
      <trkpt lat="43.77297000" lon="10.55000000">
        <ele>217.00000</ele>
        <time>2010-01-01T01:18:46Z</time>
      </trkpt>
      <trkpt lat="43.77292000" lon="10.54999000">
        <ele>219.00000</ele>
        <time>2010-01-01T01:18:48Z</time>
      </trkpt>
      <trkpt lat="43.77288000" lon="10.55008000">
        <ele>221.00000</ele>
        <time>2010-01-01T01:18:51Z</time>
      </trkpt>
      <trkpt lat="43.77291000" lon="10.55018000">
        <ele>221.00000</ele>
        <time>2010-01-01T01:18:54Z</time>
      </trkpt>
      <trkpt lat="43.77339000" lon="10.55106000">
        <ele>213.00000</ele>
        <time>2010-01-01T01:19:26Z</time>
      </trkpt>
      <trkpt lat="43.77368000" lon="10.55136000">
        <ele>214.00000</ele>
        <time>2010-01-01T01:19:41Z</time>
      </trkpt>
      <trkpt lat="43.77370000" lon="10.55155000">
        <ele>216.00000</ele>
        <time>2010-01-01T01:19:46Z</time>
      </trkpt>
      <trkpt lat="43.77365000" lon="10.55162000">
        <ele>218.00000</ele>
        <time>2010-01-01T01:19:49Z</time>
      </trkpt>
      <trkpt lat="43.77355000" lon="10.55163000">
        <ele>221.00000</ele>
        <time>2010-01-01T01:19:53Z</time>
      </trkpt>
      <trkpt lat="43.77299000" lon="10.55140000">
        <ele>229.00000</ele>
        <time>2010-01-01T01:20:16Z</time>
      </trkpt>
      <trkpt lat="43.77293000" lon="10.55133000">
        <ele>230.00000</ele>
        <time>2010-01-01T01:20:20Z</time>
      </trkpt>
      <trkpt lat="43.77288000" lon="10.55119000">
        <ele>231.00000</ele>
        <time>2010-01-01T01:20:24Z</time>
      </trkpt>
      <trkpt lat="43.77293000" lon="10.55104000">
        <ele>227.00000</ele>
        <time>2010-01-01T01:20:29Z</time>
      </trkpt>
      <trkpt lat="43.77294000" lon="10.55093000">
        <ele>226.00000</ele>
        <time>2010-01-01T01:20:32Z</time>
      </trkpt>
      <trkpt lat="43.77274000" lon="10.55057000">
        <ele>235.00000</ele>
        <time>2010-01-01T01:20:45Z</time>
      </trkpt>
      <trkpt lat="43.77265000" lon="10.55028000">
        <ele>236.00000</ele>
        <time>2010-01-01T01:20:54Z</time>
      </trkpt>
      <trkpt lat="43.77247000" lon="10.54999000">
        <ele>240.00000</ele>
        <time>2010-01-01T01:21:05Z</time>
      </trkpt>
      <trkpt lat="43.77225000" lon="10.54975000">
        <ele>239.00000</ele>
        <time>2010-01-01T01:21:17Z</time>
      </trkpt>
      <trkpt lat="43.77192000" lon="10.54956000">
        <ele>244.00000</ele>
        <time>2010-01-01T01:21:31Z</time>
      </trkpt>
      <trkpt lat="43.77180000" lon="10.54943000">
        <ele>246.00000</ele>
        <time>2010-01-01T01:21:37Z</time>
      </trkpt>
      <trkpt lat="43.77157000" lon="10.54904000">
        <ele>244.00000</ele>
        <time>2010-01-01T01:21:52Z</time>
      </trkpt>
      <trkpt lat="43.77145000" lon="10.54903000">
        <ele>247.00000</ele>
        <time>2010-01-01T01:21:56Z</time>
      </trkpt>
      <trkpt lat="43.77117000" lon="10.54909000">
        <ele>256.00000</ele>
        <time>2010-01-01T01:22:08Z</time>
      </trkpt>
      <trkpt lat="43.77081000" lon="10.54899000">
        <ele>264.00000</ele>
        <time>2010-01-01T01:22:22Z</time>
      </trkpt>
      <trkpt lat="43.77040000" lon="10.54913000">
        <ele>270.00000</ele>
        <time>2010-01-01T01:22:39Z</time>
      </trkpt>
      <trkpt lat="43.77034000" lon="10.54909000">
        <ele>271.00000</ele>
        <time>2010-01-01T01:22:42Z</time>
      </trkpt>
      <trkpt lat="43.77031000" lon="10.54895000">
        <ele>272.00000</ele>
        <time>2010-01-01T01:22:46Z</time>
      </trkpt>
      <trkpt lat="43.77038000" lon="10.54882000">
        <ele>272.00000</ele>
        <time>2010-01-01T01:22:51Z</time>
      </trkpt>
      <trkpt lat="43.77099000" lon="10.54806000">
        <ele>271.00000</ele>
        <time>2010-01-01T01:23:24Z</time>
      </trkpt>
      <trkpt lat="43.77117000" lon="10.54793000">
        <ele>270.00000</ele>
        <time>2010-01-01T01:23:32Z</time>
      </trkpt>
      <trkpt lat="43.77146000" lon="10.54757000">
        <ele>269.00000</ele>
        <time>2010-01-01T01:23:47Z</time>
      </trkpt>
      <trkpt lat="43.77153000" lon="10.54726000">
        <ele>268.00000</ele>
        <time>2010-01-01T01:23:57Z</time>
      </trkpt>
      <trkpt lat="43.77138000" lon="10.54651000">
        <ele>276.00000</ele>
        <time>2010-01-01T01:24:19Z</time>
      </trkpt>
      <trkpt lat="43.77082000" lon="10.54605000">
        <ele>287.00000</ele>
        <time>2010-01-01T01:24:45Z</time>
      </trkpt>
      <trkpt lat="43.77024000" lon="10.54619000">
        <ele>298.00000</ele>
        <time>2010-01-01T01:25:09Z</time>
      </trkpt>
      <trkpt lat="43.77009000" lon="10.54627000">
        <ele>301.00000</ele>
        <time>2010-01-01T01:25:15Z</time>
      </trkpt>
      <trkpt lat="43.77001000" lon="10.54629000">
        <ele>303.00000</ele>
        <time>2010-01-01T01:25:19Z</time>
      </trkpt>
      <trkpt lat="43.76957000" lon="10.54603000">
        <ele>309.00000</ele>
        <time>2010-01-01T01:25:38Z</time>
      </trkpt>
      <trkpt lat="43.76951000" lon="10.54596000">
        <ele>309.00000</ele>
        <time>2010-01-01T01:25:41Z</time>
      </trkpt>
      <trkpt lat="43.76930000" lon="10.54559000">
        <ele>311.00000</ele>
        <time>2010-01-01T01:25:55Z</time>
      </trkpt>
      <trkpt lat="43.76919000" lon="10.54525000">
        <ele>310.00000</ele>
        <time>2010-01-01T01:26:05Z</time>
      </trkpt>
      <trkpt lat="43.76906000" lon="10.54478000">
        <ele>314.00000</ele>
        <time>2010-01-01T01:26:20Z</time>
      </trkpt>
      <trkpt lat="43.76889000" lon="10.54457000">
        <ele>317.00000</ele>
        <time>2010-01-01T01:26:29Z</time>
      </trkpt>
      <trkpt lat="43.76873000" lon="10.54453000">
        <ele>322.00000</ele>
        <time>2010-01-01T01:26:35Z</time>
      </trkpt>
      <trkpt lat="43.76853000" lon="10.54457000">
        <ele>327.00000</ele>
        <time>2010-01-01T01:26:44Z</time>
      </trkpt>
      <trkpt lat="43.76846000" lon="10.54453000">
        <ele>329.00000</ele>
        <time>2010-01-01T01:26:47Z</time>
      </trkpt>
      <trkpt lat="43.76845000" lon="10.54440000">
        <ele>328.00000</ele>
        <time>2010-01-01T01:26:50Z</time>
      </trkpt>
      <trkpt lat="43.76863000" lon="10.54399000">
        <ele>328.00000</ele>
        <time>2010-01-01T01:27:04Z</time>
      </trkpt>
      <trkpt lat="43.76864000" lon="10.54355000">
        <ele>335.00000</ele>
        <time>2010-01-01T01:27:17Z</time>
      </trkpt>
      <trkpt lat="43.76872000" lon="10.54320000">
        <ele>335.00000</ele>
        <time>2010-01-01T01:27:28Z</time>
      </trkpt>
      <trkpt lat="43.76873000" lon="10.54304000">
        <ele>336.00000</ele>
        <time>2010-01-01T01:27:32Z</time>
      </trkpt>
      <trkpt lat="43.76868000" lon="10.54279000">
        <ele>339.00000</ele>
        <time>2010-01-01T01:27:40Z</time>
      </trkpt>
      <trkpt lat="43.76858000" lon="10.54264000">
        <ele>342.00000</ele>
        <time>2010-01-01T01:27:46Z</time>
      </trkpt>
      <trkpt lat="43.76824000" lon="10.54233000">
        <ele>354.00000</ele>
        <time>2010-01-01T01:28:02Z</time>
      </trkpt>
      <trkpt lat="43.76809000" lon="10.54213000">
        <ele>359.00000</ele>
        <time>2010-01-01T01:28:10Z</time>
      </trkpt>
      <trkpt lat="43.76790000" lon="10.54156000">
        <ele>359.00000</ele>
        <time>2010-01-01T01:28:28Z</time>
      </trkpt>
      <trkpt lat="43.76766000" lon="10.54116000">
        <ele>363.00000</ele>
        <time>2010-01-01T01:28:43Z</time>
      </trkpt>
      <trkpt lat="43.76763000" lon="10.54107000">
        <ele>364.00000</ele>
        <time>2010-01-01T01:28:46Z</time>
      </trkpt>
      <trkpt lat="43.76766000" lon="10.54092000">
        <ele>368.00000</ele>
        <time>2010-01-01T01:28:51Z</time>
      </trkpt>
      <trkpt lat="43.76781000" lon="10.54089000">
        <ele>369.00000</ele>
        <time>2010-01-01T01:28:57Z</time>
      </trkpt>
      <trkpt lat="43.76809000" lon="10.54108000">
        <ele>365.00000</ele>
        <time>2010-01-01T01:29:09Z</time>
      </trkpt>
      <trkpt lat="43.76845000" lon="10.54148000">
        <ele>359.00000</ele>
        <time>2010-01-01T01:29:28Z</time>
      </trkpt>
      <trkpt lat="43.76876000" lon="10.54150000">
        <ele>366.00000</ele>
        <time>2010-01-01T01:29:40Z</time>
      </trkpt>
      <trkpt lat="43.76924000" lon="10.54174000">
        <ele>368.00000</ele>
        <time>2010-01-01T01:30:01Z</time>
      </trkpt>
      <trkpt lat="43.76947000" lon="10.54189000">
        <ele>367.00000</ele>
        <time>2010-01-01T01:30:11Z</time>
      </trkpt>
      <trkpt lat="43.76961000" lon="10.54191000">
        <ele>368.00000</ele>
        <time>2010-01-01T01:30:16Z</time>
      </trkpt>
      <trkpt lat="43.76977000" lon="10.54173000">
        <ele>372.00000</ele>
        <time>2010-01-01T01:30:25Z</time>
      </trkpt>
      <trkpt lat="43.76982000" lon="10.54157000">
        <ele>374.00000</ele>
        <time>2010-01-01T01:30:30Z</time>
      </trkpt>
      <trkpt lat="43.76995000" lon="10.54111000">
        <ele>377.00000</ele>
        <time>2010-01-01T01:30:44Z</time>
      </trkpt>
      <trkpt lat="43.77039000" lon="10.54026000">
        <ele>393.00000</ele>
        <time>2010-01-01T01:31:14Z</time>
      </trkpt>
      <trkpt lat="43.77064000" lon="10.53991000">
        <ele>402.00000</ele>
        <time>2010-01-01T01:31:29Z</time>
      </trkpt>
      <trkpt lat="43.77083000" lon="10.53973000">
        <ele>406.00000</ele>
        <time>2010-01-01T01:31:38Z</time>
      </trkpt>
      <trkpt lat="43.77084000" lon="10.53965000">
        <ele>408.00000</ele>
        <time>2010-01-01T01:31:40Z</time>
      </trkpt>
      <trkpt lat="43.77081000" lon="10.53962000">
        <ele>409.00000</ele>
        <time>2010-01-01T01:31:42Z</time>
      </trkpt>
      <trkpt lat="43.77075000" lon="10.53964000">
        <ele>409.00000</ele>
        <time>2010-01-01T01:31:44Z</time>
      </trkpt>
      <trkpt lat="43.76997000" lon="10.54017000">
        <ele>415.00000</ele>
        <time>2010-01-01T01:32:19Z</time>
      </trkpt>
      <trkpt lat="43.76952000" lon="10.54064000">
        <ele>412.00000</ele>
        <time>2010-01-01T01:32:41Z</time>
      </trkpt>
      <trkpt lat="43.76930000" lon="10.54071000">
        <ele>413.00000</ele>
        <time>2010-01-01T01:32:50Z</time>
      </trkpt>
      <trkpt lat="43.76900000" lon="10.54049000">
        <ele>422.00000</ele>
        <time>2010-01-01T01:33:04Z</time>
      </trkpt>
      <trkpt lat="43.76803000" lon="10.53937000">
        <ele>436.00000</ele>
        <time>2010-01-01T01:33:55Z</time>
      </trkpt>
      <trkpt lat="43.76790000" lon="10.53909000">
        <ele>442.00000</ele>
        <time>2010-01-01T01:34:04Z</time>
      </trkpt>
      <trkpt lat="43.76783000" lon="10.53877000">
        <ele>450.00000</ele>
        <time>2010-01-01T01:34:14Z</time>
      </trkpt>
      <trkpt lat="43.76782000" lon="10.53842000">
        <ele>462.00000</ele>
        <time>2010-01-01T01:34:24Z</time>
      </trkpt>
      <trkpt lat="43.76772000" lon="10.53828000">
        <ele>464.00000</ele>
        <time>2010-01-01T01:34:30Z</time>
      </trkpt>
      <trkpt lat="43.76747000" lon="10.53828000">
        <ele>458.00000</ele>
        <time>2010-01-01T01:34:40Z</time>
      </trkpt>
      <trkpt lat="43.76722770" lon="10.53822750">
        <ele>456.00000</ele>
        <time>2010-01-01T01:34:49Z</time>
      </trkpt>
      <trkpt lat="43.76705000" lon="10.53802000">
        <ele>459.00000</ele>
        <time>2010-01-01T01:34:59Z</time>
      </trkpt>
      <trkpt lat="43.76669000" lon="10.53744000">
        <ele>472.00000</ele>
        <time>2010-01-01T01:35:21Z</time>
      </trkpt>
      <trkpt lat="43.76653000" lon="10.53713000">
        <ele>487.00000</ele>
        <time>2010-01-01T01:35:32Z</time>
      </trkpt>
      <trkpt lat="43.76648000" lon="10.53707000">
        <ele>491.00000</ele>
        <time>2010-01-01T01:35:35Z</time>
      </trkpt>
      <trkpt lat="43.76640000" lon="10.53705000">
        <ele>493.00000</ele>
        <time>2010-01-01T01:35:38Z</time>
      </trkpt>
      <trkpt lat="43.76634000" lon="10.53710000">
        <ele>493.00000</ele>
        <time>2010-01-01T01:35:41Z</time>
      </trkpt>
      <trkpt lat="43.76630000" lon="10.53719000">
        <ele>491.00000</ele>
        <time>2010-01-01T01:35:44Z</time>
      </trkpt>
      <trkpt lat="43.76612000" lon="10.53785000">
        <ele>482.00000</ele>
        <time>2010-01-01T01:36:04Z</time>
      </trkpt>
      <trkpt lat="43.76599000" lon="10.53814000">
        <ele>476.00000</ele>
        <time>2010-01-01T01:36:14Z</time>
      </trkpt>
      <trkpt lat="43.76590000" lon="10.53830000">
        <ele>473.00000</ele>
        <time>2010-01-01T01:36:20Z</time>
      </trkpt>
      <trkpt lat="43.76584000" lon="10.53835000">
        <ele>473.00000</ele>
        <time>2010-01-01T01:36:23Z</time>
      </trkpt>
      <trkpt lat="43.76575000" lon="10.53838000">
        <ele>473.00000</ele>
        <time>2010-01-01T01:36:26Z</time>
      </trkpt>
      <trkpt lat="43.76567000" lon="10.53837000">
        <ele>474.00000</ele>
        <time>2010-01-01T01:36:30Z</time>
      </trkpt>
      <trkpt lat="43.76560000" lon="10.53834000">
        <ele>475.00000</ele>
        <time>2010-01-01T01:36:32Z</time>
      </trkpt>
      <trkpt lat="43.76541000" lon="10.53802000">
        <ele>481.00000</ele>
        <time>2010-01-01T01:36:44Z</time>
      </trkpt>
      <trkpt lat="43.76501000" lon="10.53753000">
        <ele>494.00000</ele>
        <time>2010-01-01T01:37:06Z</time>
      </trkpt>
      <trkpt lat="43.76487000" lon="10.53731000">
        <ele>499.00000</ele>
        <time>2010-01-01T01:37:14Z</time>
      </trkpt>
      <trkpt lat="43.76449000" lon="10.53702000">
        <ele>499.00000</ele>
        <time>2010-01-01T01:37:32Z</time>
      </trkpt>
      <trkpt lat="43.76433000" lon="10.53669000">
        <ele>502.00000</ele>
        <time>2010-01-01T01:37:43Z</time>
      </trkpt>
      <trkpt lat="43.76420000" lon="10.53649000">
        <ele>506.00000</ele>
        <time>2010-01-01T01:37:51Z</time>
      </trkpt>
      <trkpt lat="43.76414000" lon="10.53644000">
        <ele>507.00000</ele>
        <time>2010-01-01T01:37:54Z</time>
      </trkpt>
      <trkpt lat="43.76393000" lon="10.53637000">
        <ele>504.00000</ele>
        <time>2010-01-01T01:38:02Z</time>
      </trkpt>
      <trkpt lat="43.76381000" lon="10.53626000">
        <ele>506.00000</ele>
        <time>2010-01-01T01:38:08Z</time>
      </trkpt>
      <trkpt lat="43.76361000" lon="10.53595000">
        <ele>514.00000</ele>
        <time>2010-01-01T01:38:20Z</time>
      </trkpt>
      <trkpt lat="43.76334000" lon="10.53539000">
        <ele>525.00000</ele>
        <time>2010-01-01T01:38:40Z</time>
      </trkpt>
      <trkpt lat="43.76327000" lon="10.53534000">
        <ele>527.00000</ele>
        <time>2010-01-01T01:38:43Z</time>
      </trkpt>
      <trkpt lat="43.76320000" lon="10.53535000">
        <ele>529.00000</ele>
        <time>2010-01-01T01:38:46Z</time>
      </trkpt>
      <trkpt lat="43.76314000" lon="10.53540000">
        <ele>529.00000</ele>
        <time>2010-01-01T01:38:48Z</time>
      </trkpt>
      <trkpt lat="43.76287000" lon="10.53594000">
        <ele>526.00000</ele>
        <time>2010-01-01T01:39:07Z</time>
      </trkpt>
      <trkpt lat="43.76265000" lon="10.53614000">
        <ele>530.00000</ele>
        <time>2010-01-01T01:39:18Z</time>
      </trkpt>
      <trkpt lat="43.76205000" lon="10.53627000">
        <ele>552.00000</ele>
        <time>2010-01-01T01:39:42Z</time>
      </trkpt>
      <trkpt lat="43.76191000" lon="10.53643000">
        <ele>554.00000</ele>
        <time>2010-01-01T01:39:49Z</time>
      </trkpt>
      <trkpt lat="43.76191000" lon="10.53654000">
        <ele>554.00000</ele>
        <time>2010-01-01T01:39:53Z</time>
      </trkpt>
      <trkpt lat="43.76213000" lon="10.53760000">
        <ele>558.00000</ele>
        <time>2010-01-01T01:40:25Z</time>
      </trkpt>
      <trkpt lat="43.76240000" lon="10.53848000">
        <ele>554.00000</ele>
        <time>2010-01-01T01:40:52Z</time>
      </trkpt>
      <trkpt lat="43.76241000" lon="10.53862000">
        <ele>554.00000</ele>
        <time>2010-01-01T01:40:56Z</time>
      </trkpt>
      <trkpt lat="43.76236000" lon="10.53862000">
        <ele>558.00000</ele>
        <time>2010-01-01T01:40:58Z</time>
      </trkpt>
      <trkpt lat="43.76164000" lon="10.53737000">
        <ele>576.00000</ele>
        <time>2010-01-01T01:41:44Z</time>
      </trkpt>
      <trkpt lat="43.76133000" lon="10.53675000">
        <ele>585.00000</ele>
        <time>2010-01-01T01:42:06Z</time>
      </trkpt>
      <trkpt lat="43.76098260" lon="10.53574910">
        <ele>603.00000</ele>
        <time>2010-01-01T01:42:38Z</time>
      </trkpt>
      <trkpt lat="43.76099000" lon="10.53545000">
        <ele>607.00000</ele>
        <time>2010-01-01T01:42:47Z</time>
      </trkpt>
      <trkpt lat="43.76106000" lon="10.53533000">
        <ele>607.00000</ele>
        <time>2010-01-01T01:42:52Z</time>
      </trkpt>
      <trkpt lat="43.76157000" lon="10.53500000">
        <ele>604.00000</ele>
        <time>2010-01-01T01:43:14Z</time>
      </trkpt>
      <trkpt lat="43.76181000" lon="10.53487000">
        <ele>603.00000</ele>
        <time>2010-01-01T01:43:24Z</time>
      </trkpt>
      <trkpt lat="43.76180000" lon="10.53476000">
        <ele>607.00000</ele>
        <time>2010-01-01T01:43:28Z</time>
      </trkpt>
      <trkpt lat="43.76172000" lon="10.53473000">
        <ele>610.00000</ele>
        <time>2010-01-01T01:43:31Z</time>
      </trkpt>
      <trkpt lat="43.76129000" lon="10.53486000">
        <ele>616.00000</ele>
        <time>2010-01-01T01:43:48Z</time>
      </trkpt>
      <trkpt lat="43.76094000" lon="10.53484000">
        <ele>625.00000</ele>
        <time>2010-01-01T01:44:03Z</time>
      </trkpt>
      <trkpt lat="43.76083000" lon="10.53486000">
        <ele>627.00000</ele>
        <time>2010-01-01T01:44:07Z</time>
      </trkpt>
      <trkpt lat="43.76062000" lon="10.53501000">
        <ele>633.00000</ele>
        <time>2010-01-01T01:44:16Z</time>
      </trkpt>
      <trkpt lat="43.76048000" lon="10.53516000">
        <ele>637.00000</ele>
        <time>2010-01-01T01:44:24Z</time>
      </trkpt>
      <trkpt lat="43.76038000" lon="10.53538000">
        <ele>640.00000</ele>
        <time>2010-01-01T01:44:31Z</time>
      </trkpt>
      <trkpt lat="43.76035000" lon="10.53566000">
        <ele>640.00000</ele>
        <time>2010-01-01T01:44:39Z</time>
      </trkpt>
      <trkpt lat="43.76037000" lon="10.53589000">
        <ele>639.00000</ele>
        <time>2010-01-01T01:44:46Z</time>
      </trkpt>
      <trkpt lat="43.76058000" lon="10.53718000">
        <ele>642.00000</ele>
        <time>2010-01-01T01:45:24Z</time>
      </trkpt>
      <trkpt lat="43.76074000" lon="10.53792000">
        <ele>650.00000</ele>
        <time>2010-01-01T01:45:46Z</time>
      </trkpt>
      <trkpt lat="43.76067000" lon="10.53794000">
        <ele>654.00000</ele>
        <time>2010-01-01T01:45:49Z</time>
      </trkpt>
      <trkpt lat="43.76018000" lon="10.53682000">
        <ele>663.00000</ele>
        <time>2010-01-01T01:46:27Z</time>
      </trkpt>
      <trkpt lat="43.75947000" lon="10.53559000">
        <ele>681.00000</ele>
        <time>2010-01-01T01:47:13Z</time>
      </trkpt>
      <trkpt lat="43.75942000" lon="10.53546000">
        <ele>684.00000</ele>
        <time>2010-01-01T01:47:17Z</time>
      </trkpt>
      <trkpt lat="43.75940000" lon="10.53533000">
        <ele>685.00000</ele>
        <time>2010-01-01T01:47:21Z</time>
      </trkpt>
      <trkpt lat="43.75940000" lon="10.53513000">
        <ele>688.00000</ele>
        <time>2010-01-01T01:47:27Z</time>
      </trkpt>
      <trkpt lat="43.75942000" lon="10.53499000">
        <ele>689.00000</ele>
        <time>2010-01-01T01:47:31Z</time>
      </trkpt>
      <trkpt lat="43.75989000" lon="10.53413000">
        <ele>691.00000</ele>
        <time>2010-01-01T01:48:02Z</time>
      </trkpt>
      <trkpt lat="43.76049000" lon="10.53326000">
        <ele>696.00000</ele>
        <time>2010-01-01T01:48:37Z</time>
      </trkpt>
      <trkpt lat="43.76049000" lon="10.53313000">
        <ele>699.00000</ele>
        <time>2010-01-01T01:48:40Z</time>
      </trkpt>
      <trkpt lat="43.76043000" lon="10.53312000">
        <ele>701.00000</ele>
        <time>2010-01-01T01:48:43Z</time>
      </trkpt>
      <trkpt lat="43.76036000" lon="10.53316000">
        <ele>703.00000</ele>
        <time>2010-01-01T01:48:46Z</time>
      </trkpt>
      <trkpt lat="43.75981000" lon="10.53361000">
        <ele>704.00000</ele>
        <time>2010-01-01T01:49:11Z</time>
      </trkpt>
      <trkpt lat="43.75934000" lon="10.53390000">
        <ele>715.00000</ele>
        <time>2010-01-01T01:49:32Z</time>
      </trkpt>
      <trkpt lat="43.75841000" lon="10.53470000">
        <ele>729.00000</ele>
        <time>2010-01-01T01:50:16Z</time>
      </trkpt>
      <trkpt lat="43.75824000" lon="10.53508000">
        <ele>729.00000</ele>
        <time>2010-01-01T01:50:29Z</time>
      </trkpt>
      <trkpt lat="43.75820000" lon="10.53552000">
        <ele>731.00000</ele>
        <time>2010-01-01T01:50:42Z</time>
      </trkpt>
      <trkpt lat="43.75815000" lon="10.53549000">
        <ele>732.00000</ele>
        <time>2010-01-01T01:50:44Z</time>
      </trkpt>
      <trkpt lat="43.75812000" lon="10.53540000">
        <ele>732.00000</ele>
        <time>2010-01-01T01:50:47Z</time>
      </trkpt>
      <trkpt lat="43.75805000" lon="10.53470000">
        <ele>728.00000</ele>
        <time>2010-01-01T01:51:07Z</time>
      </trkpt>
      <trkpt lat="43.75777000" lon="10.53522000">
        <ele>731.00000</ele>
        <time>2010-01-01T01:51:26Z</time>
      </trkpt>
      <trkpt lat="43.75770000" lon="10.53546000">
        <ele>734.00000</ele>
        <time>2010-01-01T01:51:33Z</time>
      </trkpt>
      <trkpt lat="43.75768000" lon="10.53586000">
        <ele>738.00000</ele>
        <time>2010-01-01T01:51:45Z</time>
      </trkpt>
      <trkpt lat="43.75754000" lon="10.53648000">
        <ele>745.00000</ele>
        <time>2010-01-01T01:52:04Z</time>
      </trkpt>
      <trkpt lat="43.75734000" lon="10.53685000">
        <ele>746.00000</ele>
        <time>2010-01-01T01:52:17Z</time>
      </trkpt>
      <trkpt lat="43.75705000" lon="10.53748000">
        <ele>756.00000</ele>
        <time>2010-01-01T01:52:39Z</time>
      </trkpt>
      <trkpt lat="43.75670000" lon="10.53790000">
        <ele>762.00000</ele>
        <time>2010-01-01T01:52:57Z</time>
      </trkpt>
      <trkpt lat="43.75655000" lon="10.53794000">
        <ele>762.00000</ele>
        <time>2010-01-01T01:53:03Z</time>
      </trkpt>
      <trkpt lat="43.75636000" lon="10.53794000">
        <ele>759.00000</ele>
        <time>2010-01-01T01:53:11Z</time>
      </trkpt>
      <trkpt lat="43.75597000" lon="10.53812000">
        <ele>759.00000</ele>
        <time>2010-01-01T01:53:27Z</time>
      </trkpt>
      <trkpt lat="43.75579000" lon="10.53835000">
        <ele>762.00000</ele>
        <time>2010-01-01T01:53:37Z</time>
      </trkpt>
      <trkpt lat="43.75569000" lon="10.53856000">
        <ele>768.00000</ele>
        <time>2010-01-01T01:53:44Z</time>
      </trkpt>
      <trkpt lat="43.75512000" lon="10.53915000">
        <ele>779.00000</ele>
        <time>2010-01-01T01:54:13Z</time>
      </trkpt>
      <trkpt lat="43.75486000" lon="10.53927000">
        <ele>780.00000</ele>
        <time>2010-01-01T01:54:24Z</time>
      </trkpt>
      <trkpt lat="43.75465000" lon="10.53932000">
        <ele>780.00000</ele>
        <time>2010-01-01T01:54:32Z</time>
      </trkpt>
      <trkpt lat="43.75432000" lon="10.53934000">
        <ele>775.00000</ele>
        <time>2010-01-01T01:54:46Z</time>
      </trkpt>
      <trkpt lat="43.75418000" lon="10.53943000">
        <ele>773.00000</ele>
        <time>2010-01-01T01:54:52Z</time>
      </trkpt>
      <trkpt lat="43.75406000" lon="10.53962000">
        <ele>776.00000</ele>
        <time>2010-01-01T01:54:59Z</time>
      </trkpt>
      <trkpt lat="43.75358000" lon="10.54048000">
        <ele>775.00000</ele>
        <time>2010-01-01T01:55:31Z</time>
      </trkpt>
      <trkpt lat="43.75350000" lon="10.54091000">
        <ele>782.00000</ele>
        <time>2010-01-01T01:55:43Z</time>
      </trkpt>
      <trkpt lat="43.75335000" lon="10.54143000">
        <ele>788.00000</ele>
        <time>2010-01-01T01:56:00Z</time>
      </trkpt>
      <trkpt lat="43.75309000" lon="10.54190000">
        <ele>783.00000</ele>
        <time>2010-01-01T01:56:17Z</time>
      </trkpt>
      <trkpt lat="43.75305000" lon="10.54207000">
        <ele>783.00000</ele>
        <time>2010-01-01T01:56:22Z</time>
      </trkpt>
      <trkpt lat="43.75305000" lon="10.54234000">
        <ele>783.00000</ele>
        <time>2010-01-01T01:56:30Z</time>
      </trkpt>
      <trkpt lat="43.75311000" lon="10.54258000">
        <ele>784.00000</ele>
        <time>2010-01-01T01:56:37Z</time>
      </trkpt>
      <trkpt lat="43.75342000" lon="10.54315000">
        <ele>790.00000</ele>
        <time>2010-01-01T01:56:58Z</time>
      </trkpt>
      <trkpt lat="43.75373000" lon="10.54415000">
        <ele>792.00000</ele>
        <time>2010-01-01T01:57:29Z</time>
      </trkpt>
      <trkpt lat="43.75390000" lon="10.54529000">
        <ele>795.00000</ele>
        <time>2010-01-01T01:58:03Z</time>
      </trkpt>
      <trkpt lat="43.75389210" lon="10.54672470">
        <ele>797.00000</ele>
        <time>2010-01-01T01:58:44Z</time>
      </trkpt>
      <trkpt lat="43.75404000" lon="10.54735000">
        <ele>802.00000</ele>
        <time>2010-01-01T01:59:03Z</time>
      </trkpt>
      <trkpt lat="43.75421000" lon="10.54786000">
        <ele>804.00000</ele>
        <time>2010-01-01T01:59:20Z</time>
      </trkpt>
      <trkpt lat="43.75434000" lon="10.54837000">
        <ele>804.00000</ele>
        <time>2010-01-01T01:59:35Z</time>
      </trkpt>
      <trkpt lat="43.75347360" lon="10.54821610">
        <ele>796.00000</ele>
        <time>2010-01-01T02:00:10Z</time>
      </trkpt>
      <trkpt lat="43.75311000" lon="10.54835000">
        <ele>797.00000</ele>
        <time>2010-01-01T02:00:25Z</time>
      </trkpt>
      <trkpt lat="43.75245000" lon="10.54889000">
        <ele>800.00000</ele>
        <time>2010-01-01T02:00:56Z</time>
      </trkpt>
      <trkpt lat="43.75219000" lon="10.54930000">
        <ele>799.00000</ele>
        <time>2010-01-01T02:01:12Z</time>
      </trkpt>
      <trkpt lat="43.75141000" lon="10.55025000">
        <ele>794.00000</ele>
        <time>2010-01-01T02:01:53Z</time>
      </trkpt>
      <trkpt lat="43.75112000" lon="10.55048000">
        <ele>798.00000</ele>
        <time>2010-01-01T02:02:07Z</time>
      </trkpt>
      <trkpt lat="43.75045000" lon="10.55081000">
        <ele>796.00000</ele>
        <time>2010-01-01T02:02:35Z</time>
      </trkpt>
      <trkpt lat="43.75019000" lon="10.55087000">
        <ele>800.00000</ele>
        <time>2010-01-01T02:02:46Z</time>
      </trkpt>
      <trkpt lat="43.74973000" lon="10.55070000">
        <ele>797.00000</ele>
        <time>2010-01-01T02:03:05Z</time>
      </trkpt>
      <trkpt lat="43.74942000" lon="10.55049000">
        <ele>793.00000</ele>
        <time>2010-01-01T02:03:19Z</time>
      </trkpt>
      <trkpt lat="43.74923000" lon="10.55019000">
        <ele>791.00000</ele>
        <time>2010-01-01T02:03:30Z</time>
      </trkpt>
      <trkpt lat="43.74866000" lon="10.55002000">
        <ele>791.00000</ele>
        <time>2010-01-01T02:03:53Z</time>
      </trkpt>
      <trkpt lat="43.74829000" lon="10.54977000">
        <ele>782.00000</ele>
        <time>2010-01-01T02:04:10Z</time>
      </trkpt>
      <trkpt lat="43.74809000" lon="10.54975000">
        <ele>780.00000</ele>
        <time>2010-01-01T02:04:18Z</time>
      </trkpt>
      <trkpt lat="43.74732000" lon="10.54999000">
        <ele>767.00000</ele>
        <time>2010-01-01T02:04:50Z</time>
      </trkpt>
      <trkpt lat="43.74714000" lon="10.55011000">
        <ele>763.00000</ele>
        <time>2010-01-01T02:04:58Z</time>
      </trkpt>
      <trkpt lat="43.74649000" lon="10.55142000">
        <ele>769.00000</ele>
        <time>2010-01-01T02:05:43Z</time>
      </trkpt>
      <trkpt lat="43.74599000" lon="10.55151000">
        <ele>763.00000</ele>
        <time>2010-01-01T02:06:04Z</time>
      </trkpt>
      <trkpt lat="43.74509000" lon="10.55127000">
        <ele>755.00000</ele>
        <time>2010-01-01T02:06:40Z</time>
      </trkpt>
      <trkpt lat="43.74351000" lon="10.55093000">
        <ele>734.00000</ele>
        <time>2010-01-01T02:07:44Z</time>
      </trkpt>
      <trkpt lat="43.74320000" lon="10.55067000">
        <ele>727.00000</ele>
        <time>2010-01-01T02:07:59Z</time>
      </trkpt>
      <trkpt lat="43.74284000" lon="10.55047000">
        <ele>727.00000</ele>
        <time>2010-01-01T02:08:14Z</time>
      </trkpt>
      <trkpt lat="43.74253000" lon="10.55006000">
        <ele>726.00000</ele>
        <time>2010-01-01T02:08:32Z</time>
      </trkpt>
      <trkpt lat="43.74221000" lon="10.54951000">
        <ele>715.00000</ele>
        <time>2010-01-01T02:08:52Z</time>
      </trkpt>
      <trkpt lat="43.74181000" lon="10.54917000">
        <ele>720.00000</ele>
        <time>2010-01-01T02:09:11Z</time>
      </trkpt>
      <trkpt lat="43.74173000" lon="10.54861000">
        <ele>709.00000</ele>
        <time>2010-01-01T02:09:27Z</time>
      </trkpt>
      <trkpt lat="43.74163000" lon="10.54811000">
        <ele>700.00000</ele>
        <time>2010-01-01T02:09:42Z</time>
      </trkpt>
      <trkpt lat="43.74122000" lon="10.54748000">
        <ele>691.00000</ele>
        <time>2010-01-01T02:10:07Z</time>
      </trkpt>
      <trkpt lat="43.74104000" lon="10.54738000">
        <ele>686.00000</ele>
        <time>2010-01-01T02:10:15Z</time>
      </trkpt>
      <trkpt lat="43.74091000" lon="10.54745000">
        <ele>686.00000</ele>
        <time>2010-01-01T02:10:20Z</time>
      </trkpt>
      <trkpt lat="43.74071000" lon="10.54765000">
        <ele>684.00000</ele>
        <time>2010-01-01T02:10:30Z</time>
      </trkpt>
      <trkpt lat="43.74041000" lon="10.54805000">
        <ele>683.00000</ele>
        <time>2010-01-01T02:10:47Z</time>
      </trkpt>
      <trkpt lat="43.73991000" lon="10.54887000">
        <ele>680.00000</ele>
        <time>2010-01-01T02:11:18Z</time>
      </trkpt>
      <trkpt lat="43.73956000" lon="10.54915000">
        <ele>676.00000</ele>
        <time>2010-01-01T02:11:34Z</time>
      </trkpt>
      <trkpt lat="43.73901000" lon="10.54923000">
        <ele>670.00000</ele>
        <time>2010-01-01T02:11:56Z</time>
      </trkpt>
      <trkpt lat="43.73855000" lon="10.54921000">
        <ele>664.00000</ele>
        <time>2010-01-01T02:12:14Z</time>
      </trkpt>
      <trkpt lat="43.73747000" lon="10.54867000">
        <ele>642.00000</ele>
        <time>2010-01-01T02:13:00Z</time>
      </trkpt>
      <trkpt lat="43.73726000" lon="10.54865000">
        <ele>641.00000</ele>
        <time>2010-01-01T02:13:09Z</time>
      </trkpt>
      <trkpt lat="43.73706000" lon="10.54868000">
        <ele>640.00000</ele>
        <time>2010-01-01T02:13:17Z</time>
      </trkpt>
      <trkpt lat="43.73676000" lon="10.54900000">
        <ele>643.00000</ele>
        <time>2010-01-01T02:13:32Z</time>
      </trkpt>
      <trkpt lat="43.73673000" lon="10.54925000">
        <ele>643.00000</ele>
        <time>2010-01-01T02:13:39Z</time>
      </trkpt>
      <trkpt lat="43.73678000" lon="10.54945000">
        <ele>643.00000</ele>
        <time>2010-01-01T02:13:46Z</time>
      </trkpt>
      <trkpt lat="43.73735000" lon="10.55055000">
        <ele>642.00000</ele>
        <time>2010-01-01T02:14:25Z</time>
      </trkpt>
      <trkpt lat="43.73749000" lon="10.55098000">
        <ele>643.00000</ele>
        <time>2010-01-01T02:14:38Z</time>
      </trkpt>
      <trkpt lat="43.73756000" lon="10.55157000">
        <ele>638.00000</ele>
        <time>2010-01-01T02:14:56Z</time>
      </trkpt>
      <trkpt lat="43.73761000" lon="10.55281000">
        <ele>635.00000</ele>
        <time>2010-01-01T02:15:32Z</time>
      </trkpt>
      <trkpt lat="43.73772000" lon="10.55342000">
        <ele>633.00000</ele>
        <time>2010-01-01T02:15:50Z</time>
      </trkpt>
      <trkpt lat="43.73785000" lon="10.55367000">
        <ele>632.00000</ele>
        <time>2010-01-01T02:15:59Z</time>
      </trkpt>
      <trkpt lat="43.73800000" lon="10.55382000">
        <ele>632.00000</ele>
        <time>2010-01-01T02:16:06Z</time>
      </trkpt>
      <trkpt lat="43.73843000" lon="10.55406000">
        <ele>632.00000</ele>
        <time>2010-01-01T02:16:25Z</time>
      </trkpt>
      <trkpt lat="43.73862000" lon="10.55427000">
        <ele>631.00000</ele>
        <time>2010-01-01T02:16:34Z</time>
      </trkpt>
      <trkpt lat="43.73869000" lon="10.55458000">
        <ele>628.00000</ele>
        <time>2010-01-01T02:16:44Z</time>
      </trkpt>
      <trkpt lat="43.73869000" lon="10.55500000">
        <ele>626.00000</ele>
        <time>2010-01-01T02:16:56Z</time>
      </trkpt>
      <trkpt lat="43.73849000" lon="10.55589000">
        <ele>627.00000</ele>
        <time>2010-01-01T02:17:23Z</time>
      </trkpt>
      <trkpt lat="43.73774000" lon="10.55807000">
        <ele>611.00000</ele>
        <time>2010-01-01T02:18:33Z</time>
      </trkpt>
      <trkpt lat="43.73701000" lon="10.55971000">
        <ele>606.00000</ele>
        <time>2010-01-01T02:19:28Z</time>
      </trkpt>
      <trkpt lat="43.73681000" lon="10.56077000">
        <ele>605.00000</ele>
        <time>2010-01-01T02:20:00Z</time>
      </trkpt>
      <trkpt lat="43.73681000" lon="10.56124000">
        <ele>603.00000</ele>
        <time>2010-01-01T02:20:14Z</time>
      </trkpt>
      <trkpt lat="43.73699000" lon="10.56263000">
        <ele>595.00000</ele>
        <time>2010-01-01T02:20:55Z</time>
      </trkpt>
      <trkpt lat="43.73710000" lon="10.56312000">
        <ele>590.00000</ele>
        <time>2010-01-01T02:21:09Z</time>
      </trkpt>
      <trkpt lat="43.73726000" lon="10.56345000">
        <ele>591.00000</ele>
        <time>2010-01-01T02:21:21Z</time>
      </trkpt>
      <trkpt lat="43.73762000" lon="10.56384000">
        <ele>596.00000</ele>
        <time>2010-01-01T02:21:39Z</time>
      </trkpt>
      <trkpt lat="43.73834000" lon="10.56442000">
        <ele>589.00000</ele>
        <time>2010-01-01T02:22:12Z</time>
      </trkpt>
      <trkpt lat="43.73840000" lon="10.56456000">
        <ele>587.00000</ele>
        <time>2010-01-01T02:22:17Z</time>
      </trkpt>
      <trkpt lat="43.73835000" lon="10.56462000">
        <ele>585.00000</ele>
        <time>2010-01-01T02:22:20Z</time>
      </trkpt>
      <trkpt lat="43.73819000" lon="10.56460000">
        <ele>583.00000</ele>
        <time>2010-01-01T02:22:26Z</time>
      </trkpt>
      <trkpt lat="43.73776000" lon="10.56438000">
        <ele>580.00000</ele>
        <time>2010-01-01T02:22:45Z</time>
      </trkpt>
      <trkpt lat="43.73720000" lon="10.56419000">
        <ele>573.00000</ele>
        <time>2010-01-01T02:23:08Z</time>
      </trkpt>
      <trkpt lat="43.73689000" lon="10.56390000">
        <ele>565.00000</ele>
        <time>2010-01-01T02:23:23Z</time>
      </trkpt>
      <trkpt lat="43.73667000" lon="10.56344000">
        <ele>569.00000</ele>
        <time>2010-01-01T02:23:39Z</time>
      </trkpt>
      <trkpt lat="43.73606000" lon="10.56197000">
        <ele>555.00000</ele>
        <time>2010-01-01T02:24:28Z</time>
      </trkpt>
      <trkpt lat="43.73513000" lon="10.56048000">
        <ele>540.00000</ele>
        <time>2010-01-01T02:25:25Z</time>
      </trkpt>
      <trkpt lat="43.73493000" lon="10.56011000">
        <ele>527.00000</ele>
        <time>2010-01-01T02:25:38Z</time>
      </trkpt>
      <trkpt lat="43.73493000" lon="10.56004000">
        <ele>527.00000</ele>
        <time>2010-01-01T02:25:40Z</time>
      </trkpt>
      <trkpt lat="43.73496000" lon="10.55997000">
        <ele>528.00000</ele>
        <time>2010-01-01T02:25:42Z</time>
      </trkpt>
      <trkpt lat="43.73537000" lon="10.55958000">
        <ele>543.00000</ele>
        <time>2010-01-01T02:26:02Z</time>
      </trkpt>
      <trkpt lat="43.73573000" lon="10.55908000">
        <ele>542.00000</ele>
        <time>2010-01-01T02:26:23Z</time>
      </trkpt>
      <trkpt lat="43.73594000" lon="10.55865000">
        <ele>539.00000</ele>
        <time>2010-01-01T02:26:38Z</time>
      </trkpt>
      <trkpt lat="43.73606000" lon="10.55825000">
        <ele>536.00000</ele>
        <time>2010-01-01T02:26:50Z</time>
      </trkpt>
      <trkpt lat="43.73628000" lon="10.55712000">
        <ele>524.00000</ele>
        <time>2010-01-01T02:27:24Z</time>
      </trkpt>
      <trkpt lat="43.73621000" lon="10.55605000">
        <ele>513.00000</ele>
        <time>2010-01-01T02:27:55Z</time>
      </trkpt>
      <trkpt lat="43.73615000" lon="10.55569000">
        <ele>510.00000</ele>
        <time>2010-01-01T02:28:06Z</time>
      </trkpt>
      <trkpt lat="43.73588000" lon="10.55502000">
        <ele>510.00000</ele>
        <time>2010-01-01T02:28:28Z</time>
      </trkpt>
      <trkpt lat="43.73581000" lon="10.55494000">
        <ele>509.00000</ele>
        <time>2010-01-01T02:28:32Z</time>
      </trkpt>
      <trkpt lat="43.73572000" lon="10.55488000">
        <ele>510.00000</ele>
        <time>2010-01-01T02:28:36Z</time>
      </trkpt>
      <trkpt lat="43.73557000" lon="10.55487000">
        <ele>509.00000</ele>
        <time>2010-01-01T02:28:42Z</time>
      </trkpt>
      <trkpt lat="43.73549000" lon="10.55490000">
        <ele>510.00000</ele>
        <time>2010-01-01T02:28:45Z</time>
      </trkpt>
      <trkpt lat="43.73538000" lon="10.55498000">
        <ele>511.00000</ele>
        <time>2010-01-01T02:28:50Z</time>
      </trkpt>
      <trkpt lat="43.73527000" lon="10.55509000">
        <ele>511.00000</ele>
        <time>2010-01-01T02:28:55Z</time>
      </trkpt>
      <trkpt lat="43.73425000" lon="10.55631000">
        <ele>497.00000</ele>
        <time>2010-01-01T02:29:49Z</time>
      </trkpt>
      <trkpt lat="43.73377000" lon="10.55674000">
        <ele>491.00000</ele>
        <time>2010-01-01T02:30:12Z</time>
      </trkpt>
      <trkpt lat="43.73344000" lon="10.55707000">
        <ele>487.00000</ele>
        <time>2010-01-01T02:30:29Z</time>
      </trkpt>
      <trkpt lat="43.73297000" lon="10.55768000">
        <ele>483.00000</ele>
        <time>2010-01-01T02:30:54Z</time>
      </trkpt>
      <trkpt lat="43.73248000" lon="10.55865000">
        <ele>471.00000</ele>
        <time>2010-01-01T02:31:29Z</time>
      </trkpt>
      <trkpt lat="43.73211000" lon="10.55939000">
        <ele>471.00000</ele>
        <time>2010-01-01T02:31:55Z</time>
      </trkpt>
      <trkpt lat="43.73198000" lon="10.55989000">
        <ele>460.00000</ele>
        <time>2010-01-01T02:32:10Z</time>
      </trkpt>
      <trkpt lat="43.73173000" lon="10.56041000">
        <ele>459.00000</ele>
        <time>2010-01-01T02:32:28Z</time>
      </trkpt>
      <trkpt lat="43.73145000" lon="10.56074000">
        <ele>462.00000</ele>
        <time>2010-01-01T02:32:43Z</time>
      </trkpt>
      <trkpt lat="43.73141000" lon="10.56085000">
        <ele>461.00000</ele>
        <time>2010-01-01T02:32:46Z</time>
      </trkpt>
      <trkpt lat="43.73145000" lon="10.56099000">
        <ele>457.00000</ele>
        <time>2010-01-01T02:32:51Z</time>
      </trkpt>
      <trkpt lat="43.73150000" lon="10.56103000">
        <ele>455.00000</ele>
        <time>2010-01-01T02:32:53Z</time>
      </trkpt>
      <trkpt lat="43.73158000" lon="10.56103000">
        <ele>453.00000</ele>
        <time>2010-01-01T02:32:56Z</time>
      </trkpt>
      <trkpt lat="43.73166000" lon="10.56094000">
        <ele>453.00000</ele>
        <time>2010-01-01T02:33:00Z</time>
      </trkpt>
      <trkpt lat="43.73218000" lon="10.56015000">
        <ele>445.00000</ele>
        <time>2010-01-01T02:33:31Z</time>
      </trkpt>
      <trkpt lat="43.73242000" lon="10.55966000">
        <ele>447.00000</ele>
        <time>2010-01-01T02:33:48Z</time>
      </trkpt>
      <trkpt lat="43.73283000" lon="10.55916000">
        <ele>446.00000</ele>
        <time>2010-01-01T02:34:10Z</time>
      </trkpt>
      <trkpt lat="43.73306000" lon="10.55898000">
        <ele>439.00000</ele>
        <time>2010-01-01T02:34:21Z</time>
      </trkpt>
      <trkpt lat="43.73340000" lon="10.55884000">
        <ele>437.00000</ele>
        <time>2010-01-01T02:34:35Z</time>
      </trkpt>
      <trkpt lat="43.73353000" lon="10.55887000">
        <ele>439.00000</ele>
        <time>2010-01-01T02:34:40Z</time>
      </trkpt>
      <trkpt lat="43.73359000" lon="10.55892000">
        <ele>440.00000</ele>
        <time>2010-01-01T02:34:43Z</time>
      </trkpt>
      <trkpt lat="43.73362000" lon="10.55899000">
        <ele>440.00000</ele>
        <time>2010-01-01T02:34:45Z</time>
      </trkpt>
      <trkpt lat="43.73364000" lon="10.55910000">
        <ele>440.00000</ele>
        <time>2010-01-01T02:34:49Z</time>
      </trkpt>
      <trkpt lat="43.73364000" lon="10.55922000">
        <ele>439.00000</ele>
        <time>2010-01-01T02:34:52Z</time>
      </trkpt>
      <trkpt lat="43.73350000" lon="10.56032000">
        <ele>426.00000</ele>
        <time>2010-01-01T02:35:25Z</time>
      </trkpt>
      <trkpt lat="43.73348000" lon="10.56091000">
        <ele>425.00000</ele>
        <time>2010-01-01T02:35:42Z</time>
      </trkpt>
      <trkpt lat="43.73352000" lon="10.56137000">
        <ele>420.00000</ele>
        <time>2010-01-01T02:35:55Z</time>
      </trkpt>
      <trkpt lat="43.73366000" lon="10.56241000">
        <ele>410.00000</ele>
        <time>2010-01-01T02:36:26Z</time>
      </trkpt>
      <trkpt lat="43.73369000" lon="10.56277000">
        <ele>410.00000</ele>
        <time>2010-01-01T02:36:36Z</time>
      </trkpt>
      <trkpt lat="43.73365000" lon="10.56367000">
        <ele>404.00000</ele>
        <time>2010-01-01T02:37:02Z</time>
      </trkpt>
      <trkpt lat="43.73396000" lon="10.56563000">
        <ele>393.00000</ele>
        <time>2010-01-01T02:38:00Z</time>
      </trkpt>
      <trkpt lat="43.73400000" lon="10.56583000">
        <ele>392.00000</ele>
        <time>2010-01-01T02:38:06Z</time>
      </trkpt>
      <trkpt lat="43.73416000" lon="10.56622000">
        <ele>391.00000</ele>
        <time>2010-01-01T02:38:19Z</time>
      </trkpt>
      <trkpt lat="43.73430000" lon="10.56689000">
        <ele>379.00000</ele>
        <time>2010-01-01T02:38:39Z</time>
      </trkpt>
      <trkpt lat="43.73446000" lon="10.56753000">
        <ele>379.00000</ele>
        <time>2010-01-01T02:38:59Z</time>
      </trkpt>
      <trkpt lat="43.73450000" lon="10.56826000">
        <ele>375.00000</ele>
        <time>2010-01-01T02:39:20Z</time>
      </trkpt>
      <trkpt lat="43.73462000" lon="10.56913000">
        <ele>374.00000</ele>
        <time>2010-01-01T02:39:46Z</time>
      </trkpt>
      <trkpt lat="43.73458000" lon="10.56920000">
        <ele>370.00000</ele>
        <time>2010-01-01T02:39:48Z</time>
      </trkpt>
      <trkpt lat="43.73452000" lon="10.56919000">
        <ele>368.00000</ele>
        <time>2010-01-01T02:39:51Z</time>
      </trkpt>
      <trkpt lat="43.73444000" lon="10.56895000">
        <ele>368.00000</ele>
        <time>2010-01-01T02:39:58Z</time>
      </trkpt>
      <trkpt lat="43.73425000" lon="10.56827000">
        <ele>359.00000</ele>
        <time>2010-01-01T02:40:19Z</time>
      </trkpt>
      <trkpt lat="43.73347000" lon="10.56688000">
        <ele>347.00000</ele>
        <time>2010-01-01T02:41:10Z</time>
      </trkpt>
      <trkpt lat="43.73310000" lon="10.56638000">
        <ele>340.00000</ele>
        <time>2010-01-01T02:41:31Z</time>
      </trkpt>
      <trkpt lat="43.73288000" lon="10.56594000">
        <ele>334.00000</ele>
        <time>2010-01-01T02:41:47Z</time>
      </trkpt>
      <trkpt lat="43.73263000" lon="10.56475000">
        <ele>332.00000</ele>
        <time>2010-01-01T02:42:22Z</time>
      </trkpt>
      <trkpt lat="43.73243000" lon="10.56434000">
        <ele>329.00000</ele>
        <time>2010-01-01T02:42:37Z</time>
      </trkpt>
      <trkpt lat="43.73239000" lon="10.56381000">
        <ele>333.00000</ele>
        <time>2010-01-01T02:42:52Z</time>
      </trkpt>
      <trkpt lat="43.73235000" lon="10.56375000">
        <ele>333.00000</ele>
        <time>2010-01-01T02:42:54Z</time>
      </trkpt>
      <trkpt lat="43.73230000" lon="10.56373000">
        <ele>333.00000</ele>
        <time>2010-01-01T02:42:57Z</time>
      </trkpt>
      <trkpt lat="43.73223000" lon="10.56382000">
        <ele>329.00000</ele>
        <time>2010-01-01T02:43:00Z</time>
      </trkpt>
      <trkpt lat="43.73226000" lon="10.56416000">
        <ele>326.00000</ele>
        <time>2010-01-01T02:43:10Z</time>
      </trkpt>
      <trkpt lat="43.73238000" lon="10.56487000">
        <ele>322.00000</ele>
        <time>2010-01-01T02:43:31Z</time>
      </trkpt>
      <trkpt lat="43.73239000" lon="10.56565000">
        <ele>312.00000</ele>
        <time>2010-01-01T02:43:54Z</time>
      </trkpt>
      <trkpt lat="43.73246000" lon="10.56667000">
        <ele>308.00000</ele>
        <time>2010-01-01T02:44:24Z</time>
      </trkpt>
      <trkpt lat="43.73267000" lon="10.56760000">
        <ele>304.00000</ele>
        <time>2010-01-01T02:44:52Z</time>
      </trkpt>
      <trkpt lat="43.73283000" lon="10.56794000">
        <ele>303.00000</ele>
        <time>2010-01-01T02:45:03Z</time>
      </trkpt>
      <trkpt lat="43.73305000" lon="10.56856000">
        <ele>297.00000</ele>
        <time>2010-01-01T02:45:23Z</time>
      </trkpt>
      <trkpt lat="43.73320000" lon="10.56883000">
        <ele>298.00000</ele>
        <time>2010-01-01T02:45:33Z</time>
      </trkpt>
      <trkpt lat="43.73333000" lon="10.56896000">
        <ele>305.00000</ele>
        <time>2010-01-01T02:45:40Z</time>
      </trkpt>
      <trkpt lat="43.73343000" lon="10.56915000">
        <ele>307.00000</ele>
        <time>2010-01-01T02:45:47Z</time>
      </trkpt>
      <trkpt lat="43.73344000" lon="10.56951000">
        <ele>301.00000</ele>
        <time>2010-01-01T02:45:57Z</time>
      </trkpt>
      <trkpt lat="43.73349000" lon="10.57007000">
        <ele>292.00000</ele>
        <time>2010-01-01T02:46:13Z</time>
      </trkpt>
      <trkpt lat="43.73350710" lon="10.57100410">
        <ele>293.00000</ele>
        <time>2010-01-01T02:46:40Z</time>
      </trkpt>
      <trkpt lat="43.73334000" lon="10.57192000">
        <ele>272.00000</ele>
        <time>2010-01-01T02:47:08Z</time>
      </trkpt>
      <trkpt lat="43.73330000" lon="10.57267000">
        <ele>266.00000</ele>
        <time>2010-01-01T02:47:29Z</time>
      </trkpt>
      <trkpt lat="43.73334000" lon="10.57348000">
        <ele>260.00000</ele>
        <time>2010-01-01T02:47:53Z</time>
      </trkpt>
      <trkpt lat="43.73353000" lon="10.57461000">
        <ele>248.00000</ele>
        <time>2010-01-01T02:48:26Z</time>
      </trkpt>
      <trkpt lat="43.73364000" lon="10.57479000">
        <ele>245.00000</ele>
        <time>2010-01-01T02:48:33Z</time>
      </trkpt>
      <trkpt lat="43.73373000" lon="10.57481000">
        <ele>246.00000</ele>
        <time>2010-01-01T02:48:37Z</time>
      </trkpt>
      <trkpt lat="43.73419000" lon="10.57470000">
        <ele>247.00000</ele>
        <time>2010-01-01T02:48:56Z</time>
      </trkpt>
      <trkpt lat="43.73476000" lon="10.57440000">
        <ele>245.00000</ele>
        <time>2010-01-01T02:49:20Z</time>
      </trkpt>
      <trkpt lat="43.73494000" lon="10.57429000">
        <ele>248.00000</ele>
        <time>2010-01-01T02:49:28Z</time>
      </trkpt>
      <trkpt lat="43.73501000" lon="10.57428000">
        <ele>248.00000</ele>
        <time>2010-01-01T02:49:31Z</time>
      </trkpt>
      <trkpt lat="43.73504000" lon="10.57434000">
        <ele>246.00000</ele>
        <time>2010-01-01T02:49:33Z</time>
      </trkpt>
      <trkpt lat="43.73503000" lon="10.57441000">
        <ele>244.00000</ele>
        <time>2010-01-01T02:49:35Z</time>
      </trkpt>
      <trkpt lat="43.73500000" lon="10.57447000">
        <ele>242.00000</ele>
        <time>2010-01-01T02:49:37Z</time>
      </trkpt>
      <trkpt lat="43.73482000" lon="10.57458000">
        <ele>239.00000</ele>
        <time>2010-01-01T02:49:45Z</time>
      </trkpt>
      <trkpt lat="43.73398000" lon="10.57534000">
        <ele>226.00000</ele>
        <time>2010-01-01T02:50:25Z</time>
      </trkpt>
      <trkpt lat="43.73364000" lon="10.57550000">
        <ele>221.00000</ele>
        <time>2010-01-01T02:50:39Z</time>
      </trkpt>
      <trkpt lat="43.73337000" lon="10.57546000">
        <ele>219.00000</ele>
        <time>2010-01-01T02:50:50Z</time>
      </trkpt>
      <trkpt lat="43.73305000" lon="10.57528000">
        <ele>215.00000</ele>
        <time>2010-01-01T02:51:04Z</time>
      </trkpt>
      <trkpt lat="43.73277000" lon="10.57507000">
        <ele>209.00000</ele>
        <time>2010-01-01T02:51:17Z</time>
      </trkpt>
      <trkpt lat="43.73237000" lon="10.57462000">
        <ele>208.00000</ele>
        <time>2010-01-01T02:51:37Z</time>
      </trkpt>
      <trkpt lat="43.73187000" lon="10.57418000">
        <ele>200.00000</ele>
        <time>2010-01-01T02:52:01Z</time>
      </trkpt>
      <trkpt lat="43.73167000" lon="10.57384000">
        <ele>198.00000</ele>
        <time>2010-01-01T02:52:14Z</time>
      </trkpt>
      <trkpt lat="43.73162000" lon="10.57350000">
        <ele>200.00000</ele>
        <time>2010-01-01T02:52:24Z</time>
      </trkpt>
      <trkpt lat="43.73162000" lon="10.57305000">
        <ele>203.00000</ele>
        <time>2010-01-01T02:52:37Z</time>
      </trkpt>
      <trkpt lat="43.73156000" lon="10.57298000">
        <ele>204.00000</ele>
        <time>2010-01-01T02:52:40Z</time>
      </trkpt>
      <trkpt lat="43.73149000" lon="10.57304000">
        <ele>203.00000</ele>
        <time>2010-01-01T02:52:43Z</time>
      </trkpt>
      <trkpt lat="43.73141000" lon="10.57361000">
        <ele>196.00000</ele>
        <time>2010-01-01T02:53:00Z</time>
      </trkpt>
      <trkpt lat="43.73114000" lon="10.57437000">
        <ele>186.00000</ele>
        <time>2010-01-01T02:53:25Z</time>
      </trkpt>
      <trkpt lat="43.73105000" lon="10.57511000">
        <ele>177.00000</ele>
        <time>2010-01-01T02:53:46Z</time>
      </trkpt>
      <trkpt lat="43.73117000" lon="10.57572000">
        <ele>171.00000</ele>
        <time>2010-01-01T02:54:05Z</time>
      </trkpt>
      <trkpt lat="43.73115000" lon="10.57599000">
        <ele>170.00000</ele>
        <time>2010-01-01T02:54:13Z</time>
      </trkpt>
      <trkpt lat="43.73065000" lon="10.57721000">
        <ele>162.00000</ele>
        <time>2010-01-01T02:54:53Z</time>
      </trkpt>
      <trkpt lat="43.73041000" lon="10.57809000">
        <ele>154.00000</ele>
        <time>2010-01-01T02:55:20Z</time>
      </trkpt>
      <trkpt lat="43.73027000" lon="10.57833000">
        <ele>150.00000</ele>
        <time>2010-01-01T02:55:29Z</time>
      </trkpt>
      <trkpt lat="43.72937000" lon="10.57974000">
        <ele>141.00000</ele>
        <time>2010-01-01T02:56:24Z</time>
      </trkpt>
      <trkpt lat="43.72927000" lon="10.58004000">
        <ele>140.00000</ele>
        <time>2010-01-01T02:56:33Z</time>
      </trkpt>
      <trkpt lat="43.72908000" lon="10.58107000">
        <ele>135.00000</ele>
        <time>2010-01-01T02:57:04Z</time>
      </trkpt>
      <trkpt lat="43.72892000" lon="10.58162000">
        <ele>130.00000</ele>
        <time>2010-01-01T02:57:21Z</time>
      </trkpt>
      <trkpt lat="43.72864000" lon="10.58219000">
        <ele>125.00000</ele>
        <time>2010-01-01T02:57:41Z</time>
      </trkpt>
      <trkpt lat="43.72848000" lon="10.58240000">
        <ele>123.00000</ele>
        <time>2010-01-01T02:57:50Z</time>
      </trkpt>
      <trkpt lat="43.72825000" lon="10.58263000">
        <ele>120.00000</ele>
        <time>2010-01-01T02:58:01Z</time>
      </trkpt>
      <trkpt lat="43.72816000" lon="10.58280000">
        <ele>117.00000</ele>
        <time>2010-01-01T02:58:07Z</time>
      </trkpt>
      <trkpt lat="43.72815000" lon="10.58290000">
        <ele>115.00000</ele>
        <time>2010-01-01T02:58:10Z</time>
      </trkpt>
      <trkpt lat="43.72817000" lon="10.58302000">
        <ele>113.00000</ele>
        <time>2010-01-01T02:58:14Z</time>
      </trkpt>
      <trkpt lat="43.72826000" lon="10.58318000">
        <ele>111.00000</ele>
        <time>2010-01-01T02:58:20Z</time>
      </trkpt>
      <trkpt lat="43.72851000" lon="10.58329000">
        <ele>110.00000</ele>
        <time>2010-01-01T02:58:30Z</time>
      </trkpt>
      <trkpt lat="43.72889430" lon="10.58329930">
        <ele>111.00000</ele>
        <time>2010-01-01T02:58:46Z</time>
      </trkpt>
      <trkpt lat="43.72900000" lon="10.58354000">
        <ele>112.00000</ele>
        <time>2010-01-01T02:58:54Z</time>
      </trkpt>
      <trkpt lat="43.72900000" lon="10.58366000">
        <ele>113.00000</ele>
        <time>2010-01-01T02:58:57Z</time>
      </trkpt>
      <trkpt lat="43.72881000" lon="10.58423000">
        <ele>111.00000</ele>
        <time>2010-01-01T02:59:15Z</time>
      </trkpt>
      <trkpt lat="43.72874000" lon="10.58457000">
        <ele>110.00000</ele>
        <time>2010-01-01T02:59:26Z</time>
      </trkpt>
      <trkpt lat="43.72855000" lon="10.58617000">
        <ele>110.00000</ele>
        <time>2010-01-01T03:00:12Z</time>
      </trkpt>
      <trkpt lat="43.72859000" lon="10.58652000">
        <ele>111.00000</ele>
        <time>2010-01-01T03:00:23Z</time>
      </trkpt>
      <trkpt lat="43.72876000" lon="10.58705000">
        <ele>111.00000</ele>
        <time>2010-01-01T03:00:39Z</time>
      </trkpt>
      <trkpt lat="43.72878000" lon="10.58731000">
        <ele>109.00000</ele>
        <time>2010-01-01T03:00:47Z</time>
      </trkpt>
      <trkpt lat="43.72872000" lon="10.58778000">
        <ele>105.00000</ele>
        <time>2010-01-01T03:01:01Z</time>
      </trkpt>
      <trkpt lat="43.72850000" lon="10.58859000">
        <ele>102.00000</ele>
        <time>2010-01-01T03:01:26Z</time>
      </trkpt>
      <trkpt lat="43.72841000" lon="10.58871000">
        <ele>100.00000</ele>
        <time>2010-01-01T03:01:31Z</time>
      </trkpt>
      <trkpt lat="43.72784770" lon="10.58880320">
        <ele>91.000000</ele>
        <time>2010-01-01T03:01:54Z</time>
      </trkpt>
      <trkpt lat="43.72692510" lon="10.58918950">
        <ele>79.000000</ele>
        <time>2010-01-01T03:02:32Z</time>
      </trkpt>
      <trkpt lat="43.72680100" lon="10.58952210">
        <ele>78.000000</ele>
        <time>2010-01-01T03:02:43Z</time>
      </trkpt>
      <trkpt lat="43.72643660" lon="10.59038040">
        <ele>78.000000</ele>
        <time>2010-01-01T03:03:12Z</time>
      </trkpt>
      <trkpt lat="43.72645210" lon="10.59093830">
        <ele>74.000000</ele>
        <time>2010-01-01T03:03:28Z</time>
      </trkpt>
      <trkpt lat="43.72776240" lon="10.59273000">
        <ele>66.000000</ele>
        <time>2010-01-01T03:04:42Z</time>
      </trkpt>
      <trkpt lat="43.72794070" lon="10.59310550">
        <ele>65.000000</ele>
        <time>2010-01-01T03:04:55Z</time>
      </trkpt>
      <trkpt lat="43.72806480" lon="10.59468260">
        <ele>63.000000</ele>
        <time>2010-01-01T03:05:41Z</time>
      </trkpt>
      <trkpt lat="43.72769000" lon="10.59596000">
        <ele>57.000000</ele>
        <time>2010-01-01T03:06:20Z</time>
      </trkpt>
      <trkpt lat="43.72765000" lon="10.59638000">
        <ele>56.000000</ele>
        <time>2010-01-01T03:06:33Z</time>
      </trkpt>
      <trkpt lat="43.72765000" lon="10.59656000">
        <ele>56.000000</ele>
        <time>2010-01-01T03:06:38Z</time>
      </trkpt>
      <trkpt lat="43.72769000" lon="10.59692000">
        <ele>56.000000</ele>
        <time>2010-01-01T03:06:48Z</time>
      </trkpt>
      <trkpt lat="43.72865000" lon="10.60107000">
        <ele>53.000000</ele>
        <time>2010-01-01T03:08:54Z</time>
      </trkpt>
      <trkpt lat="43.72874000" lon="10.60156000">
        <ele>51.000000</ele>
        <time>2010-01-01T03:09:09Z</time>
      </trkpt>
      <trkpt lat="43.72883230" lon="10.60567970">
        <ele>40.000000</ele>
        <time>2010-01-01T03:11:08Z</time>
      </trkpt>
      <trkpt lat="43.72874000" lon="10.60675000">
        <ele>39.000000</ele>
        <time>2010-01-01T03:11:39Z</time>
      </trkpt>
      <trkpt lat="43.72846000" lon="10.60907000">
        <ele>35.000000</ele>
        <time>2010-01-01T03:12:48Z</time>
      </trkpt>
      <trkpt lat="43.72824000" lon="10.60991000">
        <ele>33.000000</ele>
        <time>2010-01-01T03:13:13Z</time>
      </trkpt>
      <trkpt lat="43.72743000" lon="10.61239000">
        <ele>24.000000</ele>
        <time>2010-01-01T03:14:32Z</time>
      </trkpt>
      <trkpt lat="43.72722000" lon="10.61319000">
        <ele>23.000000</ele>
        <time>2010-01-01T03:14:57Z</time>
      </trkpt>
      <trkpt lat="43.72714220" lon="10.61652660">
        <ele>20.000000</ele>
        <time>2010-01-01T03:16:33Z</time>
      </trkpt>
      <trkpt lat="43.72701810" lon="10.61708450">
        <ele>18.000000</ele>
        <time>2010-01-01T03:16:50Z</time>
      </trkpt>
      <trkpt lat="43.72547000" lon="10.61710000">
        <ele>20.000000</ele>
        <time>2010-01-01T03:17:52Z</time>
      </trkpt>
      <trkpt lat="43.72485000" lon="10.61705000">
        <ele>24.000000</ele>
        <time>2010-01-01T03:18:17Z</time>
      </trkpt>
      <trkpt lat="43.72458000" lon="10.61710000">
        <ele>25.000000</ele>
        <time>2010-01-01T03:18:28Z</time>
      </trkpt>
      <trkpt lat="43.72351000" lon="10.61750000">
        <ele>17.000000</ele>
        <time>2010-01-01T03:19:12Z</time>
      </trkpt>
      <trkpt lat="43.72327000" lon="10.61749000">
        <ele>16.000000</ele>
        <time>2010-01-01T03:19:22Z</time>
      </trkpt>
      <trkpt lat="43.72299000" lon="10.61735000">
        <ele>15.000000</ele>
        <time>2010-01-01T03:19:34Z</time>
      </trkpt>
      <trkpt lat="43.72259000" lon="10.61669000">
        <ele>14.000000</ele>
        <time>2010-01-01T03:19:59Z</time>
      </trkpt>
      <trkpt lat="43.72250000" lon="10.61665000">
        <ele>14.000000</ele>
        <time>2010-01-01T03:20:03Z</time>
      </trkpt>
      <trkpt lat="43.71967000" lon="10.61775000">
        <ele>10.000000</ele>
        <time>2010-01-01T03:22:00Z</time>
      </trkpt>
      <trkpt lat="43.71861000" lon="10.61815000">
        <ele>11.000000</ele>
        <time>2010-01-01T03:22:44Z</time>
      </trkpt>
      <trkpt lat="43.71789000" lon="10.61839000">
        <ele>13.000000</ele>
        <time>2010-01-01T03:23:14Z</time>
      </trkpt>
      <trkpt lat="43.71546000" lon="10.61877000">
        <ele>11.000000</ele>
        <time>2010-01-01T03:24:52Z</time>
      </trkpt>
      <trkpt lat="43.71417000" lon="10.61895000">
        <ele>12.000000</ele>
        <time>2010-01-01T03:25:44Z</time>
      </trkpt>
      <trkpt lat="43.71205000" lon="10.61927000">
        <ele>14.000000</ele>
        <time>2010-01-01T03:27:09Z</time>
      </trkpt>
      <trkpt lat="43.71115000" lon="10.61939000">
        <ele>14.000000</ele>
        <time>2010-01-01T03:27:45Z</time>
      </trkpt>
      <trkpt lat="43.71040090" lon="10.61901560">
        <ele>13.000000</ele>
        <time>2010-01-01T03:28:17Z</time>
      </trkpt>
      <trkpt lat="43.70980380" lon="10.61933750">
        <ele>14.000000</ele>
        <time>2010-01-01T03:28:43Z</time>
      </trkpt>
      <trkpt lat="43.70954780" lon="10.61969160">
        <ele>14.000000</ele>
        <time>2010-01-01T03:28:57Z</time>
      </trkpt>
      <trkpt lat="43.70950910" lon="10.62036750">
        <ele>13.000000</ele>
        <time>2010-01-01T03:29:17Z</time>
      </trkpt>
      <trkpt lat="43.70960990" lon="10.62126870">
        <ele>14.000000</ele>
        <time>2010-01-01T03:29:43Z</time>
      </trkpt>
      <trkpt lat="43.70967970" lon="10.62145110">
        <ele>13.000000</ele>
        <time>2010-01-01T03:29:49Z</time>
      </trkpt>
      <trkpt lat="43.70957890" lon="10.62214850">
        <ele>12.000000</ele>
        <time>2010-01-01T03:30:10Z</time>
      </trkpt>
      <trkpt lat="43.71015280" lon="10.62229870">
        <ele>12.000000</ele>
        <time>2010-01-01T03:30:33Z</time>
      </trkpt>
      <trkpt lat="43.70962000" lon="10.62536000">
        <ele>12.000000</ele>
        <time>2010-01-01T03:32:04Z</time>
      </trkpt>
      <trkpt lat="43.70845000" lon="10.63146000">
        <ele>12.000000</ele>
        <time>2010-01-01T03:35:07Z</time>
      </trkpt>
      <trkpt lat="43.70718000" lon="10.63840000">
        <ele>9.0000000</ele>
        <time>2010-01-01T03:38:34Z</time>
      </trkpt>
      <trkpt lat="43.70674000" lon="10.64060000">
        <ele>7.0000000</ele>
        <time>2010-01-01T03:39:40Z</time>
      </trkpt>
      <trkpt lat="43.70545000" lon="10.64391000">
        <ele>27.000000</ele>
        <time>2010-01-01T03:41:29Z</time>
      </trkpt>
      <trkpt lat="43.70540000" lon="10.64474000">
        <ele>30.000000</ele>
        <time>2010-01-01T03:41:53Z</time>
      </trkpt>
      <trkpt lat="43.70625000" lon="10.64882000">
        <ele>44.000000</ele>
        <time>2010-01-01T03:43:56Z</time>
      </trkpt>
      <trkpt lat="43.70673000" lon="10.64997000">
        <ele>43.000000</ele>
        <time>2010-01-01T03:44:34Z</time>
      </trkpt>
      <trkpt lat="43.70728000" lon="10.65079000">
        <ele>45.000000</ele>
        <time>2010-01-01T03:45:07Z</time>
      </trkpt>
      <trkpt lat="43.70757000" lon="10.65140000">
        <ele>49.000000</ele>
        <time>2010-01-01T03:45:28Z</time>
      </trkpt>
      <trkpt lat="43.70832000" lon="10.65550000">
        <ele>54.000000</ele>
        <time>2010-01-01T03:47:30Z</time>
      </trkpt>
      <trkpt lat="43.70895000" lon="10.65827000">
        <ele>58.000000</ele>
        <time>2010-01-01T03:48:54Z</time>
      </trkpt>
      <trkpt lat="43.70905000" lon="10.65896000">
        <ele>56.000000</ele>
        <time>2010-01-01T03:49:15Z</time>
      </trkpt>
      <trkpt lat="43.70886150" lon="10.65908780">
        <ele>56.000000</ele>
        <time>2010-01-01T03:49:23Z</time>
      </trkpt>
      <trkpt lat="43.70878390" lon="10.65928630">
        <ele>55.000000</ele>
        <time>2010-01-01T03:49:29Z</time>
      </trkpt>
      <trkpt lat="43.70885760" lon="10.65950630">
        <ele>55.000000</ele>
        <time>2010-01-01T03:49:36Z</time>
      </trkpt>
      <trkpt lat="43.70911740" lon="10.65954920">
        <ele>55.000000</ele>
        <time>2010-01-01T03:49:47Z</time>
      </trkpt>
      <trkpt lat="43.70935000" lon="10.66079000">
        <ele>54.000000</ele>
        <time>2010-01-01T03:50:24Z</time>
      </trkpt>
      <trkpt lat="43.70945000" lon="10.66164000">
        <ele>52.000000</ele>
        <time>2010-01-01T03:50:49Z</time>
      </trkpt>
      <trkpt lat="43.70941000" lon="10.66246000">
        <ele>55.000000</ele>
        <time>2010-01-01T03:51:13Z</time>
      </trkpt>
      <trkpt lat="43.70851000" lon="10.66496000">
        <ele>59.000000</ele>
        <time>2010-01-01T03:52:34Z</time>
      </trkpt>
      <trkpt lat="43.70800000" lon="10.66628000">
        <ele>60.000000</ele>
        <time>2010-01-01T03:53:17Z</time>
      </trkpt>
      <trkpt lat="43.70677000" lon="10.66918000">
        <ele>67.000000</ele>
        <time>2010-01-01T03:54:54Z</time>
      </trkpt>
      <trkpt lat="43.70653000" lon="10.66962000">
        <ele>69.000000</ele>
        <time>2010-01-01T03:55:10Z</time>
      </trkpt>
      <trkpt lat="43.70606000" lon="10.67020000">
        <ele>74.000000</ele>
        <time>2010-01-01T03:55:35Z</time>
      </trkpt>
      <trkpt lat="43.70454000" lon="10.67175000">
        <ele>78.000000</ele>
        <time>2010-01-01T03:56:51Z</time>
      </trkpt>
      <trkpt lat="43.70370000" lon="10.67264000">
        <ele>80.000000</ele>
        <time>2010-01-01T03:57:33Z</time>
      </trkpt>
      <trkpt lat="43.70342000" lon="10.67309000">
        <ele>81.000000</ele>
        <time>2010-01-01T03:57:50Z</time>
      </trkpt>
      <trkpt lat="43.70323000" lon="10.67353000">
        <ele>80.000000</ele>
        <time>2010-01-01T03:58:05Z</time>
      </trkpt>
      <trkpt lat="43.70303000" lon="10.67421000">
        <ele>80.000000</ele>
        <time>2010-01-01T03:58:27Z</time>
      </trkpt>
      <trkpt lat="43.70260000" lon="10.67688000">
        <ele>92.000000</ele>
        <time>2010-01-01T03:59:46Z</time>
      </trkpt>
      <trkpt lat="43.70258000" lon="10.67731000">
        <ele>93.000000</ele>
        <time>2010-01-01T03:59:58Z</time>
      </trkpt>
      <trkpt lat="43.70285000" lon="10.68032000">
        <ele>98.000000</ele>
        <time>2010-01-01T04:01:26Z</time>
      </trkpt>
      <trkpt lat="43.70304000" lon="10.68174000">
        <ele>100.00000</ele>
        <time>2010-01-01T04:02:08Z</time>
      </trkpt>
      <trkpt lat="43.70307000" lon="10.68215000">
        <ele>100.00000</ele>
        <time>2010-01-01T04:02:20Z</time>
      </trkpt>
      <trkpt lat="43.70312000" lon="10.68350000">
        <ele>101.00000</ele>
        <time>2010-01-01T04:02:59Z</time>
      </trkpt>
      <trkpt lat="43.70337000" lon="10.68433000">
        <ele>101.00000</ele>
        <time>2010-01-01T04:03:25Z</time>
      </trkpt>
      <trkpt lat="43.70347000" lon="10.68468000">
        <ele>101.00000</ele>
        <time>2010-01-01T04:03:36Z</time>
      </trkpt>
      <trkpt lat="43.70355000" lon="10.68551000">
        <ele>101.00000</ele>
        <time>2010-01-01T04:04:00Z</time>
      </trkpt>
      <trkpt lat="43.70354000" lon="10.68603000">
        <ele>104.00000</ele>
        <time>2010-01-01T04:04:15Z</time>
      </trkpt>
      <trkpt lat="43.70334000" lon="10.68692000">
        <ele>104.00000</ele>
        <time>2010-01-01T04:04:42Z</time>
      </trkpt>
      <trkpt lat="43.70303000" lon="10.68733000">
        <ele>101.00000</ele>
        <time>2010-01-01T04:04:59Z</time>
      </trkpt>
      <trkpt lat="43.70280000" lon="10.68750000">
        <ele>100.00000</ele>
        <time>2010-01-01T04:05:10Z</time>
      </trkpt>
      <trkpt lat="43.70182000" lon="10.68809000">
        <ele>97.000000</ele>
        <time>2010-01-01T04:05:52Z</time>
      </trkpt>
      <trkpt lat="43.70119000" lon="10.68876000">
        <ele>89.000000</ele>
        <time>2010-01-01T04:06:24Z</time>
      </trkpt>
      <trkpt lat="43.70099000" lon="10.68922000">
        <ele>89.000000</ele>
        <time>2010-01-01T04:06:40Z</time>
      </trkpt>
      <trkpt lat="43.70096000" lon="10.68955000">
        <ele>85.000000</ele>
        <time>2010-01-01T04:06:49Z</time>
      </trkpt>
      <trkpt lat="43.70100000" lon="10.68999000">
        <ele>79.000000</ele>
        <time>2010-01-01T04:07:02Z</time>
      </trkpt>
      <trkpt lat="43.70106000" lon="10.69038000">
        <ele>77.000000</ele>
        <time>2010-01-01T04:07:14Z</time>
      </trkpt>
      <trkpt lat="43.70104000" lon="10.69057000">
        <ele>77.000000</ele>
        <time>2010-01-01T04:07:19Z</time>
      </trkpt>
      <trkpt lat="43.70096000" lon="10.69073000">
        <ele>75.000000</ele>
        <time>2010-01-01T04:07:25Z</time>
      </trkpt>
      <trkpt lat="43.70084000" lon="10.69078000">
        <ele>75.000000</ele>
        <time>2010-01-01T04:07:30Z</time>
      </trkpt>
      <trkpt lat="43.69988000" lon="10.69068000">
        <ele>69.000000</ele>
        <time>2010-01-01T04:08:08Z</time>
      </trkpt>
      <trkpt lat="43.69969000" lon="10.69070000">
        <ele>70.000000</ele>
        <time>2010-01-01T04:08:16Z</time>
      </trkpt>
      <trkpt lat="43.69952000" lon="10.69085000">
        <ele>70.000000</ele>
        <time>2010-01-01T04:08:24Z</time>
      </trkpt>
      <trkpt lat="43.69941000" lon="10.69116000">
        <ele>70.000000</ele>
        <time>2010-01-01T04:08:34Z</time>
      </trkpt>
      <trkpt lat="43.69943000" lon="10.69140000">
        <ele>70.000000</ele>
        <time>2010-01-01T04:08:41Z</time>
      </trkpt>
      <trkpt lat="43.69955000" lon="10.69174000">
        <ele>65.000000</ele>
        <time>2010-01-01T04:08:52Z</time>
      </trkpt>
      <trkpt lat="43.69970000" lon="10.69224000">
        <ele>56.000000</ele>
        <time>2010-01-01T04:09:08Z</time>
      </trkpt>
      <trkpt lat="43.69967000" lon="10.69252000">
        <ele>56.000000</ele>
        <time>2010-01-01T04:09:16Z</time>
      </trkpt>
      <trkpt lat="43.69945000" lon="10.69306000">
        <ele>52.000000</ele>
        <time>2010-01-01T04:09:34Z</time>
      </trkpt>
      <trkpt lat="43.69910000" lon="10.69473000">
        <ele>42.000000</ele>
        <time>2010-01-01T04:10:24Z</time>
      </trkpt>
      <trkpt lat="43.69897000" lon="10.69497000">
        <ele>38.000000</ele>
        <time>2010-01-01T04:10:33Z</time>
      </trkpt>
      <trkpt lat="43.69876000" lon="10.69506000">
        <ele>36.000000</ele>
        <time>2010-01-01T04:10:42Z</time>
      </trkpt>
      <trkpt lat="43.69823000" lon="10.69513000">
        <ele>26.000000</ele>
        <time>2010-01-01T04:11:03Z</time>
      </trkpt>
      <trkpt lat="43.69793000" lon="10.69528000">
        <ele>24.000000</ele>
        <time>2010-01-01T04:11:16Z</time>
      </trkpt>
      <trkpt lat="43.69698000" lon="10.69611000">
        <ele>17.000000</ele>
        <time>2010-01-01T04:12:01Z</time>
      </trkpt>
      <trkpt lat="43.69840620" lon="10.69611840">
        <ele>18.000000</ele>
        <time>2010-01-01T04:12:58Z</time>
      </trkpt>
      <trkpt lat="43.69908490" lon="10.69694990">
        <ele>19.000000</ele>
        <time>2010-01-01T04:13:34Z</time>
      </trkpt>
      <trkpt lat="43.70048890" lon="10.69834470">
        <ele>23.000000</ele>
        <time>2010-01-01T04:14:43Z</time>
      </trkpt>
      <trkpt lat="43.70118700" lon="10.69980380">
        <ele>21.000000</ele>
        <time>2010-01-01T04:15:34Z</time>
      </trkpt>
      <trkpt lat="43.70190060" lon="10.70085520">
        <ele>18.000000</ele>
        <time>2010-01-01T04:16:16Z</time>
      </trkpt>
      <trkpt lat="43.70254430" lon="10.70125220">
        <ele>17.000000</ele>
        <time>2010-01-01T04:16:44Z</time>
      </trkpt>
      <trkpt lat="43.70311050" lon="10.70197640">
        <ele>21.000000</ele>
        <time>2010-01-01T04:17:15Z</time>
      </trkpt>
      <trkpt lat="43.70366900" lon="10.70315120">
        <ele>18.000000</ele>
        <time>2010-01-01T04:17:55Z</time>
      </trkpt>
      <trkpt lat="43.70413440" lon="10.70389150">
        <ele>16.000000</ele>
        <time>2010-01-01T04:18:24Z</time>
      </trkpt>
      <trkpt lat="43.70461520" lon="10.70435280">
        <ele>20.000000</ele>
        <time>2010-01-01T04:18:47Z</time>
      </trkpt>
      <trkpt lat="43.70620130" lon="10.70542030">
        <ele>17.000000</ele>
        <time>2010-01-01T04:19:58Z</time>
      </trkpt>
      <trkpt lat="43.70654260" lon="10.70580120">
        <ele>22.000000</ele>
        <time>2010-01-01T04:20:15Z</time>
      </trkpt>
      <trkpt lat="43.70712810" lon="10.70676140">
        <ele>22.000000</ele>
        <time>2010-01-01T04:20:52Z</time>
      </trkpt>
      <trkpt lat="43.70730260" lon="10.70692770">
        <ele>21.000000</ele>
        <time>2010-01-01T04:21:00Z</time>
      </trkpt>
      <trkpt lat="43.70750040" lon="10.70701360">
        <ele>21.000000</ele>
        <time>2010-01-01T04:21:09Z</time>
      </trkpt>
      <trkpt lat="43.70802000" lon="10.70707790">
        <ele>21.000000</ele>
        <time>2010-01-01T04:21:29Z</time>
      </trkpt>
      <trkpt lat="43.70995890" lon="10.70815080">
        <ele>21.000000</ele>
        <time>2010-01-01T04:22:53Z</time>
      </trkpt>
      <trkpt lat="43.71278170" lon="10.71092420">
        <ele>27.000000</ele>
        <time>2010-01-01T04:25:12Z</time>
      </trkpt>
      <trkpt lat="43.71371230" lon="10.71209900">
        <ele>24.000000</ele>
        <time>2010-01-01T04:26:02Z</time>
      </trkpt>
      <trkpt lat="43.71447230" lon="10.71336500">
        <ele>23.000000</ele>
        <time>2010-01-01T04:26:50Z</time>
      </trkpt>
      <trkpt lat="43.71511980" lon="10.71400880">
        <ele>21.000000</ele>
        <time>2010-01-01T04:27:22Z</time>
      </trkpt>
      <trkpt lat="43.71625200" lon="10.71497970">
        <ele>24.000000</ele>
        <time>2010-01-01T04:28:15Z</time>
      </trkpt>
      <trkpt lat="43.71818670" lon="10.71815550">
        <ele>19.000000</ele>
        <time>2010-01-01T04:30:15Z</time>
      </trkpt>
      <trkpt lat="43.71838050" lon="10.71869730">
        <ele>17.000000</ele>
        <time>2010-01-01T04:30:33Z</time>
      </trkpt>
      <trkpt lat="43.71900090" lon="10.72015640">
        <ele>17.000000</ele>
        <time>2010-01-01T04:31:22Z</time>
      </trkpt>
      <trkpt lat="43.71966000" lon="10.72136870">
        <ele>16.000000</ele>
        <time>2010-01-01T04:32:05Z</time>
      </trkpt>
      <trkpt lat="43.72119530" lon="10.72353600">
        <ele>20.000000</ele>
        <time>2010-01-01T04:33:33Z</time>
      </trkpt>
      <trkpt lat="43.72128440" lon="10.72384170">
        <ele>20.000000</ele>
        <time>2010-01-01T04:33:43Z</time>
      </trkpt>
      <trkpt lat="43.72161010" lon="10.72452840">
        <ele>22.000000</ele>
        <time>2010-01-01T04:34:07Z</time>
      </trkpt>
      <trkpt lat="43.72237000" lon="10.72564420">
        <ele>26.000000</ele>
        <time>2010-01-01T04:34:51Z</time>
      </trkpt>
      <trkpt lat="43.72269950" lon="10.72644880">
        <ele>23.000000</ele>
        <time>2010-01-01T04:35:18Z</time>
      </trkpt>
      <trkpt lat="43.72301740" lon="10.72697460">
        <ele>23.000000</ele>
        <time>2010-01-01T04:35:37Z</time>
      </trkpt>
      <trkpt lat="43.72350200" lon="10.72879850">
        <ele>21.000000</ele>
        <time>2010-01-01T04:36:34Z</time>
      </trkpt>
      <trkpt lat="43.72366870" lon="10.73004840">
        <ele>19.000000</ele>
        <time>2010-01-01T04:37:10Z</time>
      </trkpt>
      <trkpt lat="43.72370750" lon="10.73061700">
        <ele>17.000000</ele>
        <time>2010-01-01T04:37:27Z</time>
      </trkpt>
      <trkpt lat="43.72366090" lon="10.73222630">
        <ele>20.000000</ele>
        <time>2010-01-01T04:38:14Z</time>
      </trkpt>
      <trkpt lat="43.72376170" lon="10.73377130">
        <ele>21.000000</ele>
        <time>2010-01-01T04:38:58Z</time>
      </trkpt>
      <trkpt lat="43.72451770" lon="10.73646960">
        <ele>22.000000</ele>
        <time>2010-01-01T04:40:22Z</time>
      </trkpt>
      <trkpt lat="43.72482400" lon="10.73714010">
        <ele>21.000000</ele>
        <time>2010-01-01T04:40:45Z</time>
      </trkpt>
      <trkpt lat="43.72495580" lon="10.73769270">
        <ele>20.000000</ele>
        <time>2010-01-01T04:41:02Z</time>
      </trkpt>
      <trkpt lat="43.72562640" lon="10.73880850">
        <ele>18.000000</ele>
        <time>2010-01-01T04:41:44Z</time>
      </trkpt>
      <trkpt lat="43.72591720" lon="10.73911420">
        <ele>19.000000</ele>
        <time>2010-01-01T04:41:59Z</time>
      </trkpt>
      <trkpt lat="43.72634360" lon="10.73975800">
        <ele>20.000000</ele>
        <time>2010-01-01T04:42:24Z</time>
      </trkpt>
      <trkpt lat="43.72749110" lon="10.74211830">
        <ele>16.000000</ele>
        <time>2010-01-01T04:43:46Z</time>
      </trkpt>
      <trkpt lat="43.72793690" lon="10.74337890">
        <ele>16.000000</ele>
        <time>2010-01-01T04:44:27Z</time>
      </trkpt>
      <trkpt lat="43.72828960" lon="10.74400120">
        <ele>18.000000</ele>
        <time>2010-01-01T04:44:50Z</time>
      </trkpt>
      <trkpt lat="43.72855320" lon="10.74488100">
        <ele>20.000000</ele>
        <time>2010-01-01T04:45:17Z</time>
      </trkpt>
      <trkpt lat="43.72899120" lon="10.74579290">
        <ele>16.000000</ele>
        <time>2010-01-01T04:45:49Z</time>
      </trkpt>
      <trkpt lat="43.72916180" lon="10.74644740">
        <ele>15.000000</ele>
        <time>2010-01-01T04:46:09Z</time>
      </trkpt>
      <trkpt lat="43.72943320" lon="10.74689800">
        <ele>17.000000</ele>
        <time>2010-01-01T04:46:26Z</time>
      </trkpt>
      <trkpt lat="43.72976650" lon="10.74728960">
        <ele>17.000000</ele>
        <time>2010-01-01T04:46:43Z</time>
      </trkpt>
      <trkpt lat="43.73019290" lon="10.74746660">
        <ele>16.000000</ele>
        <time>2010-01-01T04:47:01Z</time>
      </trkpt>
      <trkpt lat="43.73087900" lon="10.74757930">
        <ele>20.000000</ele>
        <time>2010-01-01T04:47:29Z</time>
      </trkpt>
      <trkpt lat="43.73211940" lon="10.74880240">
        <ele>14.000000</ele>
        <time>2010-01-01T04:48:30Z</time>
      </trkpt>
      <trkpt lat="43.73244500" lon="10.74933350">
        <ele>16.000000</ele>
        <time>2010-01-01T04:48:50Z</time>
      </trkpt>
      <trkpt lat="43.73337140" lon="10.75047070">
        <ele>21.000000</ele>
        <time>2010-01-01T04:49:40Z</time>
      </trkpt>
      <trkpt lat="43.73357690" lon="10.75121640">
        <ele>22.000000</ele>
        <time>2010-01-01T04:50:03Z</time>
      </trkpt>
      <trkpt lat="43.73375520" lon="10.75240190">
        <ele>20.000000</ele>
        <time>2010-01-01T04:50:38Z</time>
      </trkpt>
      <trkpt lat="43.73377840" lon="10.75318510">
        <ele>16.000000</ele>
        <time>2010-01-01T04:51:00Z</time>
      </trkpt>
      <trkpt lat="43.73391020" lon="10.75387710">
        <ele>18.000000</ele>
        <time>2010-01-01T04:51:21Z</time>
      </trkpt>
      <trkpt lat="43.73392570" lon="10.75428480">
        <ele>16.000000</ele>
        <time>2010-01-01T04:51:33Z</time>
      </trkpt>
      <trkpt lat="43.73437540" lon="10.75524500">
        <ele>22.000000</ele>
        <time>2010-01-01T04:52:06Z</time>
      </trkpt>
      <trkpt lat="43.73622030" lon="10.75806140">
        <ele>18.000000</ele>
        <time>2010-01-01T04:53:56Z</time>
      </trkpt>
      <trkpt lat="43.73677850" lon="10.75875870">
        <ele>18.000000</ele>
        <time>2010-01-01T04:54:26Z</time>
      </trkpt>
      <trkpt lat="43.73710020" lon="10.75925760">
        <ele>18.000000</ele>
        <time>2010-01-01T04:54:45Z</time>
      </trkpt>
      <trkpt lat="43.73728620" lon="10.75945070">
        <ele>18.000000</ele>
        <time>2010-01-01T04:54:55Z</time>
      </trkpt>
      <trkpt lat="43.73757300" lon="10.75962240">
        <ele>18.000000</ele>
        <time>2010-01-01T04:55:07Z</time>
      </trkpt>
      <trkpt lat="43.73810790" lon="10.76035200">
        <ele>21.000000</ele>
        <time>2010-01-01T04:55:37Z</time>
      </trkpt>
      <trkpt lat="43.73860010" lon="10.76079720">
        <ele>21.000000</ele>
        <time>2010-01-01T04:56:01Z</time>
      </trkpt>
      <trkpt lat="43.73882880" lon="10.76108150">
        <ele>19.000000</ele>
        <time>2010-01-01T04:56:13Z</time>
      </trkpt>
      <trkpt lat="43.73905360" lon="10.76154290">
        <ele>19.000000</ele>
        <time>2010-01-01T04:56:29Z</time>
      </trkpt>
      <trkpt lat="43.73917370" lon="10.76215980">
        <ele>21.000000</ele>
        <time>2010-01-01T04:56:48Z</time>
      </trkpt>
      <trkpt lat="43.73934820" lon="10.76271230">
        <ele>22.000000</ele>
        <time>2010-01-01T04:57:05Z</time>
      </trkpt>
      <trkpt lat="43.73960400" lon="10.76325950">
        <ele>21.000000</ele>
        <time>2010-01-01T04:57:24Z</time>
      </trkpt>
      <trkpt lat="43.73977450" lon="10.76376910">
        <ele>19.000000</ele>
        <time>2010-01-01T04:57:40Z</time>
      </trkpt>
      <trkpt lat="43.73991790" lon="10.76440210">
        <ele>18.000000</ele>
        <time>2010-01-01T04:57:59Z</time>
      </trkpt>
      <trkpt lat="43.74007680" lon="10.76482050">
        <ele>17.000000</ele>
        <time>2010-01-01T04:58:13Z</time>
      </trkpt>
      <trkpt lat="43.74070470" lon="10.76593100">
        <ele>17.000000</ele>
        <time>2010-01-01T04:58:54Z</time>
      </trkpt>
      <trkpt lat="43.74065040" lon="10.76632260">
        <ele>17.000000</ele>
        <time>2010-01-01T04:59:05Z</time>
      </trkpt>
      <trkpt lat="43.74077830" lon="10.76649960">
        <ele>17.000000</ele>
        <time>2010-01-01T04:59:13Z</time>
      </trkpt>
      <trkpt lat="43.74095660" lon="10.76645130">
        <ele>18.000000</ele>
        <time>2010-01-01T04:59:20Z</time>
      </trkpt>
      <trkpt lat="43.74184800" lon="10.76776020">
        <ele>22.000000</ele>
        <time>2010-01-01T05:00:12Z</time>
      </trkpt>
      <trkpt lat="43.74247580" lon="10.76851120">
        <ele>23.000000</ele>
        <time>2010-01-01T05:00:45Z</time>
      </trkpt>
      <trkpt lat="43.74297960" lon="10.76895110">
        <ele>22.000000</ele>
        <time>2010-01-01T05:01:09Z</time>
      </trkpt>
      <trkpt lat="43.74337490" lon="10.76913350">
        <ele>20.000000</ele>
        <time>2010-01-01T05:01:26Z</time>
      </trkpt>
      <trkpt lat="43.74384000" lon="10.76922470">
        <ele>21.000000</ele>
        <time>2010-01-01T05:01:44Z</time>
      </trkpt>
      <trkpt lat="43.74423530" lon="10.76939100">
        <ele>20.000000</ele>
        <time>2010-01-01T05:02:01Z</time>
      </trkpt>
      <trkpt lat="43.74440970" lon="10.76954660">
        <ele>19.000000</ele>
        <time>2010-01-01T05:02:09Z</time>
      </trkpt>
      <trkpt lat="43.74249910" lon="10.77497000">
        <ele>17.000000</ele>
        <time>2010-01-01T05:05:04Z</time>
      </trkpt>
      <trkpt lat="43.74052640" lon="10.78043100">
        <ele>18.000000</ele>
        <time>2010-01-01T05:08:00Z</time>
      </trkpt>
      <trkpt lat="43.74033650" lon="10.78076890">
        <ele>17.000000</ele>
        <time>2010-01-01T05:08:13Z</time>
      </trkpt>
      <trkpt lat="43.74004580" lon="10.78087620">
        <ele>16.000000</ele>
        <time>2010-01-01T05:08:25Z</time>
      </trkpt>
      <trkpt lat="43.73995660" lon="10.78110150">
        <ele>15.000000</ele>
        <time>2010-01-01T05:08:32Z</time>
      </trkpt>
      <trkpt lat="43.74000700" lon="10.78158430">
        <ele>17.000000</ele>
        <time>2010-01-01T05:08:46Z</time>
      </trkpt>
      <trkpt lat="43.73981710" lon="10.78245870">
        <ele>19.000000</ele>
        <time>2010-01-01T05:09:13Z</time>
      </trkpt>
      <trkpt lat="43.73499550" lon="10.79595560">
        <ele>16.000000</ele>
        <time>2010-01-01T05:16:28Z</time>
      </trkpt>
      <trkpt lat="43.73484820" lon="10.79611650">
        <ele>18.000000</ele>
        <time>2010-01-01T05:16:36Z</time>
      </trkpt>
      <trkpt lat="43.73489470" lon="10.79635260">
        <ele>19.000000</ele>
        <time>2010-01-01T05:16:43Z</time>
      </trkpt>
      <trkpt lat="43.73508860" lon="10.79653500">
        <ele>19.000000</ele>
        <time>2010-01-01T05:16:52Z</time>
      </trkpt>
      <trkpt lat="43.73668550" lon="10.79910990">
        <ele>15.000000</ele>
        <time>2010-01-01T05:18:30Z</time>
      </trkpt>
      <trkpt lat="43.73692580" lon="10.79972140">
        <ele>15.000000</ele>
        <time>2010-01-01T05:18:50Z</time>
      </trkpt>
      <trkpt lat="43.73708080" lon="10.80034370">
        <ele>15.000000</ele>
        <time>2010-01-01T05:19:09Z</time>
      </trkpt>
      <trkpt lat="43.73715000" lon="10.80103000">
        <ele>17.000000</ele>
        <time>2010-01-01T05:19:30Z</time>
      </trkpt>
      <trkpt lat="43.73702650" lon="10.80153460">
        <ele>17.000000</ele>
        <time>2010-01-01T05:19:45Z</time>
      </trkpt>
      <trkpt lat="43.73705750" lon="10.80183500">
        <ele>16.000000</ele>
        <time>2010-01-01T05:19:54Z</time>
      </trkpt>
      <trkpt lat="43.73719000" lon="10.80209000">
        <ele>16.000000</ele>
        <time>2010-01-01T05:20:03Z</time>
      </trkpt>
      <trkpt lat="43.73720000" lon="10.80352000">
        <ele>17.000000</ele>
        <time>2010-01-01T05:20:44Z</time>
      </trkpt>
      <trkpt lat="43.73706000" lon="10.80424000">
        <ele>17.000000</ele>
        <time>2010-01-01T05:21:06Z</time>
      </trkpt>
      <trkpt lat="43.73663000" lon="10.80526000">
        <ele>17.000000</ele>
        <time>2010-01-01T05:21:40Z</time>
      </trkpt>
      <trkpt lat="43.73543000" lon="10.80729000">
        <ele>23.000000</ele>
        <time>2010-01-01T05:22:56Z</time>
      </trkpt>
      <trkpt lat="43.73522420" lon="10.80761790">
        <ele>21.000000</ele>
        <time>2010-01-01T05:23:08Z</time>
      </trkpt>
      <trkpt lat="43.73493350" lon="10.80770370">
        <ele>21.000000</ele>
        <time>2010-01-01T05:23:20Z</time>
      </trkpt>
      <trkpt lat="43.73482890" lon="10.80802550">
        <ele>21.000000</ele>
        <time>2010-01-01T05:23:30Z</time>
      </trkpt>
      <trkpt lat="43.73495290" lon="10.80826160">
        <ele>21.000000</ele>
        <time>2010-01-01T05:23:39Z</time>
      </trkpt>
      <trkpt lat="43.73536000" lon="10.80834000">
        <ele>22.000000</ele>
        <time>2010-01-01T05:23:55Z</time>
      </trkpt>
      <trkpt lat="43.73922030" lon="10.81326120">
        <ele>18.000000</ele>
        <time>2010-01-01T05:27:25Z</time>
      </trkpt>
      <trkpt lat="43.74286340" lon="10.81793900">
        <ele>19.000000</ele>
        <time>2010-01-01T05:30:44Z</time>
      </trkpt>
      <trkpt lat="43.74353000" lon="10.81848000">
        <ele>21.000000</ele>
        <time>2010-01-01T05:31:15Z</time>
      </trkpt>
      <trkpt lat="43.74454000" lon="10.81895000">
        <ele>22.000000</ele>
        <time>2010-01-01T05:31:58Z</time>
      </trkpt>
      <trkpt lat="43.74680000" lon="10.81962000">
        <ele>19.000000</ele>
        <time>2010-01-01T05:33:30Z</time>
      </trkpt>
      <trkpt lat="43.75193000" lon="10.82122000">
        <ele>20.000000</ele>
        <time>2010-01-01T05:37:01Z</time>
      </trkpt>
      <trkpt lat="43.75182000" lon="10.82171000">
        <ele>21.000000</ele>
        <time>2010-01-01T05:37:16Z</time>
      </trkpt>
      <trkpt lat="43.75160000" lon="10.82239000">
        <ele>26.000000</ele>
        <time>2010-01-01T05:37:37Z</time>
      </trkpt>
      <trkpt lat="43.75162000" lon="10.82255000">
        <ele>28.000000</ele>
        <time>2010-01-01T05:37:42Z</time>
      </trkpt>
      <trkpt lat="43.75258000" lon="10.82298000">
        <ele>33.000000</ele>
        <time>2010-01-01T05:38:22Z</time>
      </trkpt>
      <trkpt lat="43.75278000" lon="10.82314000">
        <ele>33.000000</ele>
        <time>2010-01-01T05:38:32Z</time>
      </trkpt>
      <trkpt lat="43.75304000" lon="10.82354000">
        <ele>35.000000</ele>
        <time>2010-01-01T05:38:47Z</time>
      </trkpt>
      <trkpt lat="43.75325000" lon="10.82396000">
        <ele>38.000000</ele>
        <time>2010-01-01T05:39:02Z</time>
      </trkpt>
      <trkpt lat="43.75326000" lon="10.82411000">
        <ele>40.000000</ele>
        <time>2010-01-01T05:39:06Z</time>
      </trkpt>
      <trkpt lat="43.75318000" lon="10.82420000">
        <ele>42.000000</ele>
        <time>2010-01-01T05:39:10Z</time>
      </trkpt>
      <trkpt lat="43.75312000" lon="10.82419000">
        <ele>42.000000</ele>
        <time>2010-01-01T05:39:13Z</time>
      </trkpt>
      <trkpt lat="43.75285000" lon="10.82405000">
        <ele>43.000000</ele>
        <time>2010-01-01T05:39:24Z</time>
      </trkpt>
      <trkpt lat="43.75260000" lon="10.82394000">
        <ele>44.000000</ele>
        <time>2010-01-01T05:39:35Z</time>
      </trkpt>
      <trkpt lat="43.75245000" lon="10.82396000">
        <ele>45.000000</ele>
        <time>2010-01-01T05:39:41Z</time>
      </trkpt>
      <trkpt lat="43.75239000" lon="10.82409000">
        <ele>48.000000</ele>
        <time>2010-01-01T05:39:45Z</time>
      </trkpt>
      <trkpt lat="43.75243000" lon="10.82422000">
        <ele>50.000000</ele>
        <time>2010-01-01T05:39:49Z</time>
      </trkpt>
      <trkpt lat="43.75260000" lon="10.82447000">
        <ele>52.000000</ele>
        <time>2010-01-01T05:39:59Z</time>
      </trkpt>
      <trkpt lat="43.75330000" lon="10.82537000">
        <ele>52.000000</ele>
        <time>2010-01-01T05:40:38Z</time>
      </trkpt>
      <trkpt lat="43.75459000" lon="10.82638000">
        <ele>56.000000</ele>
        <time>2010-01-01T05:41:37Z</time>
      </trkpt>
      <trkpt lat="43.75487000" lon="10.82685000">
        <ele>57.000000</ele>
        <time>2010-01-01T05:41:55Z</time>
      </trkpt>
      <trkpt lat="43.75508000" lon="10.82744000">
        <ele>60.000000</ele>
        <time>2010-01-01T05:42:14Z</time>
      </trkpt>
      <trkpt lat="43.75523000" lon="10.82812000">
        <ele>61.000000</ele>
        <time>2010-01-01T05:42:34Z</time>
      </trkpt>
      <trkpt lat="43.75533000" lon="10.82878000">
        <ele>61.000000</ele>
        <time>2010-01-01T05:42:54Z</time>
      </trkpt>
      <trkpt lat="43.75549000" lon="10.82925000">
        <ele>65.000000</ele>
        <time>2010-01-01T05:43:09Z</time>
      </trkpt>
      <trkpt lat="43.75609000" lon="10.83017000">
        <ele>68.000000</ele>
        <time>2010-01-01T05:43:45Z</time>
      </trkpt>
      <trkpt lat="43.75728000" lon="10.83106000">
        <ele>64.000000</ele>
        <time>2010-01-01T05:44:39Z</time>
      </trkpt>
      <trkpt lat="43.75753000" lon="10.83131000">
        <ele>62.000000</ele>
        <time>2010-01-01T05:44:51Z</time>
      </trkpt>
      <trkpt lat="43.75776000" lon="10.83199000">
        <ele>61.000000</ele>
        <time>2010-01-01T05:45:13Z</time>
      </trkpt>
      <trkpt lat="43.75788000" lon="10.83224000">
        <ele>61.000000</ele>
        <time>2010-01-01T05:45:21Z</time>
      </trkpt>
      <trkpt lat="43.75828000" lon="10.83292000">
        <ele>60.000000</ele>
        <time>2010-01-01T05:45:47Z</time>
      </trkpt>
      <trkpt lat="43.75898000" lon="10.83401000">
        <ele>63.000000</ele>
        <time>2010-01-01T05:46:29Z</time>
      </trkpt>
      <trkpt lat="43.75939410" lon="10.83453650">
        <ele>60.000000</ele>
        <time>2010-01-01T05:46:51Z</time>
      </trkpt>
      <trkpt lat="43.76031000" lon="10.83546000">
        <ele>61.000000</ele>
        <time>2010-01-01T05:47:37Z</time>
      </trkpt>
      <trkpt lat="43.76088960" lon="10.83639260">
        <ele>63.000000</ele>
        <time>2010-01-01T05:48:12Z</time>
      </trkpt>
      <trkpt lat="43.76129000" lon="10.83745000">
        <ele>63.000000</ele>
        <time>2010-01-01T05:48:47Z</time>
      </trkpt>
      <trkpt lat="43.76142000" lon="10.83771000">
        <ele>64.000000</ele>
        <time>2010-01-01T05:48:56Z</time>
      </trkpt>
      <trkpt lat="43.76168000" lon="10.83802000">
        <ele>65.000000</ele>
        <time>2010-01-01T05:49:10Z</time>
      </trkpt>
      <trkpt lat="43.76222000" lon="10.83850000">
        <ele>66.000000</ele>
        <time>2010-01-01T05:49:35Z</time>
      </trkpt>
      <trkpt lat="43.76258000" lon="10.83891000">
        <ele>67.000000</ele>
        <time>2010-01-01T05:49:54Z</time>
      </trkpt>
      <trkpt lat="43.76376000" lon="10.84115000">
        <ele>54.000000</ele>
        <time>2010-01-01T05:51:14Z</time>
      </trkpt>
      <trkpt lat="43.76411000" lon="10.84192000">
        <ele>58.000000</ele>
        <time>2010-01-01T05:51:41Z</time>
      </trkpt>
      <trkpt lat="43.76420000" lon="10.84239000">
        <ele>64.000000</ele>
        <time>2010-01-01T05:51:55Z</time>
      </trkpt>
      <trkpt lat="43.76417000" lon="10.84300000">
        <ele>68.000000</ele>
        <time>2010-01-01T05:52:12Z</time>
      </trkpt>
      <trkpt lat="43.76404000" lon="10.84378000">
        <ele>68.000000</ele>
        <time>2010-01-01T05:52:35Z</time>
      </trkpt>
      <trkpt lat="43.76286000" lon="10.84712000">
        <ele>85.000000</ele>
        <time>2010-01-01T05:54:23Z</time>
      </trkpt>
      <trkpt lat="43.76281000" lon="10.84748000">
        <ele>83.000000</ele>
        <time>2010-01-01T05:54:34Z</time>
      </trkpt>
      <trkpt lat="43.76304000" lon="10.84861000">
        <ele>81.000000</ele>
        <time>2010-01-01T05:55:07Z</time>
      </trkpt>
      <trkpt lat="43.76308000" lon="10.84920000">
        <ele>83.000000</ele>
        <time>2010-01-01T05:55:25Z</time>
      </trkpt>
      <trkpt lat="43.76297000" lon="10.84982000">
        <ele>82.000000</ele>
        <time>2010-01-01T05:55:43Z</time>
      </trkpt>
      <trkpt lat="43.76290000" lon="10.85004000">
        <ele>82.000000</ele>
        <time>2010-01-01T05:55:50Z</time>
      </trkpt>
      <trkpt lat="43.76263000" lon="10.85043000">
        <ele>82.000000</ele>
        <time>2010-01-01T05:56:06Z</time>
      </trkpt>
      <trkpt lat="43.76249000" lon="10.85081000">
        <ele>81.000000</ele>
        <time>2010-01-01T05:56:18Z</time>
      </trkpt>
      <trkpt lat="43.76260000" lon="10.85203000">
        <ele>79.000000</ele>
        <time>2010-01-01T05:56:53Z</time>
      </trkpt>
      <trkpt lat="43.76261000" lon="10.85261000">
        <ele>79.000000</ele>
        <time>2010-01-01T05:57:10Z</time>
      </trkpt>
      <trkpt lat="43.76251000" lon="10.85310000">
        <ele>81.000000</ele>
        <time>2010-01-01T05:57:25Z</time>
      </trkpt>
      <trkpt lat="43.76224000" lon="10.85365000">
        <ele>83.000000</ele>
        <time>2010-01-01T05:57:44Z</time>
      </trkpt>
      <trkpt lat="43.76189000" lon="10.85408000">
        <ele>85.000000</ele>
        <time>2010-01-01T05:58:03Z</time>
      </trkpt>
      <trkpt lat="43.76123000" lon="10.85447000">
        <ele>86.000000</ele>
        <time>2010-01-01T05:58:32Z</time>
      </trkpt>
      <trkpt lat="43.76025000" lon="10.85488000">
        <ele>89.000000</ele>
        <time>2010-01-01T05:59:13Z</time>
      </trkpt>
      <trkpt lat="43.76005000" lon="10.85501000">
        <ele>87.000000</ele>
        <time>2010-01-01T05:59:21Z</time>
      </trkpt>
      <trkpt lat="43.75974000" lon="10.85536000">
        <ele>88.000000</ele>
        <time>2010-01-01T05:59:38Z</time>
      </trkpt>
      <trkpt lat="43.75951000" lon="10.85577000">
        <ele>90.000000</ele>
        <time>2010-01-01T05:59:53Z</time>
      </trkpt>
      <trkpt lat="43.75940000" lon="10.85614000">
        <ele>93.000000</ele>
        <time>2010-01-01T06:00:04Z</time>
      </trkpt>
      <trkpt lat="43.75902990" lon="10.85802190">
        <ele>92.000000</ele>
        <time>2010-01-01T06:01:00Z</time>
      </trkpt>
      <trkpt lat="43.75859000" lon="10.85916000">
        <ele>91.000000</ele>
        <time>2010-01-01T06:01:38Z</time>
      </trkpt>
      <trkpt lat="43.75769000" lon="10.86078000">
        <ele>91.000000</ele>
        <time>2010-01-01T06:02:37Z</time>
      </trkpt>
      <trkpt lat="43.75698000" lon="10.86213000">
        <ele>93.000000</ele>
        <time>2010-01-01T06:03:25Z</time>
      </trkpt>
      <trkpt lat="43.75687000" lon="10.86327000">
        <ele>98.000000</ele>
        <time>2010-01-01T06:03:58Z</time>
      </trkpt>
      <trkpt lat="43.75691000" lon="10.86477000">
        <ele>99.000000</ele>
        <time>2010-01-01T06:04:42Z</time>
      </trkpt>
      <trkpt lat="43.75704000" lon="10.86538000">
        <ele>98.000000</ele>
        <time>2010-01-01T06:05:00Z</time>
      </trkpt>
      <trkpt lat="43.75790000" lon="10.86743000">
        <ele>94.000000</ele>
        <time>2010-01-01T06:06:09Z</time>
      </trkpt>
      <trkpt lat="43.75790240" lon="10.86751690">
        <ele>94.000000</ele>
        <time>2010-01-01T06:06:11Z</time>
      </trkpt>
      <trkpt lat="43.75796440" lon="10.86756520">
        <ele>94.000000</ele>
        <time>2010-01-01T06:06:14Z</time>
      </trkpt>
      <trkpt lat="43.75809000" lon="10.86779000">
        <ele>93.000000</ele>
        <time>2010-01-01T06:06:22Z</time>
      </trkpt>
      <trkpt lat="43.75872000" lon="10.86985000">
        <ele>88.000000</ele>
        <time>2010-01-01T06:07:27Z</time>
      </trkpt>
      <trkpt lat="43.76031000" lon="10.87351000">
        <ele>90.000000</ele>
        <time>2010-01-01T06:09:31Z</time>
      </trkpt>
      <trkpt lat="43.76047000" lon="10.87371000">
        <ele>89.000000</ele>
        <time>2010-01-01T06:09:39Z</time>
      </trkpt>
      <trkpt lat="43.76080000" lon="10.87497000">
        <ele>94.000000</ele>
        <time>2010-01-01T06:10:18Z</time>
      </trkpt>
      <trkpt lat="43.76089000" lon="10.87541000">
        <ele>97.000000</ele>
        <time>2010-01-01T06:10:31Z</time>
      </trkpt>
      <trkpt lat="43.76094000" lon="10.87625000">
        <ele>95.000000</ele>
        <time>2010-01-01T06:10:55Z</time>
      </trkpt>
      <trkpt lat="43.76053000" lon="10.87705000">
        <ele>99.000000</ele>
        <time>2010-01-01T06:11:24Z</time>
      </trkpt>
      <trkpt lat="43.76002000" lon="10.87805000">
        <ele>102.00000</ele>
        <time>2010-01-01T06:11:59Z</time>
      </trkpt>
      <trkpt lat="43.75995000" lon="10.87861000">
        <ele>102.00000</ele>
        <time>2010-01-01T06:12:16Z</time>
      </trkpt>
      <trkpt lat="43.75996000" lon="10.87901000">
        <ele>103.00000</ele>
        <time>2010-01-01T06:12:27Z</time>
      </trkpt>
      <trkpt lat="43.75987000" lon="10.87990000">
        <ele>105.00000</ele>
        <time>2010-01-01T06:12:53Z</time>
      </trkpt>
      <trkpt lat="43.75978000" lon="10.88019000">
        <ele>105.00000</ele>
        <time>2010-01-01T06:13:02Z</time>
      </trkpt>
      <trkpt lat="43.76071000" lon="10.88076000">
        <ele>94.000000</ele>
        <time>2010-01-01T06:13:43Z</time>
      </trkpt>
      <trkpt lat="43.76119000" lon="10.88111000">
        <ele>93.000000</ele>
        <time>2010-01-01T06:14:05Z</time>
      </trkpt>
      <trkpt lat="43.76153000" lon="10.88150000">
        <ele>89.000000</ele>
        <time>2010-01-01T06:14:22Z</time>
      </trkpt>
      <trkpt lat="43.76331000" lon="10.88388000">
        <ele>94.000000</ele>
        <time>2010-01-01T06:16:01Z</time>
      </trkpt>
      <trkpt lat="43.76354000" lon="10.88432000">
        <ele>95.000000</ele>
        <time>2010-01-01T06:16:17Z</time>
      </trkpt>
      <trkpt lat="43.76515000" lon="10.88818000">
        <ele>94.000000</ele>
        <time>2010-01-01T06:18:26Z</time>
      </trkpt>
      <trkpt lat="43.76536000" lon="10.88846000">
        <ele>94.000000</ele>
        <time>2010-01-01T06:18:38Z</time>
      </trkpt>
      <trkpt lat="43.76567000" lon="10.88873000">
        <ele>95.000000</ele>
        <time>2010-01-01T06:18:52Z</time>
      </trkpt>
      <trkpt lat="43.76670000" lon="10.88933000">
        <ele>95.000000</ele>
        <time>2010-01-01T06:19:37Z</time>
      </trkpt>
      <trkpt lat="43.76955000" lon="10.89076000">
        <ele>91.000000</ele>
        <time>2010-01-01T06:21:38Z</time>
      </trkpt>
      <trkpt lat="43.76983000" lon="10.89117000">
        <ele>89.000000</ele>
        <time>2010-01-01T06:21:55Z</time>
      </trkpt>
      <trkpt lat="43.77020000" lon="10.89203000">
        <ele>87.000000</ele>
        <time>2010-01-01T06:22:24Z</time>
      </trkpt>
      <trkpt lat="43.77031000" lon="10.89261000">
        <ele>88.000000</ele>
        <time>2010-01-01T06:22:41Z</time>
      </trkpt>
      <trkpt lat="43.76999000" lon="10.89513000">
        <ele>83.000000</ele>
        <time>2010-01-01T06:23:55Z</time>
      </trkpt>
      <trkpt lat="43.76984000" lon="10.89647000">
        <ele>87.000000</ele>
        <time>2010-01-01T06:24:34Z</time>
      </trkpt>
      <trkpt lat="43.76975000" lon="10.89680000">
        <ele>88.000000</ele>
        <time>2010-01-01T06:24:44Z</time>
      </trkpt>
      <trkpt lat="43.76965000" lon="10.89752000">
        <ele>88.000000</ele>
        <time>2010-01-01T06:25:06Z</time>
      </trkpt>
      <trkpt lat="43.76964000" lon="10.89806000">
        <ele>89.000000</ele>
        <time>2010-01-01T06:25:21Z</time>
      </trkpt>
      <trkpt lat="43.76977000" lon="10.89927000">
        <ele>89.000000</ele>
        <time>2010-01-01T06:25:57Z</time>
      </trkpt>
      <trkpt lat="43.77134000" lon="10.90285000">
        <ele>78.000000</ele>
        <time>2010-01-01T06:27:58Z</time>
      </trkpt>
      <trkpt lat="43.77275000" lon="10.90616000">
        <ele>77.000000</ele>
        <time>2010-01-01T06:29:49Z</time>
      </trkpt>
      <trkpt lat="43.77404000" lon="10.90871000">
        <ele>79.000000</ele>
        <time>2010-01-01T06:31:19Z</time>
      </trkpt>
      <trkpt lat="43.77429000" lon="10.90902000">
        <ele>76.000000</ele>
        <time>2010-01-01T06:31:32Z</time>
      </trkpt>
      <trkpt lat="43.77819000" lon="10.91305000">
        <ele>70.000000</ele>
        <time>2010-01-01T06:34:47Z</time>
      </trkpt>
      <trkpt lat="43.77903000" lon="10.91416000">
        <ele>66.000000</ele>
        <time>2010-01-01T06:35:33Z</time>
      </trkpt>
      <trkpt lat="43.77914000" lon="10.91434000">
        <ele>65.000000</ele>
        <time>2010-01-01T06:35:40Z</time>
      </trkpt>
      <trkpt lat="43.77925000" lon="10.91474000">
        <ele>62.000000</ele>
        <time>2010-01-01T06:35:53Z</time>
      </trkpt>
      <trkpt lat="43.77927000" lon="10.91555000">
        <ele>56.000000</ele>
        <time>2010-01-01T06:36:16Z</time>
      </trkpt>
      <trkpt lat="43.77936000" lon="10.91583000">
        <ele>54.000000</ele>
        <time>2010-01-01T06:36:25Z</time>
      </trkpt>
      <trkpt lat="43.77956000" lon="10.91610000">
        <ele>51.000000</ele>
        <time>2010-01-01T06:36:36Z</time>
      </trkpt>
      <trkpt lat="43.78017000" lon="10.91634000">
        <ele>46.000000</ele>
        <time>2010-01-01T06:37:01Z</time>
      </trkpt>
      <trkpt lat="43.78050000" lon="10.91658000">
        <ele>44.000000</ele>
        <time>2010-01-01T06:37:16Z</time>
      </trkpt>
      <trkpt lat="43.78066000" lon="10.91685000">
        <ele>44.000000</ele>
        <time>2010-01-01T06:37:26Z</time>
      </trkpt>
      <trkpt lat="43.78068000" lon="10.91695000">
        <ele>44.000000</ele>
        <time>2010-01-01T06:37:29Z</time>
      </trkpt>
      <trkpt lat="43.78063780" lon="10.91723440">
        <ele>42.000000</ele>
        <time>2010-01-01T06:37:38Z</time>
      </trkpt>
      <trkpt lat="43.78096000" lon="10.91756000">
        <ele>44.000000</ele>
        <time>2010-01-01T06:37:54Z</time>
      </trkpt>
      <trkpt lat="43.78129000" lon="10.91795000">
        <ele>45.000000</ele>
        <time>2010-01-01T06:38:11Z</time>
      </trkpt>
      <trkpt lat="43.78151000" lon="10.91837000">
        <ele>45.000000</ele>
        <time>2010-01-01T06:38:26Z</time>
      </trkpt>
      <trkpt lat="43.78293840" lon="10.92132210">
        <ele>56.000000</ele>
        <time>2010-01-01T06:40:09Z</time>
      </trkpt>
      <trkpt lat="43.78232640" lon="10.92184780">
        <ele>61.000000</ele>
        <time>2010-01-01T06:40:38Z</time>
      </trkpt>
      <trkpt lat="43.78228000" lon="10.92339270">
        <ele>71.000000</ele>
        <time>2010-01-01T06:41:22Z</time>
      </trkpt>
      <trkpt lat="43.78311260" lon="10.92346780">
        <ele>73.000000</ele>
        <time>2010-01-01T06:41:56Z</time>
      </trkpt>
      <trkpt lat="43.78438000" lon="10.92456000">
        <ele>71.000000</ele>
        <time>2010-01-01T06:42:56Z</time>
      </trkpt>
      <trkpt lat="43.78542000" lon="10.92550000">
        <ele>76.000000</ele>
        <time>2010-01-01T06:43:45Z</time>
      </trkpt>
      <trkpt lat="43.78587000" lon="10.92645000">
        <ele>79.000000</ele>
        <time>2010-01-01T06:44:18Z</time>
      </trkpt>
      <trkpt lat="43.78607000" lon="10.92676000">
        <ele>79.000000</ele>
        <time>2010-01-01T06:44:30Z</time>
      </trkpt>
      <trkpt lat="43.78640840" lon="10.92712640">
        <ele>82.000000</ele>
        <time>2010-01-01T06:44:47Z</time>
      </trkpt>
      <trkpt lat="43.78819000" lon="10.92823000">
        <ele>84.000000</ele>
        <time>2010-01-01T06:46:05Z</time>
      </trkpt>
      <trkpt lat="43.78895000" lon="10.92841000">
        <ele>87.000000</ele>
        <time>2010-01-01T06:46:36Z</time>
      </trkpt>
      <trkpt lat="43.78934000" lon="10.92887000">
        <ele>90.000000</ele>
        <time>2010-01-01T06:46:57Z</time>
      </trkpt>
      <trkpt lat="43.78950000" lon="10.92893000">
        <ele>92.000000</ele>
        <time>2010-01-01T06:47:03Z</time>
      </trkpt>
      <trkpt lat="43.78986000" lon="10.92898000">
        <ele>92.000000</ele>
        <time>2010-01-01T06:47:18Z</time>
      </trkpt>
      <trkpt lat="43.79053000" lon="10.92918000">
        <ele>94.000000</ele>
        <time>2010-01-01T06:47:45Z</time>
      </trkpt>
      <trkpt lat="43.79067000" lon="10.92920000">
        <ele>95.000000</ele>
        <time>2010-01-01T06:47:51Z</time>
      </trkpt>
      <trkpt lat="43.79189000" lon="10.92899000">
        <ele>97.000000</ele>
        <time>2010-01-01T06:48:40Z</time>
      </trkpt>
      <trkpt lat="43.79214000" lon="10.92891000">
        <ele>96.000000</ele>
        <time>2010-01-01T06:48:50Z</time>
      </trkpt>
      <trkpt lat="43.79259000" lon="10.92856000">
        <ele>100.00000</ele>
        <time>2010-01-01T06:49:11Z</time>
      </trkpt>
      <trkpt lat="43.79283000" lon="10.92847000">
        <ele>105.00000</ele>
        <time>2010-01-01T06:49:21Z</time>
      </trkpt>
      <trkpt lat="43.79309000" lon="10.92849000">
        <ele>108.00000</ele>
        <time>2010-01-01T06:49:32Z</time>
      </trkpt>
      <trkpt lat="43.79337000" lon="10.92848000">
        <ele>109.00000</ele>
        <time>2010-01-01T06:49:43Z</time>
      </trkpt>
      <trkpt lat="43.79418000" lon="10.92838000">
        <ele>117.00000</ele>
        <time>2010-01-01T06:50:15Z</time>
      </trkpt>
      <trkpt lat="43.79429000" lon="10.92840000">
        <ele>117.00000</ele>
        <time>2010-01-01T06:50:20Z</time>
      </trkpt>
      <trkpt lat="43.79440000" lon="10.92844000">
        <ele>116.00000</ele>
        <time>2010-01-01T06:50:24Z</time>
      </trkpt>
      <trkpt lat="43.79513000" lon="10.92897000">
        <ele>123.00000</ele>
        <time>2010-01-01T06:50:57Z</time>
      </trkpt>
      <trkpt lat="43.79592000" lon="10.92955000">
        <ele>133.00000</ele>
        <time>2010-01-01T06:51:33Z</time>
      </trkpt>
      <trkpt lat="43.79615000" lon="10.92978000">
        <ele>139.00000</ele>
        <time>2010-01-01T06:51:44Z</time>
      </trkpt>
      <trkpt lat="43.79621000" lon="10.93013000">
        <ele>141.00000</ele>
        <time>2010-01-01T06:51:55Z</time>
      </trkpt>
      <trkpt lat="43.79625000" lon="10.93026000">
        <ele>143.00000</ele>
        <time>2010-01-01T06:51:59Z</time>
      </trkpt>
      <trkpt lat="43.79633000" lon="10.93033000">
        <ele>145.00000</ele>
        <time>2010-01-01T06:52:03Z</time>
      </trkpt>
      <trkpt lat="43.79646000" lon="10.93035000">
        <ele>149.00000</ele>
        <time>2010-01-01T06:52:08Z</time>
      </trkpt>
      <trkpt lat="43.79653000" lon="10.93031000">
        <ele>152.00000</ele>
        <time>2010-01-01T06:52:11Z</time>
      </trkpt>
      <trkpt lat="43.79659000" lon="10.93024000">
        <ele>153.00000</ele>
        <time>2010-01-01T06:52:14Z</time>
      </trkpt>
      <trkpt lat="43.79661000" lon="10.93015000">
        <ele>154.00000</ele>
        <time>2010-01-01T06:52:17Z</time>
      </trkpt>
      <trkpt lat="43.79663000" lon="10.92977000">
        <ele>151.00000</ele>
        <time>2010-01-01T06:52:28Z</time>
      </trkpt>
      <trkpt lat="43.79665000" lon="10.92967000">
        <ele>150.00000</ele>
        <time>2010-01-01T06:52:31Z</time>
      </trkpt>
      <trkpt lat="43.79675000" lon="10.92955000">
        <ele>150.00000</ele>
        <time>2010-01-01T06:52:36Z</time>
      </trkpt>
      <trkpt lat="43.79692000" lon="10.92952000">
        <ele>152.00000</ele>
        <time>2010-01-01T06:52:43Z</time>
      </trkpt>
      <trkpt lat="43.79714000" lon="10.92960000">
        <ele>152.00000</ele>
        <time>2010-01-01T06:52:52Z</time>
      </trkpt>
      <trkpt lat="43.79749000" lon="10.92996000">
        <ele>157.00000</ele>
        <time>2010-01-01T06:53:10Z</time>
      </trkpt>
      <trkpt lat="43.79752000" lon="10.93006000">
        <ele>158.00000</ele>
        <time>2010-01-01T06:53:13Z</time>
      </trkpt>
      <trkpt lat="43.79752000" lon="10.93015000">
        <ele>160.00000</ele>
        <time>2010-01-01T06:53:15Z</time>
      </trkpt>
      <trkpt lat="43.79749000" lon="10.93024000">
        <ele>161.00000</ele>
        <time>2010-01-01T06:53:18Z</time>
      </trkpt>
      <trkpt lat="43.79738000" lon="10.93037000">
        <ele>163.00000</ele>
        <time>2010-01-01T06:53:24Z</time>
      </trkpt>
      <trkpt lat="43.79735000" lon="10.93049000">
        <ele>164.00000</ele>
        <time>2010-01-01T06:53:28Z</time>
      </trkpt>
      <trkpt lat="43.79734000" lon="10.93061000">
        <ele>164.00000</ele>
        <time>2010-01-01T06:53:31Z</time>
      </trkpt>
      <trkpt lat="43.79740000" lon="10.93113000">
        <ele>165.00000</ele>
        <time>2010-01-01T06:53:46Z</time>
      </trkpt>
      <trkpt lat="43.79764000" lon="10.93187000">
        <ele>169.00000</ele>
        <time>2010-01-01T06:54:10Z</time>
      </trkpt>
      <trkpt lat="43.79782000" lon="10.93232000">
        <ele>171.00000</ele>
        <time>2010-01-01T06:54:25Z</time>
      </trkpt>
      <trkpt lat="43.79786000" lon="10.93246000">
        <ele>172.00000</ele>
        <time>2010-01-01T06:54:29Z</time>
      </trkpt>
      <trkpt lat="43.79786000" lon="10.93267000">
        <ele>172.00000</ele>
        <time>2010-01-01T06:54:35Z</time>
      </trkpt>
      <trkpt lat="43.79782000" lon="10.93307000">
        <ele>173.00000</ele>
        <time>2010-01-01T06:54:47Z</time>
      </trkpt>
      <trkpt lat="43.79784000" lon="10.93319000">
        <ele>174.00000</ele>
        <time>2010-01-01T06:54:50Z</time>
      </trkpt>
      <trkpt lat="43.79796000" lon="10.93351000">
        <ele>179.00000</ele>
        <time>2010-01-01T06:55:01Z</time>
      </trkpt>
      <trkpt lat="43.79797000" lon="10.93364000">
        <ele>180.00000</ele>
        <time>2010-01-01T06:55:04Z</time>
      </trkpt>
      <trkpt lat="43.79794000" lon="10.93382000">
        <ele>180.00000</ele>
        <time>2010-01-01T06:55:10Z</time>
      </trkpt>
      <trkpt lat="43.79779000" lon="10.93442000">
        <ele>181.00000</ele>
        <time>2010-01-01T06:55:28Z</time>
      </trkpt>
      <trkpt lat="43.79778000" lon="10.93455000">
        <ele>182.00000</ele>
        <time>2010-01-01T06:55:32Z</time>
      </trkpt>
      <trkpt lat="43.79781000" lon="10.93466000">
        <ele>184.00000</ele>
        <time>2010-01-01T06:55:35Z</time>
      </trkpt>
      <trkpt lat="43.79784000" lon="10.93476000">
        <ele>185.00000</ele>
        <time>2010-01-01T06:55:38Z</time>
      </trkpt>
      <trkpt lat="43.79790000" lon="10.93479000">
        <ele>187.00000</ele>
        <time>2010-01-01T06:55:41Z</time>
      </trkpt>
      <trkpt lat="43.79796000" lon="10.93475000">
        <ele>188.00000</ele>
        <time>2010-01-01T06:55:44Z</time>
      </trkpt>
      <trkpt lat="43.79798000" lon="10.93467000">
        <ele>187.00000</ele>
        <time>2010-01-01T06:55:46Z</time>
      </trkpt>
      <trkpt lat="43.79797000" lon="10.93450000">
        <ele>185.00000</ele>
        <time>2010-01-01T06:55:51Z</time>
      </trkpt>
      <trkpt lat="43.79800000" lon="10.93439000">
        <ele>185.00000</ele>
        <time>2010-01-01T06:55:54Z</time>
      </trkpt>
      <trkpt lat="43.79806000" lon="10.93429000">
        <ele>185.00000</ele>
        <time>2010-01-01T06:55:58Z</time>
      </trkpt>
      <trkpt lat="43.79817000" lon="10.93420000">
        <ele>187.00000</ele>
        <time>2010-01-01T06:56:03Z</time>
      </trkpt>
      <trkpt lat="43.79823000" lon="10.93418000">
        <ele>188.00000</ele>
        <time>2010-01-01T06:56:06Z</time>
      </trkpt>
      <trkpt lat="43.79837000" lon="10.93416000">
        <ele>190.00000</ele>
        <time>2010-01-01T06:56:11Z</time>
      </trkpt>
      <trkpt lat="43.79857000" lon="10.93418000">
        <ele>193.00000</ele>
        <time>2010-01-01T06:56:19Z</time>
      </trkpt>
      <trkpt lat="43.79868000" lon="10.93421000">
        <ele>194.00000</ele>
        <time>2010-01-01T06:56:24Z</time>
      </trkpt>
      <trkpt lat="43.79878000" lon="10.93429000">
        <ele>195.00000</ele>
        <time>2010-01-01T06:56:29Z</time>
      </trkpt>
      <trkpt lat="43.79885000" lon="10.93438000">
        <ele>196.00000</ele>
        <time>2010-01-01T06:56:32Z</time>
      </trkpt>
      <trkpt lat="43.79886000" lon="10.93447000">
        <ele>197.00000</ele>
        <time>2010-01-01T06:56:35Z</time>
      </trkpt>
      <trkpt lat="43.79885000" lon="10.93458000">
        <ele>197.00000</ele>
        <time>2010-01-01T06:56:38Z</time>
      </trkpt>
      <trkpt lat="43.79881000" lon="10.93465000">
        <ele>198.00000</ele>
        <time>2010-01-01T06:56:41Z</time>
      </trkpt>
      <trkpt lat="43.79870000" lon="10.93473000">
        <ele>199.00000</ele>
        <time>2010-01-01T06:56:46Z</time>
      </trkpt>
      <trkpt lat="43.79865000" lon="10.93479000">
        <ele>199.00000</ele>
        <time>2010-01-01T06:56:48Z</time>
      </trkpt>
      <trkpt lat="43.79864000" lon="10.93490000">
        <ele>200.00000</ele>
        <time>2010-01-01T06:56:52Z</time>
      </trkpt>
      <trkpt lat="43.79870000" lon="10.93522000">
        <ele>202.00000</ele>
        <time>2010-01-01T06:57:01Z</time>
      </trkpt>
      <trkpt lat="43.79866000" lon="10.93562000">
        <ele>203.00000</ele>
        <time>2010-01-01T06:57:13Z</time>
      </trkpt>
      <trkpt lat="43.79884000" lon="10.93631000">
        <ele>208.00000</ele>
        <time>2010-01-01T06:57:34Z</time>
      </trkpt>
      <trkpt lat="43.79898000" lon="10.93670000">
        <ele>209.00000</ele>
        <time>2010-01-01T06:57:47Z</time>
      </trkpt>
      <trkpt lat="43.79915000" lon="10.93704000">
        <ele>210.00000</ele>
        <time>2010-01-01T06:57:59Z</time>
      </trkpt>
      <trkpt lat="43.79924000" lon="10.93731000">
        <ele>211.00000</ele>
        <time>2010-01-01T06:58:07Z</time>
      </trkpt>
      <trkpt lat="43.79930000" lon="10.93760000">
        <ele>213.00000</ele>
        <time>2010-01-01T06:58:16Z</time>
      </trkpt>
      <trkpt lat="43.79938000" lon="10.93811000">
        <ele>213.00000</ele>
        <time>2010-01-01T06:58:31Z</time>
      </trkpt>
      <trkpt lat="43.79937000" lon="10.93811000">
        <ele>213.00000</ele>
        <time>2010-01-01T06:58:31Z</time>
      </trkpt>
      <trkpt lat="43.79944000" lon="10.93843000">
        <ele>212.00000</ele>
        <time>2010-01-01T06:58:41Z</time>
      </trkpt>
      <trkpt lat="43.79966000" lon="10.93896000">
        <ele>211.00000</ele>
        <time>2010-01-01T06:58:59Z</time>
      </trkpt>
      <trkpt lat="43.79973000" lon="10.93908000">
        <ele>211.00000</ele>
        <time>2010-01-01T06:59:03Z</time>
      </trkpt>
      <trkpt lat="43.79998000" lon="10.93935000">
        <ele>212.00000</ele>
        <time>2010-01-01T06:59:16Z</time>
      </trkpt>
      <trkpt lat="43.79986000" lon="10.93964000">
        <ele>213.00000</ele>
        <time>2010-01-01T06:59:25Z</time>
      </trkpt>
      <trkpt lat="43.79978000" lon="10.93978000">
        <ele>213.00000</ele>
        <time>2010-01-01T06:59:31Z</time>
      </trkpt>
      <trkpt lat="43.79953000" lon="10.94011000">
        <ele>212.00000</ele>
        <time>2010-01-01T06:59:44Z</time>
      </trkpt>
      <trkpt lat="43.79948000" lon="10.94026000">
        <ele>212.00000</ele>
        <time>2010-01-01T06:59:49Z</time>
      </trkpt>
      <trkpt lat="43.79946000" lon="10.94041000">
        <ele>213.00000</ele>
        <time>2010-01-01T06:59:54Z</time>
      </trkpt>
      <trkpt lat="43.79946000" lon="10.94058000">
        <ele>215.00000</ele>
        <time>2010-01-01T06:59:59Z</time>
      </trkpt>
      <trkpt lat="43.79955000" lon="10.94106000">
        <ele>219.00000</ele>
        <time>2010-01-01T07:00:13Z</time>
      </trkpt>
      <trkpt lat="43.79960000" lon="10.94127000">
        <ele>220.00000</ele>
        <time>2010-01-01T07:00:19Z</time>
      </trkpt>
      <trkpt lat="43.79975000" lon="10.94171000">
        <ele>226.00000</ele>
        <time>2010-01-01T07:00:33Z</time>
      </trkpt>
      <trkpt lat="43.79980000" lon="10.94201000">
        <ele>226.00000</ele>
        <time>2010-01-01T07:00:42Z</time>
      </trkpt>
      <trkpt lat="43.79981000" lon="10.94215000">
        <ele>227.00000</ele>
        <time>2010-01-01T07:00:46Z</time>
      </trkpt>
      <trkpt lat="43.79964000" lon="10.94276000">
        <ele>225.00000</ele>
        <time>2010-01-01T07:01:05Z</time>
      </trkpt>
      <trkpt lat="43.79969000" lon="10.94298000">
        <ele>226.00000</ele>
        <time>2010-01-01T07:01:12Z</time>
      </trkpt>
      <trkpt lat="43.79982000" lon="10.94313000">
        <ele>229.00000</ele>
        <time>2010-01-01T07:01:19Z</time>
      </trkpt>
      <trkpt lat="43.79987000" lon="10.94321000">
        <ele>230.00000</ele>
        <time>2010-01-01T07:01:22Z</time>
      </trkpt>
      <trkpt lat="43.79990000" lon="10.94333000">
        <ele>231.00000</ele>
        <time>2010-01-01T07:01:25Z</time>
      </trkpt>
      <trkpt lat="43.79988000" lon="10.94374000">
        <ele>234.00000</ele>
        <time>2010-01-01T07:01:37Z</time>
      </trkpt>
      <trkpt lat="43.79972000" lon="10.94420000">
        <ele>236.00000</ele>
        <time>2010-01-01T07:01:52Z</time>
      </trkpt>
      <trkpt lat="43.79975000" lon="10.94477000">
        <ele>239.00000</ele>
        <time>2010-01-01T07:02:08Z</time>
      </trkpt>
      <trkpt lat="43.79980000" lon="10.94512000">
        <ele>241.00000</ele>
        <time>2010-01-01T07:02:19Z</time>
      </trkpt>
      <trkpt lat="43.79982000" lon="10.94542000">
        <ele>241.00000</ele>
        <time>2010-01-01T07:02:27Z</time>
      </trkpt>
      <trkpt lat="43.79980000" lon="10.94550000">
        <ele>240.00000</ele>
        <time>2010-01-01T07:02:30Z</time>
      </trkpt>
      <trkpt lat="43.79969000" lon="10.94553000">
        <ele>241.00000</ele>
        <time>2010-01-01T07:02:34Z</time>
      </trkpt>
      <trkpt lat="43.79959000" lon="10.94539000">
        <ele>245.00000</ele>
        <time>2010-01-01T07:02:40Z</time>
      </trkpt>
      <trkpt lat="43.79938000" lon="10.94415000">
        <ele>243.00000</ele>
        <time>2010-01-01T07:03:17Z</time>
      </trkpt>
      <trkpt lat="43.79937000" lon="10.94395000">
        <ele>244.00000</ele>
        <time>2010-01-01T07:03:23Z</time>
      </trkpt>
      <trkpt lat="43.79938000" lon="10.94374000">
        <ele>241.00000</ele>
        <time>2010-01-01T07:03:29Z</time>
      </trkpt>
      <trkpt lat="43.79936000" lon="10.94361000">
        <ele>240.00000</ele>
        <time>2010-01-01T07:03:33Z</time>
      </trkpt>
      <trkpt lat="43.79911000" lon="10.94318000">
        <ele>245.00000</ele>
        <time>2010-01-01T07:03:49Z</time>
      </trkpt>
      <trkpt lat="43.79901000" lon="10.94311000">
        <ele>246.00000</ele>
        <time>2010-01-01T07:03:53Z</time>
      </trkpt>
      <trkpt lat="43.79895000" lon="10.94310000">
        <ele>248.00000</ele>
        <time>2010-01-01T07:03:55Z</time>
      </trkpt>
      <trkpt lat="43.79885000" lon="10.94316000">
        <ele>252.00000</ele>
        <time>2010-01-01T07:04:00Z</time>
      </trkpt>
      <trkpt lat="43.79878000" lon="10.94317000">
        <ele>254.00000</ele>
        <time>2010-01-01T07:04:03Z</time>
      </trkpt>
      <trkpt lat="43.79872000" lon="10.94315000">
        <ele>255.00000</ele>
        <time>2010-01-01T07:04:05Z</time>
      </trkpt>
      <trkpt lat="43.79858000" lon="10.94301000">
        <ele>255.00000</ele>
        <time>2010-01-01T07:04:12Z</time>
      </trkpt>
      <trkpt lat="43.79842000" lon="10.94295000">
        <ele>258.00000</ele>
        <time>2010-01-01T07:04:19Z</time>
      </trkpt>
      <trkpt lat="43.79838000" lon="10.94290000">
        <ele>258.00000</ele>
        <time>2010-01-01T07:04:21Z</time>
      </trkpt>
      <trkpt lat="43.79835000" lon="10.94283000">
        <ele>258.00000</ele>
        <time>2010-01-01T07:04:23Z</time>
      </trkpt>
      <trkpt lat="43.79833000" lon="10.94241000">
        <ele>254.00000</ele>
        <time>2010-01-01T07:04:35Z</time>
      </trkpt>
      <trkpt lat="43.79804000" lon="10.94178000">
        <ele>255.00000</ele>
        <time>2010-01-01T07:04:57Z</time>
      </trkpt>
      <trkpt lat="43.79798000" lon="10.94170000">
        <ele>254.00000</ele>
        <time>2010-01-01T07:05:00Z</time>
      </trkpt>
      <trkpt lat="43.79793000" lon="10.94170000">
        <ele>255.00000</ele>
        <time>2010-01-01T07:05:02Z</time>
      </trkpt>
      <trkpt lat="43.79787000" lon="10.94175000">
        <ele>257.00000</ele>
        <time>2010-01-01T07:05:05Z</time>
      </trkpt>
      <trkpt lat="43.79782000" lon="10.94183000">
        <ele>259.00000</ele>
        <time>2010-01-01T07:05:08Z</time>
      </trkpt>
      <trkpt lat="43.79758000" lon="10.94205000">
        <ele>262.00000</ele>
        <time>2010-01-01T07:05:20Z</time>
      </trkpt>
      <trkpt lat="43.79712000" lon="10.94235000">
        <ele>266.00000</ele>
        <time>2010-01-01T07:05:40Z</time>
      </trkpt>
      <trkpt lat="43.79677000" lon="10.94261000">
        <ele>269.00000</ele>
        <time>2010-01-01T07:05:56Z</time>
      </trkpt>
      <trkpt lat="43.79663000" lon="10.94281000">
        <ele>269.00000</ele>
        <time>2010-01-01T07:06:04Z</time>
      </trkpt>
      <trkpt lat="43.79654000" lon="10.94321000">
        <ele>272.00000</ele>
        <time>2010-01-01T07:06:16Z</time>
      </trkpt>
      <trkpt lat="43.79629000" lon="10.94377000">
        <ele>275.00000</ele>
        <time>2010-01-01T07:06:35Z</time>
      </trkpt>
      <trkpt lat="43.79619000" lon="10.94403000">
        <ele>275.00000</ele>
        <time>2010-01-01T07:06:44Z</time>
      </trkpt>
      <trkpt lat="43.79613000" lon="10.94431000">
        <ele>277.00000</ele>
        <time>2010-01-01T07:06:52Z</time>
      </trkpt>
      <trkpt lat="43.79606000" lon="10.94489000">
        <ele>276.00000</ele>
        <time>2010-01-01T07:07:09Z</time>
      </trkpt>
      <trkpt lat="43.79607000" lon="10.94529000">
        <ele>277.00000</ele>
        <time>2010-01-01T07:07:21Z</time>
      </trkpt>
      <trkpt lat="43.79614000" lon="10.94565000">
        <ele>278.00000</ele>
        <time>2010-01-01T07:07:31Z</time>
      </trkpt>
      <trkpt lat="43.79637000" lon="10.94609000">
        <ele>280.00000</ele>
        <time>2010-01-01T07:07:47Z</time>
      </trkpt>
      <trkpt lat="43.79644000" lon="10.94695000">
        <ele>277.00000</ele>
        <time>2010-01-01T07:08:12Z</time>
      </trkpt>
      <trkpt lat="43.79648000" lon="10.94720000">
        <ele>279.00000</ele>
        <time>2010-01-01T07:08:19Z</time>
      </trkpt>
      <trkpt lat="43.79615000" lon="10.94786000">
        <ele>277.00000</ele>
        <time>2010-01-01T07:08:43Z</time>
      </trkpt>
      <trkpt lat="43.79609000" lon="10.94802000">
        <ele>277.00000</ele>
        <time>2010-01-01T07:08:48Z</time>
      </trkpt>
      <trkpt lat="43.79605000" lon="10.94822000">
        <ele>277.00000</ele>
        <time>2010-01-01T07:08:54Z</time>
      </trkpt>
      <trkpt lat="43.79627000" lon="10.94863000">
        <ele>282.00000</ele>
        <time>2010-01-01T07:09:09Z</time>
      </trkpt>
      <trkpt lat="43.79645000" lon="10.94932000">
        <ele>288.00000</ele>
        <time>2010-01-01T07:09:30Z</time>
      </trkpt>
      <trkpt lat="43.79664000" lon="10.94976000">
        <ele>292.00000</ele>
        <time>2010-01-01T07:09:45Z</time>
      </trkpt>
      <trkpt lat="43.79675000" lon="10.95018000">
        <ele>295.00000</ele>
        <time>2010-01-01T07:09:58Z</time>
      </trkpt>
      <trkpt lat="43.79676000" lon="10.95038000">
        <ele>298.00000</ele>
        <time>2010-01-01T07:10:03Z</time>
      </trkpt>
      <trkpt lat="43.79673000" lon="10.95053000">
        <ele>301.00000</ele>
        <time>2010-01-01T07:10:08Z</time>
      </trkpt>
      <trkpt lat="43.79665000" lon="10.95068000">
        <ele>304.00000</ele>
        <time>2010-01-01T07:10:13Z</time>
      </trkpt>
      <trkpt lat="43.79657000" lon="10.95071000">
        <ele>305.00000</ele>
        <time>2010-01-01T07:10:17Z</time>
      </trkpt>
      <trkpt lat="43.79645000" lon="10.95068000">
        <ele>304.00000</ele>
        <time>2010-01-01T07:10:21Z</time>
      </trkpt>
      <trkpt lat="43.79615000" lon="10.95047000">
        <ele>300.00000</ele>
        <time>2010-01-01T07:10:35Z</time>
      </trkpt>
      <trkpt lat="43.79609000" lon="10.95040000">
        <ele>299.00000</ele>
        <time>2010-01-01T07:10:38Z</time>
      </trkpt>
      <trkpt lat="43.79585000" lon="10.95030000">
        <ele>299.00000</ele>
        <time>2010-01-01T07:10:48Z</time>
      </trkpt>
      <trkpt lat="43.79555000" lon="10.95021000">
        <ele>301.00000</ele>
        <time>2010-01-01T07:11:00Z</time>
      </trkpt>
      <trkpt lat="43.79525000" lon="10.95022000">
        <ele>302.00000</ele>
        <time>2010-01-01T07:11:12Z</time>
      </trkpt>
      <trkpt lat="43.79504000" lon="10.95020000">
        <ele>300.00000</ele>
        <time>2010-01-01T07:11:21Z</time>
      </trkpt>
      <trkpt lat="43.79493000" lon="10.95027000">
        <ele>300.00000</ele>
        <time>2010-01-01T07:11:26Z</time>
      </trkpt>
      <trkpt lat="43.79486000" lon="10.95035000">
        <ele>300.00000</ele>
        <time>2010-01-01T07:11:29Z</time>
      </trkpt>
      <trkpt lat="43.79482000" lon="10.95052000">
        <ele>300.00000</ele>
        <time>2010-01-01T07:11:34Z</time>
      </trkpt>
      <trkpt lat="43.79481000" lon="10.95067000">
        <ele>299.00000</ele>
        <time>2010-01-01T07:11:39Z</time>
      </trkpt>
      <trkpt lat="43.79487000" lon="10.95138000">
        <ele>297.00000</ele>
        <time>2010-01-01T07:11:59Z</time>
      </trkpt>
      <trkpt lat="43.79487000" lon="10.95158000">
        <ele>299.00000</ele>
        <time>2010-01-01T07:12:05Z</time>
      </trkpt>
      <trkpt lat="43.79478000" lon="10.95177000">
        <ele>299.00000</ele>
        <time>2010-01-01T07:12:12Z</time>
      </trkpt>
      <trkpt lat="43.79459000" lon="10.95182000">
        <ele>296.00000</ele>
        <time>2010-01-01T07:12:20Z</time>
      </trkpt>
      <trkpt lat="43.79388000" lon="10.95178000">
        <ele>289.00000</ele>
        <time>2010-01-01T07:12:48Z</time>
      </trkpt>
      <trkpt lat="43.79375000" lon="10.95181000">
        <ele>290.00000</ele>
        <time>2010-01-01T07:12:53Z</time>
      </trkpt>
      <trkpt lat="43.79358000" lon="10.95188000">
        <ele>291.00000</ele>
        <time>2010-01-01T07:13:00Z</time>
      </trkpt>
      <trkpt lat="43.79355000" lon="10.95193000">
        <ele>291.00000</ele>
        <time>2010-01-01T07:13:02Z</time>
      </trkpt>
      <trkpt lat="43.79345000" lon="10.95235000">
        <ele>289.00000</ele>
        <time>2010-01-01T07:13:15Z</time>
      </trkpt>
      <trkpt lat="43.79345000" lon="10.95243000">
        <ele>288.00000</ele>
        <time>2010-01-01T07:13:17Z</time>
      </trkpt>
      <trkpt lat="43.79348000" lon="10.95252000">
        <ele>287.00000</ele>
        <time>2010-01-01T07:13:20Z</time>
      </trkpt>
      <trkpt lat="43.79372000" lon="10.95279000">
        <ele>287.00000</ele>
        <time>2010-01-01T07:13:33Z</time>
      </trkpt>
      <trkpt lat="43.79381000" lon="10.95294000">
        <ele>287.00000</ele>
        <time>2010-01-01T07:13:38Z</time>
      </trkpt>
      <trkpt lat="43.79382000" lon="10.95302000">
        <ele>287.00000</ele>
        <time>2010-01-01T07:13:41Z</time>
      </trkpt>
      <trkpt lat="43.79380000" lon="10.95311000">
        <ele>287.00000</ele>
        <time>2010-01-01T07:13:43Z</time>
      </trkpt>
      <trkpt lat="43.79375000" lon="10.95318000">
        <ele>287.00000</ele>
        <time>2010-01-01T07:13:46Z</time>
      </trkpt>
      <trkpt lat="43.79367000" lon="10.95323000">
        <ele>286.00000</ele>
        <time>2010-01-01T07:13:50Z</time>
      </trkpt>
      <trkpt lat="43.79339000" lon="10.95327000">
        <ele>285.00000</ele>
        <time>2010-01-01T07:14:01Z</time>
      </trkpt>
      <trkpt lat="43.79295000" lon="10.95338000">
        <ele>283.00000</ele>
        <time>2010-01-01T07:14:19Z</time>
      </trkpt>
      <trkpt lat="43.79270000" lon="10.95336000">
        <ele>281.00000</ele>
        <time>2010-01-01T07:14:29Z</time>
      </trkpt>
      <trkpt lat="43.79261000" lon="10.95339000">
        <ele>281.00000</ele>
        <time>2010-01-01T07:14:32Z</time>
      </trkpt>
      <trkpt lat="43.79249000" lon="10.95348000">
        <ele>281.00000</ele>
        <time>2010-01-01T07:14:38Z</time>
      </trkpt>
      <trkpt lat="43.79225000" lon="10.95370000">
        <ele>281.00000</ele>
        <time>2010-01-01T07:14:49Z</time>
      </trkpt>
      <trkpt lat="43.79217000" lon="10.95373000">
        <ele>281.00000</ele>
        <time>2010-01-01T07:14:53Z</time>
      </trkpt>
      <trkpt lat="43.79189000" lon="10.95372000">
        <ele>277.00000</ele>
        <time>2010-01-01T07:15:04Z</time>
      </trkpt>
      <trkpt lat="43.79181000" lon="10.95377000">
        <ele>277.00000</ele>
        <time>2010-01-01T07:15:08Z</time>
      </trkpt>
      <trkpt lat="43.79145000" lon="10.95417000">
        <ele>273.00000</ele>
        <time>2010-01-01T07:15:26Z</time>
      </trkpt>
      <trkpt lat="43.79110000" lon="10.95466000">
        <ele>269.00000</ele>
        <time>2010-01-01T07:15:46Z</time>
      </trkpt>
      <trkpt lat="43.79100000" lon="10.95487000">
        <ele>267.00000</ele>
        <time>2010-01-01T07:15:53Z</time>
      </trkpt>
      <trkpt lat="43.79095000" lon="10.95509000">
        <ele>265.00000</ele>
        <time>2010-01-01T07:16:00Z</time>
      </trkpt>
      <trkpt lat="43.79093000" lon="10.95531000">
        <ele>263.00000</ele>
        <time>2010-01-01T07:16:06Z</time>
      </trkpt>
      <trkpt lat="43.79096000" lon="10.95551000">
        <ele>262.00000</ele>
        <time>2010-01-01T07:16:12Z</time>
      </trkpt>
      <trkpt lat="43.79105000" lon="10.95572000">
        <ele>262.00000</ele>
        <time>2010-01-01T07:16:19Z</time>
      </trkpt>
      <trkpt lat="43.79123000" lon="10.95607000">
        <ele>265.00000</ele>
        <time>2010-01-01T07:16:32Z</time>
      </trkpt>
      <trkpt lat="43.79124000" lon="10.95614000">
        <ele>265.00000</ele>
        <time>2010-01-01T07:16:34Z</time>
      </trkpt>
      <trkpt lat="43.79123000" lon="10.95618000">
        <ele>265.00000</ele>
        <time>2010-01-01T07:16:35Z</time>
      </trkpt>
      <trkpt lat="43.79117000" lon="10.95627000">
        <ele>264.00000</ele>
        <time>2010-01-01T07:16:38Z</time>
      </trkpt>
      <trkpt lat="43.79088000" lon="10.95632000">
        <ele>260.00000</ele>
        <time>2010-01-01T07:16:50Z</time>
      </trkpt>
      <trkpt lat="43.79061000" lon="10.95632000">
        <ele>257.00000</ele>
        <time>2010-01-01T07:17:01Z</time>
      </trkpt>
      <trkpt lat="43.79020000" lon="10.95612000">
        <ele>252.00000</ele>
        <time>2010-01-01T07:17:18Z</time>
      </trkpt>
      <trkpt lat="43.78983000" lon="10.95574000">
        <ele>254.00000</ele>
        <time>2010-01-01T07:17:37Z</time>
      </trkpt>
      <trkpt lat="43.78944000" lon="10.95554000">
        <ele>252.00000</ele>
        <time>2010-01-01T07:17:53Z</time>
      </trkpt>
      <trkpt lat="43.78901000" lon="10.95515000">
        <ele>245.00000</ele>
        <time>2010-01-01T07:18:14Z</time>
      </trkpt>
      <trkpt lat="43.78850000" lon="10.95480000">
        <ele>238.00000</ele>
        <time>2010-01-01T07:18:37Z</time>
      </trkpt>
      <trkpt lat="43.78794000" lon="10.95428000">
        <ele>237.00000</ele>
        <time>2010-01-01T07:19:04Z</time>
      </trkpt>
      <trkpt lat="43.78770000" lon="10.95412000">
        <ele>238.00000</ele>
        <time>2010-01-01T07:19:14Z</time>
      </trkpt>
      <trkpt lat="43.78672000" lon="10.95382000">
        <ele>229.00000</ele>
        <time>2010-01-01T07:19:55Z</time>
      </trkpt>
      <trkpt lat="43.78656000" lon="10.95373000">
        <ele>227.00000</ele>
        <time>2010-01-01T07:20:02Z</time>
      </trkpt>
      <trkpt lat="43.78595000" lon="10.95326000">
        <ele>218.00000</ele>
        <time>2010-01-01T07:20:29Z</time>
      </trkpt>
      <trkpt lat="43.78466000" lon="10.95273000">
        <ele>213.00000</ele>
        <time>2010-01-01T07:21:23Z</time>
      </trkpt>
      <trkpt lat="43.78455000" lon="10.95275000">
        <ele>213.00000</ele>
        <time>2010-01-01T07:21:28Z</time>
      </trkpt>
      <trkpt lat="43.78444000" lon="10.95270000">
        <ele>212.00000</ele>
        <time>2010-01-01T07:21:32Z</time>
      </trkpt>
      <trkpt lat="43.78433000" lon="10.95257000">
        <ele>208.00000</ele>
        <time>2010-01-01T07:21:38Z</time>
      </trkpt>
      <trkpt lat="43.78392000" lon="10.95225000">
        <ele>200.00000</ele>
        <time>2010-01-01T07:21:57Z</time>
      </trkpt>
      <trkpt lat="43.78354000" lon="10.95177000">
        <ele>195.00000</ele>
        <time>2010-01-01T07:22:18Z</time>
      </trkpt>
      <trkpt lat="43.78332000" lon="10.95144000">
        <ele>192.00000</ele>
        <time>2010-01-01T07:22:31Z</time>
      </trkpt>
      <trkpt lat="43.78325000" lon="10.95139000">
        <ele>191.00000</ele>
        <time>2010-01-01T07:22:34Z</time>
      </trkpt>
      <trkpt lat="43.78314000" lon="10.95138000">
        <ele>189.00000</ele>
        <time>2010-01-01T07:22:38Z</time>
      </trkpt>
      <trkpt lat="43.78301000" lon="10.95133000">
        <ele>188.00000</ele>
        <time>2010-01-01T07:22:44Z</time>
      </trkpt>
      <trkpt lat="43.78263000" lon="10.95106000">
        <ele>184.00000</ele>
        <time>2010-01-01T07:23:01Z</time>
      </trkpt>
      <trkpt lat="43.78147000" lon="10.95011000">
        <ele>177.00000</ele>
        <time>2010-01-01T07:23:55Z</time>
      </trkpt>
      <trkpt lat="43.78096000" lon="10.94962000">
        <ele>174.00000</ele>
        <time>2010-01-01T07:24:19Z</time>
      </trkpt>
      <trkpt lat="43.78075000" lon="10.94945000">
        <ele>172.00000</ele>
        <time>2010-01-01T07:24:29Z</time>
      </trkpt>
      <trkpt lat="43.78069000" lon="10.94908000">
        <ele>168.00000</ele>
        <time>2010-01-01T07:24:40Z</time>
      </trkpt>
      <trkpt lat="43.78060000" lon="10.94891000">
        <ele>165.00000</ele>
        <time>2010-01-01T07:24:46Z</time>
      </trkpt>
      <trkpt lat="43.78049000" lon="10.94878000">
        <ele>163.00000</ele>
        <time>2010-01-01T07:24:52Z</time>
      </trkpt>
      <trkpt lat="43.78023000" lon="10.94865000">
        <ele>161.00000</ele>
        <time>2010-01-01T07:25:03Z</time>
      </trkpt>
      <trkpt lat="43.77998000" lon="10.94843000">
        <ele>159.00000</ele>
        <time>2010-01-01T07:25:15Z</time>
      </trkpt>
      <trkpt lat="43.77978000" lon="10.94819000">
        <ele>157.00000</ele>
        <time>2010-01-01T07:25:26Z</time>
      </trkpt>
      <trkpt lat="43.77954000" lon="10.94796000">
        <ele>154.00000</ele>
        <time>2010-01-01T07:25:37Z</time>
      </trkpt>
      <trkpt lat="43.77902000" lon="10.94770000">
        <ele>154.00000</ele>
        <time>2010-01-01T07:25:59Z</time>
      </trkpt>
      <trkpt lat="43.77838000" lon="10.94724000">
        <ele>152.00000</ele>
        <time>2010-01-01T07:26:28Z</time>
      </trkpt>
      <trkpt lat="43.77826000" lon="10.94725000">
        <ele>152.00000</ele>
        <time>2010-01-01T07:26:33Z</time>
      </trkpt>
      <trkpt lat="43.77793000" lon="10.94751000">
        <ele>150.00000</ele>
        <time>2010-01-01T07:26:48Z</time>
      </trkpt>
      <trkpt lat="43.77772000" lon="10.94763000">
        <ele>149.00000</ele>
        <time>2010-01-01T07:26:57Z</time>
      </trkpt>
      <trkpt lat="43.77740000" lon="10.94772000">
        <ele>145.00000</ele>
        <time>2010-01-01T07:27:10Z</time>
      </trkpt>
      <trkpt lat="43.77734000" lon="10.94776000">
        <ele>144.00000</ele>
        <time>2010-01-01T07:27:13Z</time>
      </trkpt>
      <trkpt lat="43.77728000" lon="10.94782000">
        <ele>142.00000</ele>
        <time>2010-01-01T07:27:16Z</time>
      </trkpt>
      <trkpt lat="43.77725000" lon="10.94789000">
        <ele>141.00000</ele>
        <time>2010-01-01T07:27:18Z</time>
      </trkpt>
      <trkpt lat="43.77722000" lon="10.94803000">
        <ele>140.00000</ele>
        <time>2010-01-01T07:27:23Z</time>
      </trkpt>
      <trkpt lat="43.77718000" lon="10.94843000">
        <ele>135.00000</ele>
        <time>2010-01-01T07:27:34Z</time>
      </trkpt>
      <trkpt lat="43.77718000" lon="10.94885000">
        <ele>128.00000</ele>
        <time>2010-01-01T07:27:46Z</time>
      </trkpt>
      <trkpt lat="43.77723000" lon="10.94906000">
        <ele>126.00000</ele>
        <time>2010-01-01T07:27:53Z</time>
      </trkpt>
      <trkpt lat="43.77732000" lon="10.94919000">
        <ele>125.00000</ele>
        <time>2010-01-01T07:27:58Z</time>
      </trkpt>
      <trkpt lat="43.77740000" lon="10.94927000">
        <ele>124.00000</ele>
        <time>2010-01-01T07:28:02Z</time>
      </trkpt>
      <trkpt lat="43.77759000" lon="10.94934000">
        <ele>124.00000</ele>
        <time>2010-01-01T07:28:10Z</time>
      </trkpt>
      <trkpt lat="43.77782000" lon="10.94935000">
        <ele>126.00000</ele>
        <time>2010-01-01T07:28:19Z</time>
      </trkpt>
      <trkpt lat="43.77795000" lon="10.94937000">
        <ele>126.00000</ele>
        <time>2010-01-01T07:28:24Z</time>
      </trkpt>
      <trkpt lat="43.77807000" lon="10.94950000">
        <ele>123.00000</ele>
        <time>2010-01-01T07:28:30Z</time>
      </trkpt>
      <trkpt lat="43.77823000" lon="10.94972000">
        <ele>119.00000</ele>
        <time>2010-01-01T07:28:39Z</time>
      </trkpt>
      <trkpt lat="43.77820000" lon="10.94985000">
        <ele>119.00000</ele>
        <time>2010-01-01T07:28:43Z</time>
      </trkpt>
      <trkpt lat="43.77812000" lon="10.94993000">
        <ele>119.00000</ele>
        <time>2010-01-01T07:28:47Z</time>
      </trkpt>
      <trkpt lat="43.77795000" lon="10.94993000">
        <ele>120.00000</ele>
        <time>2010-01-01T07:28:54Z</time>
      </trkpt>
      <trkpt lat="43.77767000" lon="10.95001000">
        <ele>120.00000</ele>
        <time>2010-01-01T07:29:06Z</time>
      </trkpt>
      <trkpt lat="43.77750000" lon="10.95001000">
        <ele>121.00000</ele>
        <time>2010-01-01T07:29:12Z</time>
      </trkpt>
      <trkpt lat="43.77738000" lon="10.94996000">
        <ele>122.00000</ele>
        <time>2010-01-01T07:29:17Z</time>
      </trkpt>
      <trkpt lat="43.77720000" lon="10.94982000">
        <ele>122.00000</ele>
        <time>2010-01-01T07:29:26Z</time>
      </trkpt>
      <trkpt lat="43.77702000" lon="10.94975000">
        <ele>123.00000</ele>
        <time>2010-01-01T07:29:33Z</time>
      </trkpt>
      <trkpt lat="43.77678000" lon="10.94977000">
        <ele>126.00000</ele>
        <time>2010-01-01T07:29:43Z</time>
      </trkpt>
      <trkpt lat="43.77657000" lon="10.94972000">
        <ele>127.00000</ele>
        <time>2010-01-01T07:29:51Z</time>
      </trkpt>
      <trkpt lat="43.77627000" lon="10.94949000">
        <ele>124.00000</ele>
        <time>2010-01-01T07:30:05Z</time>
      </trkpt>
      <trkpt lat="43.77617000" lon="10.94949000">
        <ele>125.00000</ele>
        <time>2010-01-01T07:30:09Z</time>
      </trkpt>
      <trkpt lat="43.77590000" lon="10.94958000">
        <ele>129.00000</ele>
        <time>2010-01-01T07:30:20Z</time>
      </trkpt>
      <trkpt lat="43.77577000" lon="10.94977000">
        <ele>134.00000</ele>
        <time>2010-01-01T07:30:28Z</time>
      </trkpt>
      <trkpt lat="43.77534000" lon="10.94997000">
        <ele>133.00000</ele>
        <time>2010-01-01T07:30:46Z</time>
      </trkpt>
      <trkpt lat="43.77506000" lon="10.95015000">
        <ele>135.00000</ele>
        <time>2010-01-01T07:30:58Z</time>
      </trkpt>
      <trkpt lat="43.77481000" lon="10.95047000">
        <ele>138.00000</ele>
        <time>2010-01-01T07:31:12Z</time>
      </trkpt>
      <trkpt lat="43.77455000" lon="10.95103000">
        <ele>141.00000</ele>
        <time>2010-01-01T07:31:31Z</time>
      </trkpt>
      <trkpt lat="43.77445000" lon="10.95110000">
        <ele>140.00000</ele>
        <time>2010-01-01T07:31:36Z</time>
      </trkpt>
      <trkpt lat="43.77428000" lon="10.95108000">
        <ele>139.00000</ele>
        <time>2010-01-01T07:31:42Z</time>
      </trkpt>
      <trkpt lat="43.77390000" lon="10.95123000">
        <ele>139.00000</ele>
        <time>2010-01-01T07:31:58Z</time>
      </trkpt>
      <trkpt lat="43.77377000" lon="10.95121000">
        <ele>139.00000</ele>
        <time>2010-01-01T07:32:03Z</time>
      </trkpt>
      <trkpt lat="43.77363000" lon="10.95117000">
        <ele>139.00000</ele>
        <time>2010-01-01T07:32:09Z</time>
      </trkpt>
      <trkpt lat="43.77307000" lon="10.95091000">
        <ele>141.00000</ele>
        <time>2010-01-01T07:32:33Z</time>
      </trkpt>
      <trkpt lat="43.77282000" lon="10.95075000">
        <ele>140.00000</ele>
        <time>2010-01-01T07:32:44Z</time>
      </trkpt>
      <trkpt lat="43.77283000" lon="10.95084000">
        <ele>141.00000</ele>
        <time>2010-01-01T07:32:46Z</time>
      </trkpt>
      <trkpt lat="43.77313000" lon="10.95115000">
        <ele>142.00000</ele>
        <time>2010-01-01T07:33:01Z</time>
      </trkpt>
      <trkpt lat="43.77407000" lon="10.95248000">
        <ele>158.00000</ele>
        <time>2010-01-01T07:33:55Z</time>
      </trkpt>
      <trkpt lat="43.77427000" lon="10.95272000">
        <ele>162.00000</ele>
        <time>2010-01-01T07:34:06Z</time>
      </trkpt>
      <trkpt lat="43.77442000" lon="10.95285000">
        <ele>163.00000</ele>
        <time>2010-01-01T07:34:13Z</time>
      </trkpt>
      <trkpt lat="43.77457000" lon="10.95291000">
        <ele>164.00000</ele>
        <time>2010-01-01T07:34:19Z</time>
      </trkpt>
      <trkpt lat="43.77484000" lon="10.95294000">
        <ele>165.00000</ele>
        <time>2010-01-01T07:34:30Z</time>
      </trkpt>
      <trkpt lat="43.77497000" lon="10.95293000">
        <ele>165.00000</ele>
        <time>2010-01-01T07:34:35Z</time>
      </trkpt>
      <trkpt lat="43.77563000" lon="10.95271000">
        <ele>171.00000</ele>
        <time>2010-01-01T07:35:02Z</time>
      </trkpt>
      <trkpt lat="43.77573000" lon="10.95275000">
        <ele>172.00000</ele>
        <time>2010-01-01T07:35:07Z</time>
      </trkpt>
      <trkpt lat="43.77683000" lon="10.95345000">
        <ele>186.00000</ele>
        <time>2010-01-01T07:35:55Z</time>
      </trkpt>
      <trkpt lat="43.77751000" lon="10.95399000">
        <ele>188.00000</ele>
        <time>2010-01-01T07:36:26Z</time>
      </trkpt>
      <trkpt lat="43.77771000" lon="10.95419000">
        <ele>188.00000</ele>
        <time>2010-01-01T07:36:36Z</time>
      </trkpt>
      <trkpt lat="43.77806000" lon="10.95463000">
        <ele>185.00000</ele>
        <time>2010-01-01T07:36:55Z</time>
      </trkpt>
      <trkpt lat="43.77814000" lon="10.95470000">
        <ele>185.00000</ele>
        <time>2010-01-01T07:36:59Z</time>
      </trkpt>
      <trkpt lat="43.77961000" lon="10.95518000">
        <ele>185.00000</ele>
        <time>2010-01-01T07:37:59Z</time>
      </trkpt>
      <trkpt lat="43.78052000" lon="10.95533000">
        <ele>187.00000</ele>
        <time>2010-01-01T07:38:36Z</time>
      </trkpt>
      <trkpt lat="43.78059000" lon="10.95538000">
        <ele>188.00000</ele>
        <time>2010-01-01T07:38:39Z</time>
      </trkpt>
      <trkpt lat="43.78073000" lon="10.95577000">
        <ele>188.00000</ele>
        <time>2010-01-01T07:38:52Z</time>
      </trkpt>
      <trkpt lat="43.78103000" lon="10.95625000">
        <ele>188.00000</ele>
        <time>2010-01-01T07:39:10Z</time>
      </trkpt>
      <trkpt lat="43.78148000" lon="10.95680000">
        <ele>185.00000</ele>
        <time>2010-01-01T07:39:34Z</time>
      </trkpt>
      <trkpt lat="43.78164000" lon="10.95702000">
        <ele>183.00000</ele>
        <time>2010-01-01T07:39:43Z</time>
      </trkpt>
      <trkpt lat="43.78166000" lon="10.95713000">
        <ele>182.00000</ele>
        <time>2010-01-01T07:39:47Z</time>
      </trkpt>
      <trkpt lat="43.78157000" lon="10.95729000">
        <ele>184.00000</ele>
        <time>2010-01-01T07:39:52Z</time>
      </trkpt>
      <trkpt lat="43.78144000" lon="10.95740000">
        <ele>187.00000</ele>
        <time>2010-01-01T07:39:59Z</time>
      </trkpt>
      <trkpt lat="43.78131000" lon="10.95746000">
        <ele>192.00000</ele>
        <time>2010-01-01T07:40:04Z</time>
      </trkpt>
      <trkpt lat="43.78127000" lon="10.95745000">
        <ele>193.00000</ele>
        <time>2010-01-01T07:40:06Z</time>
      </trkpt>
      <trkpt lat="43.78115000" lon="10.95725000">
        <ele>191.00000</ele>
        <time>2010-01-01T07:40:13Z</time>
      </trkpt>
      <trkpt lat="43.78107000" lon="10.95717000">
        <ele>191.00000</ele>
        <time>2010-01-01T07:40:17Z</time>
      </trkpt>
      <trkpt lat="43.78096000" lon="10.95710000">
        <ele>191.00000</ele>
        <time>2010-01-01T07:40:22Z</time>
      </trkpt>
      <trkpt lat="43.78059000" lon="10.95692000">
        <ele>189.00000</ele>
        <time>2010-01-01T07:40:38Z</time>
      </trkpt>
      <trkpt lat="43.78045000" lon="10.95682000">
        <ele>185.00000</ele>
        <time>2010-01-01T07:40:44Z</time>
      </trkpt>
      <trkpt lat="43.78038000" lon="10.95682000">
        <ele>185.00000</ele>
        <time>2010-01-01T07:40:47Z</time>
      </trkpt>
      <trkpt lat="43.78026000" lon="10.95691000">
        <ele>186.00000</ele>
        <time>2010-01-01T07:40:52Z</time>
      </trkpt>
      <trkpt lat="43.78022000" lon="10.95701000">
        <ele>188.00000</ele>
        <time>2010-01-01T07:40:56Z</time>
      </trkpt>
      <trkpt lat="43.78021000" lon="10.95723000">
        <ele>194.00000</ele>
        <time>2010-01-01T07:41:02Z</time>
      </trkpt>
      <trkpt lat="43.78023000" lon="10.95735000">
        <ele>195.00000</ele>
        <time>2010-01-01T07:41:05Z</time>
      </trkpt>
      <trkpt lat="43.78021000" lon="10.95744000">
        <ele>196.00000</ele>
        <time>2010-01-01T07:41:08Z</time>
      </trkpt>
      <trkpt lat="43.78018000" lon="10.95750000">
        <ele>197.00000</ele>
        <time>2010-01-01T07:41:10Z</time>
      </trkpt>
      <trkpt lat="43.78014000" lon="10.95752000">
        <ele>197.00000</ele>
        <time>2010-01-01T07:41:12Z</time>
      </trkpt>
      <trkpt lat="43.78001000" lon="10.95748000">
        <ele>195.00000</ele>
        <time>2010-01-01T07:41:17Z</time>
      </trkpt>
      <trkpt lat="43.77951000" lon="10.95721000">
        <ele>192.00000</ele>
        <time>2010-01-01T07:41:39Z</time>
      </trkpt>
      <trkpt lat="43.77935000" lon="10.95719000">
        <ele>192.00000</ele>
        <time>2010-01-01T07:41:45Z</time>
      </trkpt>
      <trkpt lat="43.77796000" lon="10.95748000">
        <ele>203.00000</ele>
        <time>2010-01-01T07:42:41Z</time>
      </trkpt>
      <trkpt lat="43.77775000" lon="10.95756000">
        <ele>206.00000</ele>
        <time>2010-01-01T07:42:50Z</time>
      </trkpt>
      <trkpt lat="43.77761000" lon="10.95766000">
        <ele>207.00000</ele>
        <time>2010-01-01T07:42:57Z</time>
      </trkpt>
      <trkpt lat="43.77749000" lon="10.95780000">
        <ele>209.00000</ele>
        <time>2010-01-01T07:43:03Z</time>
      </trkpt>
      <trkpt lat="43.77700000" lon="10.95882000">
        <ele>209.00000</ele>
        <time>2010-01-01T07:43:38Z</time>
      </trkpt>
      <trkpt lat="43.77697000" lon="10.95905000">
        <ele>210.00000</ele>
        <time>2010-01-01T07:43:45Z</time>
      </trkpt>
      <trkpt lat="43.77702020" lon="10.95924850">
        <ele>211.00000</ele>
        <time>2010-01-01T07:43:51Z</time>
      </trkpt>
      <trkpt lat="43.77716000" lon="10.95936000">
        <ele>213.00000</ele>
        <time>2010-01-01T07:43:57Z</time>
      </trkpt>
      <trkpt lat="43.77724000" lon="10.95938000">
        <ele>214.00000</ele>
        <time>2010-01-01T07:44:01Z</time>
      </trkpt>
      <trkpt lat="43.77741000" lon="10.95929000">
        <ele>216.00000</ele>
        <time>2010-01-01T07:44:08Z</time>
      </trkpt>
      <trkpt lat="43.77761000" lon="10.95903000">
        <ele>218.00000</ele>
        <time>2010-01-01T07:44:19Z</time>
      </trkpt>
      <trkpt lat="43.77768000" lon="10.95898000">
        <ele>218.00000</ele>
        <time>2010-01-01T07:44:22Z</time>
      </trkpt>
      <trkpt lat="43.77778000" lon="10.95897000">
        <ele>219.00000</ele>
        <time>2010-01-01T07:44:26Z</time>
      </trkpt>
      <trkpt lat="43.77788000" lon="10.95901000">
        <ele>219.00000</ele>
        <time>2010-01-01T07:44:30Z</time>
      </trkpt>
      <trkpt lat="43.77815000" lon="10.95916000">
        <ele>221.00000</ele>
        <time>2010-01-01T07:44:42Z</time>
      </trkpt>
      <trkpt lat="43.77839000" lon="10.95922000">
        <ele>224.00000</ele>
        <time>2010-01-01T07:44:52Z</time>
      </trkpt>
      <trkpt lat="43.77914000" lon="10.95922000">
        <ele>229.00000</ele>
        <time>2010-01-01T07:45:22Z</time>
      </trkpt>
      <trkpt lat="43.77939000" lon="10.95925000">
        <ele>229.00000</ele>
        <time>2010-01-01T07:45:32Z</time>
      </trkpt>
      <trkpt lat="43.77958000" lon="10.95931000">
        <ele>229.00000</ele>
        <time>2010-01-01T07:45:40Z</time>
      </trkpt>
      <trkpt lat="43.77970000" lon="10.95939000">
        <ele>229.00000</ele>
        <time>2010-01-01T07:45:45Z</time>
      </trkpt>
      <trkpt lat="43.78048000" lon="10.96032000">
        <ele>235.00000</ele>
        <time>2010-01-01T07:46:26Z</time>
      </trkpt>
      <trkpt lat="43.78060000" lon="10.96057000">
        <ele>236.00000</ele>
        <time>2010-01-01T07:46:35Z</time>
      </trkpt>
      <trkpt lat="43.78060680" lon="10.96062180">
        <ele>237.00000</ele>
        <time>2010-01-01T07:46:36Z</time>
      </trkpt>
      <trkpt lat="43.78062000" lon="10.96068000">
        <ele>238.00000</ele>
        <time>2010-01-01T07:46:38Z</time>
      </trkpt>
      <trkpt lat="43.78062000" lon="10.96082000">
        <ele>240.00000</ele>
        <time>2010-01-01T07:46:42Z</time>
      </trkpt>
      <trkpt lat="43.78060000" lon="10.96096000">
        <ele>241.00000</ele>
        <time>2010-01-01T07:46:46Z</time>
      </trkpt>
      <trkpt lat="43.78054000" lon="10.96109000">
        <ele>242.00000</ele>
        <time>2010-01-01T07:46:51Z</time>
      </trkpt>
      <trkpt lat="43.78047000" lon="10.96120000">
        <ele>243.00000</ele>
        <time>2010-01-01T07:46:55Z</time>
      </trkpt>
      <trkpt lat="43.78035000" lon="10.96147000">
        <ele>243.00000</ele>
        <time>2010-01-01T07:47:04Z</time>
      </trkpt>
      <trkpt lat="43.78032000" lon="10.96167000">
        <ele>244.00000</ele>
        <time>2010-01-01T07:47:10Z</time>
      </trkpt>
      <trkpt lat="43.78031000" lon="10.96190000">
        <ele>246.00000</ele>
        <time>2010-01-01T07:47:17Z</time>
      </trkpt>
      <trkpt lat="43.78033000" lon="10.96213000">
        <ele>248.00000</ele>
        <time>2010-01-01T07:47:23Z</time>
      </trkpt>
      <trkpt lat="43.78041000" lon="10.96258000">
        <ele>253.00000</ele>
        <time>2010-01-01T07:47:37Z</time>
      </trkpt>
      <trkpt lat="43.78041000" lon="10.96272000">
        <ele>254.00000</ele>
        <time>2010-01-01T07:47:41Z</time>
      </trkpt>
      <trkpt lat="43.78025000" lon="10.96329000">
        <ele>257.00000</ele>
        <time>2010-01-01T07:47:59Z</time>
      </trkpt>
      <trkpt lat="43.78024000" lon="10.96376000">
        <ele>264.00000</ele>
        <time>2010-01-01T07:48:12Z</time>
      </trkpt>
      <trkpt lat="43.78018000" lon="10.96386000">
        <ele>265.00000</ele>
        <time>2010-01-01T07:48:16Z</time>
      </trkpt>
      <trkpt lat="43.78013000" lon="10.96389000">
        <ele>266.00000</ele>
        <time>2010-01-01T07:48:18Z</time>
      </trkpt>
      <trkpt lat="43.78006000" lon="10.96387000">
        <ele>266.00000</ele>
        <time>2010-01-01T07:48:21Z</time>
      </trkpt>
      <trkpt lat="43.77998000" lon="10.96382000">
        <ele>265.00000</ele>
        <time>2010-01-01T07:48:24Z</time>
      </trkpt>
      <trkpt lat="43.77971000" lon="10.96354000">
        <ele>263.00000</ele>
        <time>2010-01-01T07:48:38Z</time>
      </trkpt>
      <trkpt lat="43.77965000" lon="10.96350000">
        <ele>262.00000</ele>
        <time>2010-01-01T07:48:41Z</time>
      </trkpt>
      <trkpt lat="43.77949000" lon="10.96352000">
        <ele>263.00000</ele>
        <time>2010-01-01T07:48:47Z</time>
      </trkpt>
      <trkpt lat="43.77942000" lon="10.96358000">
        <ele>263.00000</ele>
        <time>2010-01-01T07:48:50Z</time>
      </trkpt>
      <trkpt lat="43.77934000" lon="10.96375000">
        <ele>264.00000</ele>
        <time>2010-01-01T07:48:56Z</time>
      </trkpt>
      <trkpt lat="43.77946000" lon="10.96485000">
        <ele>270.00000</ele>
        <time>2010-01-01T07:49:28Z</time>
      </trkpt>
      <trkpt lat="43.77954000" lon="10.96517000">
        <ele>273.00000</ele>
        <time>2010-01-01T07:49:38Z</time>
      </trkpt>
      <trkpt lat="43.77975000" lon="10.96541000">
        <ele>276.00000</ele>
        <time>2010-01-01T07:49:49Z</time>
      </trkpt>
      <trkpt lat="43.77992000" lon="10.96544000">
        <ele>279.00000</ele>
        <time>2010-01-01T07:49:56Z</time>
      </trkpt>
      <trkpt lat="43.78038000" lon="10.96541000">
        <ele>286.00000</ele>
        <time>2010-01-01T07:50:14Z</time>
      </trkpt>
      <trkpt lat="43.78051000" lon="10.96553000">
        <ele>287.00000</ele>
        <time>2010-01-01T07:50:21Z</time>
      </trkpt>
      <trkpt lat="43.78052000" lon="10.96570000">
        <ele>289.00000</ele>
        <time>2010-01-01T07:50:25Z</time>
      </trkpt>
      <trkpt lat="43.78010000" lon="10.96644000">
        <ele>288.00000</ele>
        <time>2010-01-01T07:50:53Z</time>
      </trkpt>
      <trkpt lat="43.78000000" lon="10.96666000">
        <ele>288.00000</ele>
        <time>2010-01-01T07:51:00Z</time>
      </trkpt>
      <trkpt lat="43.77999000" lon="10.96690000">
        <ele>291.00000</ele>
        <time>2010-01-01T07:51:07Z</time>
      </trkpt>
      <trkpt lat="43.78008000" lon="10.96712000">
        <ele>291.00000</ele>
        <time>2010-01-01T07:51:14Z</time>
      </trkpt>
      <trkpt lat="43.78076000" lon="10.96782000">
        <ele>296.00000</ele>
        <time>2010-01-01T07:51:48Z</time>
      </trkpt>
      <trkpt lat="43.78147000" lon="10.96839000">
        <ele>309.00000</ele>
        <time>2010-01-01T07:52:21Z</time>
      </trkpt>
      <trkpt lat="43.78154000" lon="10.96853000">
        <ele>310.00000</ele>
        <time>2010-01-01T07:52:26Z</time>
      </trkpt>
      <trkpt lat="43.78156000" lon="10.96861000">
        <ele>310.00000</ele>
        <time>2010-01-01T07:52:29Z</time>
      </trkpt>
      <trkpt lat="43.78155000" lon="10.96873000">
        <ele>311.00000</ele>
        <time>2010-01-01T07:52:32Z</time>
      </trkpt>
      <trkpt lat="43.78152000" lon="10.96882000">
        <ele>311.00000</ele>
        <time>2010-01-01T07:52:35Z</time>
      </trkpt>
      <trkpt lat="43.78146000" lon="10.96890000">
        <ele>311.00000</ele>
        <time>2010-01-01T07:52:38Z</time>
      </trkpt>
      <trkpt lat="43.78044000" lon="10.96950000">
        <ele>311.00000</ele>
        <time>2010-01-01T07:53:23Z</time>
      </trkpt>
      <trkpt lat="43.78034000" lon="10.96964000">
        <ele>311.00000</ele>
        <time>2010-01-01T07:53:28Z</time>
      </trkpt>
      <trkpt lat="43.78032000" lon="10.96976000">
        <ele>312.00000</ele>
        <time>2010-01-01T07:53:32Z</time>
      </trkpt>
      <trkpt lat="43.78033000" lon="10.96985000">
        <ele>312.00000</ele>
        <time>2010-01-01T07:53:35Z</time>
      </trkpt>
      <trkpt lat="43.78036000" lon="10.96994000">
        <ele>313.00000</ele>
        <time>2010-01-01T07:53:37Z</time>
      </trkpt>
      <trkpt lat="43.78041000" lon="10.97002000">
        <ele>314.00000</ele>
        <time>2010-01-01T07:53:40Z</time>
      </trkpt>
      <trkpt lat="43.78075000" lon="10.97023000">
        <ele>316.00000</ele>
        <time>2010-01-01T07:53:55Z</time>
      </trkpt>
      <trkpt lat="43.78085000" lon="10.97033000">
        <ele>317.00000</ele>
        <time>2010-01-01T07:54:00Z</time>
      </trkpt>
      <trkpt lat="43.78126000" lon="10.97102000">
        <ele>322.00000</ele>
        <time>2010-01-01T07:54:26Z</time>
      </trkpt>
      <trkpt lat="43.78135000" lon="10.97114000">
        <ele>323.00000</ele>
        <time>2010-01-01T07:54:31Z</time>
      </trkpt>
      <trkpt lat="43.78157000" lon="10.97129000">
        <ele>326.00000</ele>
        <time>2010-01-01T07:54:41Z</time>
      </trkpt>
      <trkpt lat="43.78166000" lon="10.97139000">
        <ele>327.00000</ele>
        <time>2010-01-01T07:54:46Z</time>
      </trkpt>
      <trkpt lat="43.78173000" lon="10.97152000">
        <ele>328.00000</ele>
        <time>2010-01-01T07:54:50Z</time>
      </trkpt>
      <trkpt lat="43.78197000" lon="10.97233000">
        <ele>335.00000</ele>
        <time>2010-01-01T07:55:16Z</time>
      </trkpt>
      <trkpt lat="43.78191000" lon="10.97276000">
        <ele>335.00000</ele>
        <time>2010-01-01T07:55:28Z</time>
      </trkpt>
      <trkpt lat="43.78176000" lon="10.97300000">
        <ele>336.00000</ele>
        <time>2010-01-01T07:55:37Z</time>
      </trkpt>
      <trkpt lat="43.78119000" lon="10.97315000">
        <ele>335.00000</ele>
        <time>2010-01-01T07:56:01Z</time>
      </trkpt>
      <trkpt lat="43.78044000" lon="10.97423000">
        <ele>339.00000</ele>
        <time>2010-01-01T07:56:44Z</time>
      </trkpt>
      <trkpt lat="43.78037000" lon="10.97437000">
        <ele>340.00000</ele>
        <time>2010-01-01T07:56:49Z</time>
      </trkpt>
      <trkpt lat="43.78026000" lon="10.97450000">
        <ele>341.00000</ele>
        <time>2010-01-01T07:56:55Z</time>
      </trkpt>
      <trkpt lat="43.77963000" lon="10.97487000">
        <ele>346.00000</ele>
        <time>2010-01-01T07:57:22Z</time>
      </trkpt>
      <trkpt lat="43.77909000" lon="10.97591000">
        <ele>352.00000</ele>
        <time>2010-01-01T07:57:59Z</time>
      </trkpt>
      <trkpt lat="43.77905000" lon="10.97618000">
        <ele>354.00000</ele>
        <time>2010-01-01T07:58:07Z</time>
      </trkpt>
      <trkpt lat="43.77909000" lon="10.97639000">
        <ele>356.00000</ele>
        <time>2010-01-01T07:58:13Z</time>
      </trkpt>
      <trkpt lat="43.77927000" lon="10.97682000">
        <ele>355.00000</ele>
        <time>2010-01-01T07:58:28Z</time>
      </trkpt>
      <trkpt lat="43.77943000" lon="10.97700000">
        <ele>355.00000</ele>
        <time>2010-01-01T07:58:36Z</time>
      </trkpt>
      <trkpt lat="43.77959000" lon="10.97708000">
        <ele>356.00000</ele>
        <time>2010-01-01T07:58:43Z</time>
      </trkpt>
      <trkpt lat="43.77980000" lon="10.97705000">
        <ele>360.00000</ele>
        <time>2010-01-01T07:58:51Z</time>
      </trkpt>
      <trkpt lat="43.77995000" lon="10.97700000">
        <ele>363.00000</ele>
        <time>2010-01-01T07:58:57Z</time>
      </trkpt>
      <trkpt lat="43.78008000" lon="10.97702000">
        <ele>365.00000</ele>
        <time>2010-01-01T07:59:03Z</time>
      </trkpt>
      <trkpt lat="43.78019000" lon="10.97710000">
        <ele>365.00000</ele>
        <time>2010-01-01T07:59:08Z</time>
      </trkpt>
      <trkpt lat="43.78051000" lon="10.97742000">
        <ele>364.00000</ele>
        <time>2010-01-01T07:59:23Z</time>
      </trkpt>
      <trkpt lat="43.78067000" lon="10.97750000">
        <ele>365.00000</ele>
        <time>2010-01-01T07:59:30Z</time>
      </trkpt>
      <trkpt lat="43.78088000" lon="10.97750000">
        <ele>368.00000</ele>
        <time>2010-01-01T07:59:39Z</time>
      </trkpt>
      <trkpt lat="43.78105000" lon="10.97748000">
        <ele>368.00000</ele>
        <time>2010-01-01T07:59:45Z</time>
      </trkpt>
      <trkpt lat="43.78206000" lon="10.97718000">
        <ele>375.00000</ele>
        <time>2010-01-01T08:00:27Z</time>
      </trkpt>
      <trkpt lat="43.78283000" lon="10.97750000">
        <ele>379.00000</ele>
        <time>2010-01-01T08:00:59Z</time>
      </trkpt>
      <trkpt lat="43.78337000" lon="10.97755000">
        <ele>381.00000</ele>
        <time>2010-01-01T08:01:21Z</time>
      </trkpt>
      <trkpt lat="43.78381000" lon="10.97735000">
        <ele>384.00000</ele>
        <time>2010-01-01T08:01:39Z</time>
      </trkpt>
      <trkpt lat="43.78413000" lon="10.97729000">
        <ele>386.00000</ele>
        <time>2010-01-01T08:01:52Z</time>
      </trkpt>
      <trkpt lat="43.78467000" lon="10.97730000">
        <ele>391.00000</ele>
        <time>2010-01-01T08:02:14Z</time>
      </trkpt>
      <trkpt lat="43.78523000" lon="10.97745000">
        <ele>397.00000</ele>
        <time>2010-01-01T08:02:37Z</time>
      </trkpt>
      <trkpt lat="43.78530000" lon="10.97750000">
        <ele>397.00000</ele>
        <time>2010-01-01T08:02:40Z</time>
      </trkpt>
      <trkpt lat="43.78534000" lon="10.97756000">
        <ele>397.00000</ele>
        <time>2010-01-01T08:02:42Z</time>
      </trkpt>
      <trkpt lat="43.78536000" lon="10.97772000">
        <ele>396.00000</ele>
        <time>2010-01-01T08:02:47Z</time>
      </trkpt>
      <trkpt lat="43.78535000" lon="10.97781000">
        <ele>395.00000</ele>
        <time>2010-01-01T08:02:49Z</time>
      </trkpt>
      <trkpt lat="43.78531000" lon="10.97788000">
        <ele>395.00000</ele>
        <time>2010-01-01T08:02:52Z</time>
      </trkpt>
      <trkpt lat="43.78527000" lon="10.97792000">
        <ele>394.00000</ele>
        <time>2010-01-01T08:02:54Z</time>
      </trkpt>
      <trkpt lat="43.78501000" lon="10.97805000">
        <ele>390.00000</ele>
        <time>2010-01-01T08:03:05Z</time>
      </trkpt>
      <trkpt lat="43.78480000" lon="10.97822000">
        <ele>388.00000</ele>
        <time>2010-01-01T08:03:15Z</time>
      </trkpt>
      <trkpt lat="43.78451070" lon="10.97856040">
        <ele>389.00000</ele>
        <time>2010-01-01T08:03:30Z</time>
      </trkpt>
      <trkpt lat="43.78430000" lon="10.97909000">
        <ele>390.00000</ele>
        <time>2010-01-01T08:03:47Z</time>
      </trkpt>
      <trkpt lat="43.78433000" lon="10.97960000">
        <ele>393.00000</ele>
        <time>2010-01-01T08:04:02Z</time>
      </trkpt>
      <trkpt lat="43.78431000" lon="10.97975000">
        <ele>394.00000</ele>
        <time>2010-01-01T08:04:07Z</time>
      </trkpt>
      <trkpt lat="43.78420000" lon="10.97990000">
        <ele>394.00000</ele>
        <time>2010-01-01T08:04:13Z</time>
      </trkpt>
      <trkpt lat="43.78407000" lon="10.98003000">
        <ele>393.00000</ele>
        <time>2010-01-01T08:04:19Z</time>
      </trkpt>
      <trkpt lat="43.78397000" lon="10.98022000">
        <ele>394.00000</ele>
        <time>2010-01-01T08:04:26Z</time>
      </trkpt>
      <trkpt lat="43.78391000" lon="10.98041000">
        <ele>396.00000</ele>
        <time>2010-01-01T08:04:32Z</time>
      </trkpt>
      <trkpt lat="43.78387000" lon="10.98064000">
        <ele>397.00000</ele>
        <time>2010-01-01T08:04:39Z</time>
      </trkpt>
      <trkpt lat="43.78396000" lon="10.98146000">
        <ele>401.00000</ele>
        <time>2010-01-01T08:05:03Z</time>
      </trkpt>
      <trkpt lat="43.78415000" lon="10.98210000">
        <ele>400.00000</ele>
        <time>2010-01-01T08:05:23Z</time>
      </trkpt>
      <trkpt lat="43.78428000" lon="10.98241000">
        <ele>402.00000</ele>
        <time>2010-01-01T08:05:33Z</time>
      </trkpt>
      <trkpt lat="43.78506000" lon="10.98381000">
        <ele>416.00000</ele>
        <time>2010-01-01T08:06:24Z</time>
      </trkpt>
      <trkpt lat="43.78516000" lon="10.98470000">
        <ele>418.00000</ele>
        <time>2010-01-01T08:06:50Z</time>
      </trkpt>
      <trkpt lat="43.78517000" lon="10.98513000">
        <ele>420.00000</ele>
        <time>2010-01-01T08:07:03Z</time>
      </trkpt>
      <trkpt lat="43.78512000" lon="10.98546000">
        <ele>420.00000</ele>
        <time>2010-01-01T08:07:12Z</time>
      </trkpt>
      <trkpt lat="43.78494000" lon="10.98603000">
        <ele>422.00000</ele>
        <time>2010-01-01T08:07:30Z</time>
      </trkpt>
      <trkpt lat="43.78500000" lon="10.98647000">
        <ele>423.00000</ele>
        <time>2010-01-01T08:07:43Z</time>
      </trkpt>
      <trkpt lat="43.78515000" lon="10.98687000">
        <ele>422.00000</ele>
        <time>2010-01-01T08:07:56Z</time>
      </trkpt>
      <trkpt lat="43.78538000" lon="10.98726000">
        <ele>423.00000</ele>
        <time>2010-01-01T08:08:11Z</time>
      </trkpt>
      <trkpt lat="43.78571000" lon="10.98746000">
        <ele>421.00000</ele>
        <time>2010-01-01T08:08:25Z</time>
      </trkpt>
      <trkpt lat="43.78625000" lon="10.98736000">
        <ele>427.00000</ele>
        <time>2010-01-01T08:08:47Z</time>
      </trkpt>
      <trkpt lat="43.78666000" lon="10.98736000">
        <ele>430.00000</ele>
        <time>2010-01-01T08:09:04Z</time>
      </trkpt>
      <trkpt lat="43.78637000" lon="10.98755000">
        <ele>423.00000</ele>
        <time>2010-01-01T08:09:16Z</time>
      </trkpt>
      <trkpt lat="43.78577000" lon="10.98770000">
        <ele>417.00000</ele>
        <time>2010-01-01T08:09:41Z</time>
      </trkpt>
      <trkpt lat="43.78324000" lon="10.98869000">
        <ele>394.00000</ele>
        <time>2010-01-01T08:11:26Z</time>
      </trkpt>
      <trkpt lat="43.78235000" lon="10.98905000">
        <ele>394.00000</ele>
        <time>2010-01-01T08:12:03Z</time>
      </trkpt>
      <trkpt lat="43.78216000" lon="10.98912000">
        <ele>394.00000</ele>
        <time>2010-01-01T08:12:11Z</time>
      </trkpt>
      <trkpt lat="43.78149000" lon="10.98968000">
        <ele>398.00000</ele>
        <time>2010-01-01T08:12:42Z</time>
      </trkpt>
      <trkpt lat="43.78112000" lon="10.98990000">
        <ele>398.00000</ele>
        <time>2010-01-01T08:12:58Z</time>
      </trkpt>
      <trkpt lat="43.78012000" lon="10.99082000">
        <ele>391.00000</ele>
        <time>2010-01-01T08:13:47Z</time>
      </trkpt>
      <trkpt lat="43.77987000" lon="10.99096000">
        <ele>392.00000</ele>
        <time>2010-01-01T08:13:57Z</time>
      </trkpt>
      <trkpt lat="43.77960000" lon="10.99101000">
        <ele>390.00000</ele>
        <time>2010-01-01T08:14:08Z</time>
      </trkpt>
      <trkpt lat="43.77910000" lon="10.99094000">
        <ele>388.00000</ele>
        <time>2010-01-01T08:14:28Z</time>
      </trkpt>
      <trkpt lat="43.77882000" lon="10.99083000">
        <ele>387.00000</ele>
        <time>2010-01-01T08:14:40Z</time>
      </trkpt>
      <trkpt lat="43.77834000" lon="10.99046000">
        <ele>378.00000</ele>
        <time>2010-01-01T08:15:02Z</time>
      </trkpt>
      <trkpt lat="43.77795000" lon="10.99036000">
        <ele>379.00000</ele>
        <time>2010-01-01T08:15:18Z</time>
      </trkpt>
      <trkpt lat="43.77781000" lon="10.99030000">
        <ele>378.00000</ele>
        <time>2010-01-01T08:15:24Z</time>
      </trkpt>
      <trkpt lat="43.77741000" lon="10.98997000">
        <ele>373.00000</ele>
        <time>2010-01-01T08:15:42Z</time>
      </trkpt>
      <trkpt lat="43.77687000" lon="10.98963000">
        <ele>368.00000</ele>
        <time>2010-01-01T08:16:06Z</time>
      </trkpt>
      <trkpt lat="43.77679000" lon="10.98960000">
        <ele>367.00000</ele>
        <time>2010-01-01T08:16:09Z</time>
      </trkpt>
      <trkpt lat="43.77673000" lon="10.98960000">
        <ele>367.00000</ele>
        <time>2010-01-01T08:16:12Z</time>
      </trkpt>
      <trkpt lat="43.77666000" lon="10.98964000">
        <ele>367.00000</ele>
        <time>2010-01-01T08:16:15Z</time>
      </trkpt>
      <trkpt lat="43.77659000" lon="10.98972000">
        <ele>367.00000</ele>
        <time>2010-01-01T08:16:19Z</time>
      </trkpt>
      <trkpt lat="43.77656000" lon="10.98983000">
        <ele>367.00000</ele>
        <time>2010-01-01T08:16:22Z</time>
      </trkpt>
      <trkpt lat="43.77659000" lon="10.99034000">
        <ele>366.00000</ele>
        <time>2010-01-01T08:16:37Z</time>
      </trkpt>
      <trkpt lat="43.77674000" lon="10.99113000">
        <ele>362.00000</ele>
        <time>2010-01-01T08:17:00Z</time>
      </trkpt>
      <trkpt lat="43.77683000" lon="10.99131000">
        <ele>363.00000</ele>
        <time>2010-01-01T08:17:07Z</time>
      </trkpt>
      <trkpt lat="43.77688000" lon="10.99145000">
        <ele>363.00000</ele>
        <time>2010-01-01T08:17:11Z</time>
      </trkpt>
      <trkpt lat="43.77688000" lon="10.99158000">
        <ele>363.00000</ele>
        <time>2010-01-01T08:17:15Z</time>
      </trkpt>
      <trkpt lat="43.77685000" lon="10.99172000">
        <ele>363.00000</ele>
        <time>2010-01-01T08:17:19Z</time>
      </trkpt>
      <trkpt lat="43.77679000" lon="10.99184000">
        <ele>363.00000</ele>
        <time>2010-01-01T08:17:23Z</time>
      </trkpt>
      <trkpt lat="43.77668000" lon="10.99192000">
        <ele>362.00000</ele>
        <time>2010-01-01T08:17:28Z</time>
      </trkpt>
      <trkpt lat="43.77625000" lon="10.99200000">
        <ele>355.00000</ele>
        <time>2010-01-01T08:17:46Z</time>
      </trkpt>
      <trkpt lat="43.77609000" lon="10.99200000">
        <ele>353.00000</ele>
        <time>2010-01-01T08:17:52Z</time>
      </trkpt>
      <trkpt lat="43.77562000" lon="10.99193000">
        <ele>345.00000</ele>
        <time>2010-01-01T08:18:11Z</time>
      </trkpt>
      <trkpt lat="43.77497000" lon="10.99190000">
        <ele>334.00000</ele>
        <time>2010-01-01T08:18:37Z</time>
      </trkpt>
      <trkpt lat="43.77427000" lon="10.99152000">
        <ele>323.00000</ele>
        <time>2010-01-01T08:19:07Z</time>
      </trkpt>
      <trkpt lat="43.77332000" lon="10.99119000">
        <ele>314.00000</ele>
        <time>2010-01-01T08:19:46Z</time>
      </trkpt>
      <trkpt lat="43.77296000" lon="10.99112000">
        <ele>312.00000</ele>
        <time>2010-01-01T08:20:01Z</time>
      </trkpt>
      <trkpt lat="43.77260000" lon="10.99115000">
        <ele>310.00000</ele>
        <time>2010-01-01T08:20:15Z</time>
      </trkpt>
      <trkpt lat="43.77245000" lon="10.99114000">
        <ele>309.00000</ele>
        <time>2010-01-01T08:20:21Z</time>
      </trkpt>
      <trkpt lat="43.77187000" lon="10.99091000">
        <ele>305.00000</ele>
        <time>2010-01-01T08:20:46Z</time>
      </trkpt>
      <trkpt lat="43.77142000" lon="10.99067000">
        <ele>301.00000</ele>
        <time>2010-01-01T08:21:05Z</time>
      </trkpt>
      <trkpt lat="43.76984000" lon="10.99026000">
        <ele>288.00000</ele>
        <time>2010-01-01T08:22:09Z</time>
      </trkpt>
      <trkpt lat="43.76975000" lon="10.99029000">
        <ele>288.00000</ele>
        <time>2010-01-01T08:22:13Z</time>
      </trkpt>
      <trkpt lat="43.76968000" lon="10.99039000">
        <ele>287.00000</ele>
        <time>2010-01-01T08:22:17Z</time>
      </trkpt>
      <trkpt lat="43.76961000" lon="10.99042000">
        <ele>285.00000</ele>
        <time>2010-01-01T08:22:20Z</time>
      </trkpt>
      <trkpt lat="43.76955000" lon="10.99041000">
        <ele>285.00000</ele>
        <time>2010-01-01T08:22:22Z</time>
      </trkpt>
      <trkpt lat="43.76949000" lon="10.99035000">
        <ele>284.00000</ele>
        <time>2010-01-01T08:22:25Z</time>
      </trkpt>
      <trkpt lat="43.76941000" lon="10.98999000">
        <ele>284.00000</ele>
        <time>2010-01-01T08:22:36Z</time>
      </trkpt>
      <trkpt lat="43.76900000" lon="10.98956000">
        <ele>275.00000</ele>
        <time>2010-01-01T08:22:57Z</time>
      </trkpt>
      <trkpt lat="43.76880000" lon="10.98951000">
        <ele>273.00000</ele>
        <time>2010-01-01T08:23:05Z</time>
      </trkpt>
      <trkpt lat="43.76858000" lon="10.98963000">
        <ele>272.00000</ele>
        <time>2010-01-01T08:23:14Z</time>
      </trkpt>
      <trkpt lat="43.76848000" lon="10.98961000">
        <ele>270.00000</ele>
        <time>2010-01-01T08:23:18Z</time>
      </trkpt>
      <trkpt lat="43.76842000" lon="10.98950000">
        <ele>269.00000</ele>
        <time>2010-01-01T08:23:22Z</time>
      </trkpt>
      <trkpt lat="43.76854000" lon="10.98905000">
        <ele>268.00000</ele>
        <time>2010-01-01T08:23:36Z</time>
      </trkpt>
      <trkpt lat="43.76852000" lon="10.98885000">
        <ele>266.00000</ele>
        <time>2010-01-01T08:23:42Z</time>
      </trkpt>
      <trkpt lat="43.76838000" lon="10.98879000">
        <ele>263.00000</ele>
        <time>2010-01-01T08:23:48Z</time>
      </trkpt>
      <trkpt lat="43.76822000" lon="10.98893000">
        <ele>262.00000</ele>
        <time>2010-01-01T08:23:55Z</time>
      </trkpt>
      <trkpt lat="43.76805000" lon="10.98932000">
        <ele>261.00000</ele>
        <time>2010-01-01T08:24:09Z</time>
      </trkpt>
      <trkpt lat="43.76788000" lon="10.98933000">
        <ele>258.00000</ele>
        <time>2010-01-01T08:24:15Z</time>
      </trkpt>
      <trkpt lat="43.76775000" lon="10.98911000">
        <ele>255.00000</ele>
        <time>2010-01-01T08:24:24Z</time>
      </trkpt>
      <trkpt lat="43.76782000" lon="10.98883000">
        <ele>254.00000</ele>
        <time>2010-01-01T08:24:32Z</time>
      </trkpt>
      <trkpt lat="43.76807000" lon="10.98740000">
        <ele>246.00000</ele>
        <time>2010-01-01T08:25:15Z</time>
      </trkpt>
      <trkpt lat="43.76796000" lon="10.98718000">
        <ele>240.00000</ele>
        <time>2010-01-01T08:25:22Z</time>
      </trkpt>
      <trkpt lat="43.76780000" lon="10.98717000">
        <ele>239.00000</ele>
        <time>2010-01-01T08:25:29Z</time>
      </trkpt>
      <trkpt lat="43.76732000" lon="10.98775000">
        <ele>239.00000</ele>
        <time>2010-01-01T08:25:54Z</time>
      </trkpt>
      <trkpt lat="43.76713000" lon="10.98780000">
        <ele>237.00000</ele>
        <time>2010-01-01T08:26:02Z</time>
      </trkpt>
      <trkpt lat="43.76695000" lon="10.98757000">
        <ele>233.00000</ele>
        <time>2010-01-01T08:26:12Z</time>
      </trkpt>
      <trkpt lat="43.76692000" lon="10.98739000">
        <ele>231.00000</ele>
        <time>2010-01-01T08:26:17Z</time>
      </trkpt>
      <trkpt lat="43.76696000" lon="10.98708000">
        <ele>229.00000</ele>
        <time>2010-01-01T08:26:26Z</time>
      </trkpt>
      <trkpt lat="43.76690000" lon="10.98686000">
        <ele>228.00000</ele>
        <time>2010-01-01T08:26:33Z</time>
      </trkpt>
      <trkpt lat="43.76678000" lon="10.98671000">
        <ele>228.00000</ele>
        <time>2010-01-01T08:26:40Z</time>
      </trkpt>
      <trkpt lat="43.76658000" lon="10.98654000">
        <ele>228.00000</ele>
        <time>2010-01-01T08:26:49Z</time>
      </trkpt>
      <trkpt lat="43.76635000" lon="10.98643000">
        <ele>227.00000</ele>
        <time>2010-01-01T08:26:59Z</time>
      </trkpt>
      <trkpt lat="43.76536000" lon="10.98611000">
        <ele>221.00000</ele>
        <time>2010-01-01T08:27:39Z</time>
      </trkpt>
      <trkpt lat="43.76466000" lon="10.98598000">
        <ele>214.00000</ele>
        <time>2010-01-01T08:28:08Z</time>
      </trkpt>
      <trkpt lat="43.76424000" lon="10.98550000">
        <ele>213.00000</ele>
        <time>2010-01-01T08:28:30Z</time>
      </trkpt>
      <trkpt lat="43.76378000" lon="10.98544000">
        <ele>209.00000</ele>
        <time>2010-01-01T08:28:48Z</time>
      </trkpt>
      <trkpt lat="43.76075000" lon="10.98572000">
        <ele>185.00000</ele>
        <time>2010-01-01T08:30:50Z</time>
      </trkpt>
      <trkpt lat="43.76053000" lon="10.98565000">
        <ele>183.00000</ele>
        <time>2010-01-01T08:30:59Z</time>
      </trkpt>
      <trkpt lat="43.76021000" lon="10.98518000">
        <ele>178.00000</ele>
        <time>2010-01-01T08:31:17Z</time>
      </trkpt>
      <trkpt lat="43.76003000" lon="10.98521000">
        <ele>176.00000</ele>
        <time>2010-01-01T08:31:25Z</time>
      </trkpt>
      <trkpt lat="43.75997000" lon="10.98540000">
        <ele>175.00000</ele>
        <time>2010-01-01T08:31:31Z</time>
      </trkpt>
      <trkpt lat="43.75998000" lon="10.98572000">
        <ele>174.00000</ele>
        <time>2010-01-01T08:31:40Z</time>
      </trkpt>
      <trkpt lat="43.75987000" lon="10.98599000">
        <ele>173.00000</ele>
        <time>2010-01-01T08:31:49Z</time>
      </trkpt>
      <trkpt lat="43.75959000" lon="10.98615000">
        <ele>169.00000</ele>
        <time>2010-01-01T08:32:01Z</time>
      </trkpt>
      <trkpt lat="43.75877000" lon="10.98643000">
        <ele>158.00000</ele>
        <time>2010-01-01T08:32:35Z</time>
      </trkpt>
      <trkpt lat="43.75584000" lon="10.98761000">
        <ele>137.00000</ele>
        <time>2010-01-01T08:34:37Z</time>
      </trkpt>
      <trkpt lat="43.75483000" lon="10.98725000">
        <ele>128.00000</ele>
        <time>2010-01-01T08:35:19Z</time>
      </trkpt>
      <trkpt lat="43.75414000" lon="10.98706000">
        <ele>120.00000</ele>
        <time>2010-01-01T08:35:47Z</time>
      </trkpt>
      <trkpt lat="43.75365000" lon="10.98659000">
        <ele>110.00000</ele>
        <time>2010-01-01T08:36:11Z</time>
      </trkpt>
      <trkpt lat="43.75306000" lon="10.98545000">
        <ele>101.00000</ele>
        <time>2010-01-01T08:36:51Z</time>
      </trkpt>
      <trkpt lat="43.75282000" lon="10.98545000">
        <ele>101.00000</ele>
        <time>2010-01-01T08:37:01Z</time>
      </trkpt>
      <trkpt lat="43.75267000" lon="10.98540000">
        <ele>99.000000</ele>
        <time>2010-01-01T08:37:07Z</time>
      </trkpt>
      <trkpt lat="43.75262000" lon="10.98512000">
        <ele>96.000000</ele>
        <time>2010-01-01T08:37:15Z</time>
      </trkpt>
      <trkpt lat="43.75269000" lon="10.98497000">
        <ele>95.000000</ele>
        <time>2010-01-01T08:37:20Z</time>
      </trkpt>
      <trkpt lat="43.75311000" lon="10.98468000">
        <ele>92.000000</ele>
        <time>2010-01-01T08:37:39Z</time>
      </trkpt>
      <trkpt lat="43.75316000" lon="10.98445000">
        <ele>89.000000</ele>
        <time>2010-01-01T08:37:46Z</time>
      </trkpt>
      <trkpt lat="43.75306000" lon="10.98415000">
        <ele>85.000000</ele>
        <time>2010-01-01T08:37:56Z</time>
      </trkpt>
      <trkpt lat="43.75294000" lon="10.98407000">
        <ele>84.000000</ele>
        <time>2010-01-01T08:38:01Z</time>
      </trkpt>
      <trkpt lat="43.75273000" lon="10.98405000">
        <ele>83.000000</ele>
        <time>2010-01-01T08:38:10Z</time>
      </trkpt>
      <trkpt lat="43.75202000" lon="10.98432000">
        <ele>83.000000</ele>
        <time>2010-01-01T08:38:39Z</time>
      </trkpt>
      <trkpt lat="43.75186000" lon="10.98419000">
        <ele>79.000000</ele>
        <time>2010-01-01T08:38:46Z</time>
      </trkpt>
      <trkpt lat="43.75179000" lon="10.98392000">
        <ele>75.000000</ele>
        <time>2010-01-01T08:38:55Z</time>
      </trkpt>
      <trkpt lat="43.75204000" lon="10.98322000">
        <ele>71.000000</ele>
        <time>2010-01-01T08:39:17Z</time>
      </trkpt>
      <trkpt lat="43.75205000" lon="10.98298000">
        <ele>69.000000</ele>
        <time>2010-01-01T08:39:24Z</time>
      </trkpt>
      <trkpt lat="43.75178000" lon="10.98236000">
        <ele>59.000000</ele>
        <time>2010-01-01T08:39:45Z</time>
      </trkpt>
      <trkpt lat="43.75162000" lon="10.98223000">
        <ele>57.000000</ele>
        <time>2010-01-01T08:39:53Z</time>
      </trkpt>
      <trkpt lat="43.75089000" lon="10.98248000">
        <ele>50.000000</ele>
        <time>2010-01-01T08:40:23Z</time>
      </trkpt>
      <trkpt lat="43.75013000" lon="10.98298000">
        <ele>48.000000</ele>
        <time>2010-01-01T08:40:56Z</time>
      </trkpt>
      <trkpt lat="43.74976000" lon="10.98338000">
        <ele>45.000000</ele>
        <time>2010-01-01T08:41:15Z</time>
      </trkpt>
      <trkpt lat="43.74938000" lon="10.98340000">
        <ele>40.000000</ele>
        <time>2010-01-01T08:41:30Z</time>
      </trkpt>
      <trkpt lat="43.74854000" lon="10.98401000">
        <ele>36.000000</ele>
        <time>2010-01-01T08:42:08Z</time>
      </trkpt>
      <trkpt lat="43.74783000" lon="10.98426000">
        <ele>38.000000</ele>
        <time>2010-01-01T08:42:38Z</time>
      </trkpt>
      <trkpt lat="43.74732000" lon="10.98439000">
        <ele>38.000000</ele>
        <time>2010-01-01T08:42:58Z</time>
      </trkpt>
      <trkpt lat="43.74652000" lon="10.98483000">
        <ele>31.000000</ele>
        <time>2010-01-01T08:43:33Z</time>
      </trkpt>
      <trkpt lat="43.74630080" lon="10.98484750">
        <ele>30.000000</ele>
        <time>2010-01-01T08:43:42Z</time>
      </trkpt>
      <trkpt lat="43.74527390" lon="10.98441300">
        <ele>29.000000</ele>
        <time>2010-01-01T08:44:25Z</time>
      </trkpt>
      <trkpt lat="43.74519640" lon="10.98431640">
        <ele>29.000000</ele>
        <time>2010-01-01T08:44:29Z</time>
      </trkpt>
      <trkpt lat="43.74511110" lon="10.98440220">
        <ele>29.000000</ele>
        <time>2010-01-01T08:44:33Z</time>
      </trkpt>
      <trkpt lat="43.74518480" lon="10.98452560">
        <ele>30.000000</ele>
        <time>2010-01-01T08:44:38Z</time>
      </trkpt>
      <trkpt lat="43.74512270" lon="10.98721860">
        <ele>29.000000</ele>
        <time>2010-01-01T08:45:56Z</time>
      </trkpt>
      <trkpt lat="43.74511500" lon="10.98829150">
        <ele>29.000000</ele>
        <time>2010-01-01T08:46:27Z</time>
      </trkpt>
      <trkpt lat="43.74515760" lon="10.98851680">
        <ele>29.000000</ele>
        <time>2010-01-01T08:46:33Z</time>
      </trkpt>
      <trkpt lat="43.74558000" lon="10.99017000">
        <ele>31.000000</ele>
        <time>2010-01-01T08:47:24Z</time>
      </trkpt>
      <trkpt lat="43.74565000" lon="10.99056000">
        <ele>32.000000</ele>
        <time>2010-01-01T08:47:36Z</time>
      </trkpt>
      <trkpt lat="43.74573000" lon="10.99142000">
        <ele>32.000000</ele>
        <time>2010-01-01T08:48:01Z</time>
      </trkpt>
      <trkpt lat="43.74565750" lon="10.99156910">
        <ele>31.000000</ele>
        <time>2010-01-01T08:48:06Z</time>
      </trkpt>
      <trkpt lat="43.74574670" lon="10.99175150">
        <ele>32.000000</ele>
        <time>2010-01-01T08:48:12Z</time>
      </trkpt>
      <trkpt lat="43.74575440" lon="10.99240060">
        <ele>32.000000</ele>
        <time>2010-01-01T08:48:31Z</time>
      </trkpt>
      <trkpt lat="43.74552970" lon="10.99295310">
        <ele>29.000000</ele>
        <time>2010-01-01T08:48:49Z</time>
      </trkpt>
      <trkpt lat="43.74294860" lon="10.99547980">
        <ele>30.000000</ele>
        <time>2010-01-01T08:50:56Z</time>
      </trkpt>
      <trkpt lat="43.73946000" lon="10.99877000">
        <ele>30.000000</ele>
        <time>2010-01-01T08:53:45Z</time>
      </trkpt>
      <trkpt lat="43.73908000" lon="10.99940000">
        <ele>30.000000</ele>
        <time>2010-01-01T08:54:09Z</time>
      </trkpt>
      <trkpt lat="43.73864000" lon="11.00049000">
        <ele>34.000000</ele>
        <time>2010-01-01T08:54:45Z</time>
      </trkpt>
      <trkpt lat="43.73758000" lon="11.00385000">
        <ele>29.000000</ele>
        <time>2010-01-01T08:56:31Z</time>
      </trkpt>
      <trkpt lat="43.73746000" lon="11.00470000">
        <ele>34.000000</ele>
        <time>2010-01-01T08:56:56Z</time>
      </trkpt>
      <trkpt lat="43.73748000" lon="11.00690000">
        <ele>32.000000</ele>
        <time>2010-01-01T08:58:00Z</time>
      </trkpt>
      <trkpt lat="43.73746840" lon="11.00706690">
        <ele>30.000000</ele>
        <time>2010-01-01T08:58:04Z</time>
      </trkpt>
      <trkpt lat="43.73755000" lon="11.00716000">
        <ele>31.000000</ele>
        <time>2010-01-01T08:58:09Z</time>
      </trkpt>
      <trkpt lat="43.73757000" lon="11.00928000">
        <ele>31.000000</ele>
        <time>2010-01-01T08:59:10Z</time>
      </trkpt>
      <trkpt lat="43.73754590" lon="11.01014070">
        <ele>32.000000</ele>
        <time>2010-01-01T08:59:35Z</time>
      </trkpt>
      <trkpt lat="43.73749000" lon="11.01055000">
        <ele>33.000000</ele>
        <time>2010-01-01T08:59:47Z</time>
      </trkpt>
      <trkpt lat="43.73694000" lon="11.01292000">
        <ele>32.000000</ele>
        <time>2010-01-01T09:00:59Z</time>
      </trkpt>
      <trkpt lat="43.73661000" lon="11.01433000">
        <ele>33.000000</ele>
        <time>2010-01-01T09:01:42Z</time>
      </trkpt>
      <trkpt lat="43.73638000" lon="11.01483000">
        <ele>33.000000</ele>
        <time>2010-01-01T09:01:59Z</time>
      </trkpt>
      <trkpt lat="43.73506920" lon="11.01721100">
        <ele>28.000000</ele>
        <time>2010-01-01T09:03:26Z</time>
      </trkpt>
      <trkpt lat="43.73420000" lon="11.01870000">
        <ele>33.000000</ele>
        <time>2010-01-01T09:04:21Z</time>
      </trkpt>
      <trkpt lat="43.73358000" lon="11.01939000">
        <ele>31.000000</ele>
        <time>2010-01-01T09:04:53Z</time>
      </trkpt>
      <trkpt lat="43.73347000" lon="11.01939000">
        <ele>31.000000</ele>
        <time>2010-01-01T09:04:57Z</time>
      </trkpt>
      <trkpt lat="43.73335000" lon="11.01958000">
        <ele>31.000000</ele>
        <time>2010-01-01T09:05:04Z</time>
      </trkpt>
      <trkpt lat="43.73333000" lon="11.01972000">
        <ele>31.000000</ele>
        <time>2010-01-01T09:05:09Z</time>
      </trkpt>
      <trkpt lat="43.73346000" lon="11.01980000">
        <ele>31.000000</ele>
        <time>2010-01-01T09:05:14Z</time>
      </trkpt>
      <trkpt lat="43.73413000" lon="11.02034000">
        <ele>33.000000</ele>
        <time>2010-01-01T09:05:45Z</time>
      </trkpt>
      <trkpt lat="43.73380000" lon="11.02127000">
        <ele>38.000000</ele>
        <time>2010-01-01T09:06:15Z</time>
      </trkpt>
      <trkpt lat="43.73376000" lon="11.02123000">
        <ele>38.000000</ele>
        <time>2010-01-01T09:06:17Z</time>
      </trkpt>
      <trkpt lat="43.73308000" lon="11.02340000">
        <ele>48.000000</ele>
        <time>2010-01-01T09:07:26Z</time>
      </trkpt>
      <trkpt lat="43.73301000" lon="11.02352000">
        <ele>50.000000</ele>
        <time>2010-01-01T09:07:30Z</time>
      </trkpt>
      <trkpt lat="43.73328000" lon="11.02379000">
        <ele>54.000000</ele>
        <time>2010-01-01T09:07:43Z</time>
      </trkpt>
      <trkpt lat="43.73328000" lon="11.02403000">
        <ele>57.000000</ele>
        <time>2010-01-01T09:07:50Z</time>
      </trkpt>
      <trkpt lat="43.73334000" lon="11.02419000">
        <ele>59.000000</ele>
        <time>2010-01-01T09:07:56Z</time>
      </trkpt>
      <trkpt lat="43.73340000" lon="11.02430000">
        <ele>58.000000</ele>
        <time>2010-01-01T09:08:00Z</time>
      </trkpt>
      <trkpt lat="43.73338000" lon="11.02448000">
        <ele>60.000000</ele>
        <time>2010-01-01T09:08:05Z</time>
      </trkpt>
      <trkpt lat="43.73329000" lon="11.02472000">
        <ele>62.000000</ele>
        <time>2010-01-01T09:08:13Z</time>
      </trkpt>
      <trkpt lat="43.73280000" lon="11.02548000">
        <ele>83.000000</ele>
        <time>2010-01-01T09:08:42Z</time>
      </trkpt>
      <trkpt lat="43.73262000" lon="11.02589000">
        <ele>87.000000</ele>
        <time>2010-01-01T09:08:56Z</time>
      </trkpt>
      <trkpt lat="43.73226000" lon="11.02638000">
        <ele>97.000000</ele>
        <time>2010-01-01T09:09:16Z</time>
      </trkpt>
      <trkpt lat="43.73203000" lon="11.02676000">
        <ele>100.00000</ele>
        <time>2010-01-01T09:09:31Z</time>
      </trkpt>
      <trkpt lat="43.73145000" lon="11.02819000">
        <ele>111.00000</ele>
        <time>2010-01-01T09:10:18Z</time>
      </trkpt>
      <trkpt lat="43.73092000" lon="11.02907000">
        <ele>111.00000</ele>
        <time>2010-01-01T09:10:51Z</time>
      </trkpt>
      <trkpt lat="43.73034000" lon="11.03126000">
        <ele>126.00000</ele>
        <time>2010-01-01T09:11:59Z</time>
      </trkpt>
      <trkpt lat="43.73027000" lon="11.03181000">
        <ele>127.00000</ele>
        <time>2010-01-01T09:12:15Z</time>
      </trkpt>
      <trkpt lat="43.73016000" lon="11.03235000">
        <ele>128.00000</ele>
        <time>2010-01-01T09:12:31Z</time>
      </trkpt>
      <trkpt lat="43.73018000" lon="11.03266000">
        <ele>128.00000</ele>
        <time>2010-01-01T09:12:40Z</time>
      </trkpt>
      <trkpt lat="43.73041000" lon="11.03363000">
        <ele>129.00000</ele>
        <time>2010-01-01T09:13:10Z</time>
      </trkpt>
      <trkpt lat="43.73039000" lon="11.03389000">
        <ele>133.00000</ele>
        <time>2010-01-01T09:13:17Z</time>
      </trkpt>
      <trkpt lat="43.73023000" lon="11.03434000">
        <ele>140.00000</ele>
        <time>2010-01-01T09:13:32Z</time>
      </trkpt>
      <trkpt lat="43.73020000" lon="11.03453000">
        <ele>141.00000</ele>
        <time>2010-01-01T09:13:37Z</time>
      </trkpt>
      <trkpt lat="43.73023000" lon="11.03473000">
        <ele>141.00000</ele>
        <time>2010-01-01T09:13:43Z</time>
      </trkpt>
      <trkpt lat="43.73045000" lon="11.03544000">
        <ele>143.00000</ele>
        <time>2010-01-01T09:14:06Z</time>
      </trkpt>
      <trkpt lat="43.73063000" lon="11.03648000">
        <ele>145.00000</ele>
        <time>2010-01-01T09:14:36Z</time>
      </trkpt>
      <trkpt lat="43.73066000" lon="11.03724000">
        <ele>146.00000</ele>
        <time>2010-01-01T09:14:58Z</time>
      </trkpt>
      <trkpt lat="43.73062000" lon="11.03810000">
        <ele>147.00000</ele>
        <time>2010-01-01T09:15:23Z</time>
      </trkpt>
      <trkpt lat="43.73074000" lon="11.03856000">
        <ele>149.00000</ele>
        <time>2010-01-01T09:15:38Z</time>
      </trkpt>
      <trkpt lat="43.73089000" lon="11.03889000">
        <ele>148.00000</ele>
        <time>2010-01-01T09:15:49Z</time>
      </trkpt>
      <trkpt lat="43.73116000" lon="11.03929000">
        <ele>148.00000</ele>
        <time>2010-01-01T09:16:05Z</time>
      </trkpt>
      <trkpt lat="43.73148000" lon="11.03962000">
        <ele>149.00000</ele>
        <time>2010-01-01T09:16:21Z</time>
      </trkpt>
      <trkpt lat="43.73183000" lon="11.03990000">
        <ele>150.00000</ele>
        <time>2010-01-01T09:16:37Z</time>
      </trkpt>
      <trkpt lat="43.73202000" lon="11.04017000">
        <ele>153.00000</ele>
        <time>2010-01-01T09:16:48Z</time>
      </trkpt>
      <trkpt lat="43.73208000" lon="11.04037000">
        <ele>154.00000</ele>
        <time>2010-01-01T09:16:54Z</time>
      </trkpt>
      <trkpt lat="43.73207000" lon="11.04056000">
        <ele>155.00000</ele>
        <time>2010-01-01T09:16:59Z</time>
      </trkpt>
      <trkpt lat="43.73198000" lon="11.04091000">
        <ele>155.00000</ele>
        <time>2010-01-01T09:17:10Z</time>
      </trkpt>
      <trkpt lat="43.73197000" lon="11.04115000">
        <ele>156.00000</ele>
        <time>2010-01-01T09:17:17Z</time>
      </trkpt>
      <trkpt lat="43.73202000" lon="11.04139000">
        <ele>159.00000</ele>
        <time>2010-01-01T09:17:24Z</time>
      </trkpt>
      <trkpt lat="43.73233000" lon="11.04222000">
        <ele>165.00000</ele>
        <time>2010-01-01T09:17:51Z</time>
      </trkpt>
      <trkpt lat="43.73254000" lon="11.04299000">
        <ele>167.00000</ele>
        <time>2010-01-01T09:18:15Z</time>
      </trkpt>
      <trkpt lat="43.73267370" lon="11.04327670">
        <ele>167.00000</ele>
        <time>2010-01-01T09:18:25Z</time>
      </trkpt>
      <trkpt lat="43.73337530" lon="11.04393660">
        <ele>170.00000</ele>
        <time>2010-01-01T09:18:59Z</time>
      </trkpt>
      <trkpt lat="43.73389000" lon="11.04449000">
        <ele>173.00000</ele>
        <time>2010-01-01T09:19:25Z</time>
      </trkpt>
      <trkpt lat="43.73406000" lon="11.04456000">
        <ele>173.00000</ele>
        <time>2010-01-01T09:19:32Z</time>
      </trkpt>
      <trkpt lat="43.73491000" lon="11.04472000">
        <ele>168.00000</ele>
        <time>2010-01-01T09:20:07Z</time>
      </trkpt>
      <trkpt lat="43.73524000" lon="11.04496000">
        <ele>169.00000</ele>
        <time>2010-01-01T09:20:22Z</time>
      </trkpt>
      <trkpt lat="43.73538000" lon="11.04513000">
        <ele>169.00000</ele>
        <time>2010-01-01T09:20:29Z</time>
      </trkpt>
      <trkpt lat="43.73624000" lon="11.04659000">
        <ele>170.00000</ele>
        <time>2010-01-01T09:21:23Z</time>
      </trkpt>
      <trkpt lat="43.73751000" lon="11.04881000">
        <ele>169.00000</ele>
        <time>2010-01-01T09:22:45Z</time>
      </trkpt>
      <trkpt lat="43.73766000" lon="11.04924000">
        <ele>168.00000</ele>
        <time>2010-01-01T09:22:59Z</time>
      </trkpt>
      <trkpt lat="43.73776000" lon="11.05002000">
        <ele>171.00000</ele>
        <time>2010-01-01T09:23:22Z</time>
      </trkpt>
      <trkpt lat="43.73792570" lon="11.05198860">
        <ele>167.00000</ele>
        <time>2010-01-01T09:24:19Z</time>
      </trkpt>
      <trkpt lat="43.73809000" lon="11.05384000">
        <ele>165.00000</ele>
        <time>2010-01-01T09:25:13Z</time>
      </trkpt>
      <trkpt lat="43.73815000" lon="11.05560000">
        <ele>169.00000</ele>
        <time>2010-01-01T09:26:04Z</time>
      </trkpt>
      <trkpt lat="43.73821000" lon="11.05607000">
        <ele>170.00000</ele>
        <time>2010-01-01T09:26:18Z</time>
      </trkpt>
      <trkpt lat="43.73837000" lon="11.05651000">
        <ele>168.00000</ele>
        <time>2010-01-01T09:26:32Z</time>
      </trkpt>
      <trkpt lat="43.73879000" lon="11.05722000">
        <ele>167.00000</ele>
        <time>2010-01-01T09:26:59Z</time>
      </trkpt>
      <trkpt lat="43.73955000" lon="11.05822000">
        <ele>167.00000</ele>
        <time>2010-01-01T09:27:41Z</time>
      </trkpt>
      <trkpt lat="43.74044000" lon="11.05960000">
        <ele>166.00000</ele>
        <time>2010-01-01T09:28:34Z</time>
      </trkpt>
      <trkpt lat="43.74147000" lon="11.06165000">
        <ele>166.00000</ele>
        <time>2010-01-01T09:29:47Z</time>
      </trkpt>
      <trkpt lat="43.74243000" lon="11.06303000">
        <ele>165.00000</ele>
        <time>2010-01-01T09:30:42Z</time>
      </trkpt>
      <trkpt lat="43.74303000" lon="11.06397000">
        <ele>162.00000</ele>
        <time>2010-01-01T09:31:18Z</time>
      </trkpt>
      <trkpt lat="43.74375000" lon="11.06490000">
        <ele>159.00000</ele>
        <time>2010-01-01T09:31:58Z</time>
      </trkpt>
      <trkpt lat="43.74396000" lon="11.06536000">
        <ele>161.00000</ele>
        <time>2010-01-01T09:32:13Z</time>
      </trkpt>
      <trkpt lat="43.74437870" lon="11.06660120">
        <ele>164.00000</ele>
        <time>2010-01-01T09:32:53Z</time>
      </trkpt>
      <trkpt lat="43.74497940" lon="11.06793160">
        <ele>165.00000</ele>
        <time>2010-01-01T09:33:38Z</time>
      </trkpt>
      <trkpt lat="43.74573000" lon="11.06882000">
        <ele>167.00000</ele>
        <time>2010-01-01T09:34:18Z</time>
      </trkpt>
      <trkpt lat="43.74651000" lon="11.06940000">
        <ele>173.00000</ele>
        <time>2010-01-01T09:34:53Z</time>
      </trkpt>
      <trkpt lat="43.74663000" lon="11.06956000">
        <ele>175.00000</ele>
        <time>2010-01-01T09:35:00Z</time>
      </trkpt>
      <trkpt lat="43.74776000" lon="11.07191000">
        <ele>193.00000</ele>
        <time>2010-01-01T09:36:22Z</time>
      </trkpt>
      <trkpt lat="43.74792000" lon="11.07255000">
        <ele>196.00000</ele>
        <time>2010-01-01T09:36:41Z</time>
      </trkpt>
      <trkpt lat="43.74805000" lon="11.07323000">
        <ele>200.00000</ele>
        <time>2010-01-01T09:37:02Z</time>
      </trkpt>
      <trkpt lat="43.74816000" lon="11.07403000">
        <ele>200.00000</ele>
        <time>2010-01-01T09:37:25Z</time>
      </trkpt>
      <trkpt lat="43.74878870" lon="11.07571000">
        <ele>191.00000</ele>
        <time>2010-01-01T09:38:20Z</time>
      </trkpt>
      <trkpt lat="43.74890500" lon="11.07618740">
        <ele>189.00000</ele>
        <time>2010-01-01T09:38:34Z</time>
      </trkpt>
      <trkpt lat="43.74908330" lon="11.07941680">
        <ele>181.00000</ele>
        <time>2010-01-01T09:40:08Z</time>
      </trkpt>
      <trkpt lat="43.74898640" lon="11.07962600">
        <ele>182.00000</ele>
        <time>2010-01-01T09:40:15Z</time>
      </trkpt>
      <trkpt lat="43.74815710" lon="11.07958310">
        <ele>175.00000</ele>
        <time>2010-01-01T09:40:48Z</time>
      </trkpt>
      <trkpt lat="43.74779280" lon="11.07984060">
        <ele>171.00000</ele>
        <time>2010-01-01T09:41:05Z</time>
      </trkpt>
      <trkpt lat="43.74513440" lon="11.08205080">
        <ele>163.00000</ele>
        <time>2010-01-01T09:43:09Z</time>
      </trkpt>
      <trkpt lat="43.74452980" lon="11.08236190">
        <ele>161.00000</ele>
        <time>2010-01-01T09:43:35Z</time>
      </trkpt>
      <trkpt lat="43.74296410" lon="11.08312360">
        <ele>158.00000</ele>
        <time>2010-01-01T09:44:41Z</time>
      </trkpt>
      <trkpt lat="43.74269670" lon="11.08338650">
        <ele>156.00000</ele>
        <time>2010-01-01T09:44:54Z</time>
      </trkpt>
      <trkpt lat="43.74246810" lon="11.08383710">
        <ele>155.00000</ele>
        <time>2010-01-01T09:45:10Z</time>
      </trkpt>
      <trkpt lat="43.74234400" lon="11.08445400">
        <ele>152.00000</ele>
        <time>2010-01-01T09:45:29Z</time>
      </trkpt>
      <trkpt lat="43.74232850" lon="11.08610630">
        <ele>155.00000</ele>
        <time>2010-01-01T09:46:17Z</time>
      </trkpt>
      <trkpt lat="43.74263860" lon="11.08605800">
        <ele>151.00000</ele>
        <time>2010-01-01T09:46:29Z</time>
      </trkpt>
      <trkpt lat="43.74291760" lon="11.08614920">
        <ele>148.00000</ele>
        <time>2010-01-01T09:46:41Z</time>
      </trkpt>
      <trkpt lat="43.74353770" lon="11.08664270">
        <ele>144.00000</ele>
        <time>2010-01-01T09:47:09Z</time>
      </trkpt>
      <trkpt lat="43.74496390" lon="11.08732400">
        <ele>134.00000</ele>
        <time>2010-01-01T09:48:10Z</time>
      </trkpt>
      <trkpt lat="43.74654500" lon="11.08885280">
        <ele>119.00000</ele>
        <time>2010-01-01T09:49:27Z</time>
      </trkpt>
      <trkpt lat="43.74711470" lon="11.08926590">
        <ele>120.00000</ele>
        <time>2010-01-01T09:49:53Z</time>
      </trkpt>
      <trkpt lat="43.74761460" lon="11.08938390">
        <ele>119.00000</ele>
        <time>2010-01-01T09:50:13Z</time>
      </trkpt>
      <trkpt lat="43.74822300" lon="11.08940540">
        <ele>118.00000</ele>
        <time>2010-01-01T09:50:37Z</time>
      </trkpt>
      <trkpt lat="43.74848260" lon="11.08948050">
        <ele>118.00000</ele>
        <time>2010-01-01T09:50:48Z</time>
      </trkpt>
      <trkpt lat="43.74921000" lon="11.08980000">
        <ele>113.00000</ele>
        <time>2010-01-01T09:51:18Z</time>
      </trkpt>
      <trkpt lat="43.74979000" lon="11.09016000">
        <ele>116.00000</ele>
        <time>2010-01-01T09:51:44Z</time>
      </trkpt>
      <trkpt lat="43.75093000" lon="11.09067000">
        <ele>110.00000</ele>
        <time>2010-01-01T09:52:32Z</time>
      </trkpt>
      <trkpt lat="43.75139000" lon="11.09080000">
        <ele>111.00000</ele>
        <time>2010-01-01T09:52:51Z</time>
      </trkpt>
      <trkpt lat="43.75251000" lon="11.09171000">
        <ele>112.00000</ele>
        <time>2010-01-01T09:53:43Z</time>
      </trkpt>
      <trkpt lat="43.75265000" lon="11.09185000">
        <ele>113.00000</ele>
        <time>2010-01-01T09:53:49Z</time>
      </trkpt>
      <trkpt lat="43.75318000" lon="11.09262000">
        <ele>108.00000</ele>
        <time>2010-01-01T09:54:20Z</time>
      </trkpt>
      <trkpt lat="43.75343000" lon="11.09282000">
        <ele>105.00000</ele>
        <time>2010-01-01T09:54:32Z</time>
      </trkpt>
      <trkpt lat="43.75353000" lon="11.09287000">
        <ele>104.00000</ele>
        <time>2010-01-01T09:54:36Z</time>
      </trkpt>
      <trkpt lat="43.75364000" lon="11.09286000">
        <ele>104.00000</ele>
        <time>2010-01-01T09:54:40Z</time>
      </trkpt>
      <trkpt lat="43.75375000" lon="11.09278000">
        <ele>104.00000</ele>
        <time>2010-01-01T09:54:45Z</time>
      </trkpt>
      <trkpt lat="43.75396000" lon="11.09252000">
        <ele>109.00000</ele>
        <time>2010-01-01T09:54:57Z</time>
      </trkpt>
      <trkpt lat="43.75407000" lon="11.09251000">
        <ele>107.00000</ele>
        <time>2010-01-01T09:55:01Z</time>
      </trkpt>
      <trkpt lat="43.75415000" lon="11.09266000">
        <ele>104.00000</ele>
        <time>2010-01-01T09:55:07Z</time>
      </trkpt>
      <trkpt lat="43.75413000" lon="11.09291000">
        <ele>102.00000</ele>
        <time>2010-01-01T09:55:14Z</time>
      </trkpt>
      <trkpt lat="43.75405000" lon="11.09317000">
        <ele>100.00000</ele>
        <time>2010-01-01T09:55:22Z</time>
      </trkpt>
      <trkpt lat="43.75405000" lon="11.09345000">
        <ele>96.000000</ele>
        <time>2010-01-01T09:55:30Z</time>
      </trkpt>
      <trkpt lat="43.75458000" lon="11.09465000">
        <ele>91.000000</ele>
        <time>2010-01-01T09:56:11Z</time>
      </trkpt>
      <trkpt lat="43.75475000" lon="11.09496000">
        <ele>90.000000</ele>
        <time>2010-01-01T09:56:22Z</time>
      </trkpt>
      <trkpt lat="43.75494000" lon="11.09522000">
        <ele>87.000000</ele>
        <time>2010-01-01T09:56:33Z</time>
      </trkpt>
      <trkpt lat="43.75518000" lon="11.09545000">
        <ele>85.000000</ele>
        <time>2010-01-01T09:56:44Z</time>
      </trkpt>
      <trkpt lat="43.75542000" lon="11.09562000">
        <ele>85.000000</ele>
        <time>2010-01-01T09:56:55Z</time>
      </trkpt>
      <trkpt lat="43.75594000" lon="11.09564000">
        <ele>88.000000</ele>
        <time>2010-01-01T09:57:16Z</time>
      </trkpt>
      <trkpt lat="43.75695000" lon="11.09614000">
        <ele>87.000000</ele>
        <time>2010-01-01T09:57:59Z</time>
      </trkpt>
      <trkpt lat="43.75811000" lon="11.09668000">
        <ele>80.000000</ele>
        <time>2010-01-01T09:58:48Z</time>
      </trkpt>
      <trkpt lat="43.75818000" lon="11.09676000">
        <ele>81.000000</ele>
        <time>2010-01-01T09:58:52Z</time>
      </trkpt>
      <trkpt lat="43.75850000" lon="11.09732000">
        <ele>83.000000</ele>
        <time>2010-01-01T09:59:12Z</time>
      </trkpt>
      <trkpt lat="43.75858000" lon="11.09742000">
        <ele>82.000000</ele>
        <time>2010-01-01T09:59:16Z</time>
      </trkpt>
      <trkpt lat="43.75908000" lon="11.09779000">
        <ele>81.000000</ele>
        <time>2010-01-01T09:59:39Z</time>
      </trkpt>
      <trkpt lat="43.75923000" lon="11.09786000">
        <ele>81.000000</ele>
        <time>2010-01-01T09:59:46Z</time>
      </trkpt>
      <trkpt lat="43.75979000" lon="11.09803000">
        <ele>80.000000</ele>
        <time>2010-01-01T10:00:08Z</time>
      </trkpt>
      <trkpt lat="43.75988000" lon="11.09809000">
        <ele>81.000000</ele>
        <time>2010-01-01T10:00:12Z</time>
      </trkpt>
      <trkpt lat="43.76039000" lon="11.09875000">
        <ele>78.000000</ele>
        <time>2010-01-01T10:00:40Z</time>
      </trkpt>
      <trkpt lat="43.76098260" lon="11.09940460">
        <ele>76.000000</ele>
        <time>2010-01-01T10:01:11Z</time>
      </trkpt>
      <trkpt lat="43.76172000" lon="11.10089000">
        <ele>61.000000</ele>
        <time>2010-01-01T10:02:03Z</time>
      </trkpt>
      <trkpt lat="43.76222000" lon="11.10169000">
        <ele>63.000000</ele>
        <time>2010-01-01T10:02:33Z</time>
      </trkpt>
      <trkpt lat="43.76242000" lon="11.10186000">
        <ele>59.000000</ele>
        <time>2010-01-01T10:02:43Z</time>
      </trkpt>
      <trkpt lat="43.76255000" lon="11.10190000">
        <ele>56.000000</ele>
        <time>2010-01-01T10:02:48Z</time>
      </trkpt>
      <trkpt lat="43.76303000" lon="11.10198000">
        <ele>54.000000</ele>
        <time>2010-01-01T10:03:08Z</time>
      </trkpt>
      <trkpt lat="43.76389000" lon="11.10182000">
        <ele>50.000000</ele>
        <time>2010-01-01T10:03:42Z</time>
      </trkpt>
      <trkpt lat="43.76403000" lon="11.10181000">
        <ele>49.000000</ele>
        <time>2010-01-01T10:03:48Z</time>
      </trkpt>
      <trkpt lat="43.76419000" lon="11.10183000">
        <ele>47.000000</ele>
        <time>2010-01-01T10:03:54Z</time>
      </trkpt>
      <trkpt lat="43.76440000" lon="11.10189000">
        <ele>47.000000</ele>
        <time>2010-01-01T10:04:03Z</time>
      </trkpt>
      <trkpt lat="43.76554000" lon="11.10234000">
        <ele>45.000000</ele>
        <time>2010-01-01T10:04:50Z</time>
      </trkpt>
      <trkpt lat="43.76625000" lon="11.10276000">
        <ele>45.000000</ele>
        <time>2010-01-01T10:05:21Z</time>
      </trkpt>
      <trkpt lat="43.76643000" lon="11.10282000">
        <ele>44.000000</ele>
        <time>2010-01-01T10:05:29Z</time>
      </trkpt>
      <trkpt lat="43.76661000" lon="11.10285000">
        <ele>43.000000</ele>
        <time>2010-01-01T10:05:36Z</time>
      </trkpt>
      <trkpt lat="43.76685000" lon="11.10286000">
        <ele>43.000000</ele>
        <time>2010-01-01T10:05:46Z</time>
      </trkpt>
      <trkpt lat="43.76707000" lon="11.10282000">
        <ele>42.000000</ele>
        <time>2010-01-01T10:05:54Z</time>
      </trkpt>
      <trkpt lat="43.76800000" lon="11.10243000">
        <ele>42.000000</ele>
        <time>2010-01-01T10:06:33Z</time>
      </trkpt>
      <trkpt lat="43.76832000" lon="11.10239000">
        <ele>44.000000</ele>
        <time>2010-01-01T10:06:46Z</time>
      </trkpt>
      <trkpt lat="43.76849000" lon="11.10240000">
        <ele>43.000000</ele>
        <time>2010-01-01T10:06:53Z</time>
      </trkpt>
      <trkpt lat="43.76868000" lon="11.10244000">
        <ele>41.000000</ele>
        <time>2010-01-01T10:07:01Z</time>
      </trkpt>
      <trkpt lat="43.76885000" lon="11.10251000">
        <ele>39.000000</ele>
        <time>2010-01-01T10:07:08Z</time>
      </trkpt>
      <trkpt lat="43.76922000" lon="11.10273000">
        <ele>37.000000</ele>
        <time>2010-01-01T10:07:24Z</time>
      </trkpt>
      <trkpt lat="43.77015000" lon="11.10338000">
        <ele>38.000000</ele>
        <time>2010-01-01T10:08:06Z</time>
      </trkpt>
      <trkpt lat="43.77014000" lon="11.10338000">
        <ele>38.000000</ele>
        <time>2010-01-01T10:08:06Z</time>
      </trkpt>
      <trkpt lat="43.77015000" lon="11.10338000">
        <ele>38.000000</ele>
        <time>2010-01-01T10:08:06Z</time>
      </trkpt>
      <trkpt lat="43.77121000" lon="11.09722000">
        <ele>46.000000</ele>
        <time>2010-01-01T10:11:09Z</time>
      </trkpt>
      <trkpt lat="43.77138000" lon="11.09599000">
        <ele>42.000000</ele>
        <time>2010-01-01T10:11:46Z</time>
      </trkpt>
      <trkpt lat="43.77159730" lon="11.09608410">
        <ele>42.000000</ele>
        <time>2010-01-01T10:11:55Z</time>
      </trkpt>
      <trkpt lat="43.77204000" lon="11.09610000">
        <ele>40.000000</ele>
        <time>2010-01-01T10:12:12Z</time>
      </trkpt>
      <trkpt lat="43.77361000" lon="11.09606000">
        <ele>38.000000</ele>
        <time>2010-01-01T10:13:15Z</time>
      </trkpt>
      <trkpt lat="43.77366000" lon="11.09595000">
        <ele>38.000000</ele>
        <time>2010-01-01T10:13:19Z</time>
      </trkpt>
      <trkpt lat="43.77370000" lon="11.09501000">
        <ele>36.000000</ele>
        <time>2010-01-01T10:13:46Z</time>
      </trkpt>
      <trkpt lat="43.77522000" lon="11.09517000">
        <ele>40.000000</ele>
        <time>2010-01-01T10:14:47Z</time>
      </trkpt>
      <trkpt lat="43.77528000" lon="11.09515000">
        <ele>40.000000</ele>
        <time>2010-01-01T10:14:50Z</time>
      </trkpt>
      <trkpt lat="43.77532000" lon="11.09502000">
        <ele>40.000000</ele>
        <time>2010-01-01T10:14:54Z</time>
      </trkpt>
      <trkpt lat="43.77544000" lon="11.09399000">
        <ele>38.000000</ele>
        <time>2010-01-01T10:15:24Z</time>
      </trkpt>
      <trkpt lat="43.77538000" lon="11.09384000">
        <ele>38.000000</ele>
        <time>2010-01-01T10:15:29Z</time>
      </trkpt>
      <trkpt lat="43.77523000" lon="11.09372000">
        <ele>38.000000</ele>
        <time>2010-01-01T10:15:36Z</time>
      </trkpt>
      <trkpt lat="43.77517000" lon="11.09369000">
        <ele>38.000000</ele>
        <time>2010-01-01T10:15:39Z</time>
      </trkpt>
      <trkpt lat="43.77523000" lon="11.09305000">
        <ele>40.000000</ele>
        <time>2010-01-01T10:15:57Z</time>
      </trkpt>
      <trkpt lat="43.77539000" lon="11.09309000">
        <ele>39.000000</ele>
        <time>2010-01-01T10:16:04Z</time>
      </trkpt>
      <trkpt lat="43.77599000" lon="11.09304000">
        <ele>42.000000</ele>
        <time>2010-01-01T10:16:28Z</time>
      </trkpt>
      <trkpt lat="43.77617000" lon="11.09305000">
        <ele>45.000000</ele>
        <time>2010-01-01T10:16:35Z</time>
      </trkpt>
      <trkpt lat="43.77638000" lon="11.09405000">
        <ele>50.000000</ele>
        <time>2010-01-01T10:17:05Z</time>
      </trkpt>
      <trkpt lat="43.77660000" lon="11.09493000">
        <ele>50.000000</ele>
        <time>2010-01-01T10:17:32Z</time>
      </trkpt>
      <trkpt lat="43.77677000" lon="11.09544000">
        <ele>48.000000</ele>
        <time>2010-01-01T10:17:48Z</time>
      </trkpt>
      <trkpt lat="43.77700000" lon="11.09593000">
        <ele>44.000000</ele>
        <time>2010-01-01T10:18:05Z</time>
      </trkpt>
      <trkpt lat="43.77765000" lon="11.09691000">
        <ele>43.000000</ele>
        <time>2010-01-01T10:18:44Z</time>
      </trkpt>
      <trkpt lat="43.77787000" lon="11.09734000">
        <ele>41.000000</ele>
        <time>2010-01-01T10:18:59Z</time>
      </trkpt>
      <trkpt lat="43.77806000" lon="11.09755000">
        <ele>39.000000</ele>
        <time>2010-01-01T10:19:09Z</time>
      </trkpt>
      <trkpt lat="43.77840000" lon="11.09777000">
        <ele>38.000000</ele>
        <time>2010-01-01T10:19:24Z</time>
      </trkpt>
      <trkpt lat="43.77810860" lon="11.09894870">
        <ele>36.000000</ele>
        <time>2010-01-01T10:20:00Z</time>
      </trkpt>
      <trkpt lat="43.77787000" lon="11.09987000">
        <ele>37.000000</ele>
        <time>2010-01-01T10:20:28Z</time>
      </trkpt>
      <trkpt lat="43.77881000" lon="11.10023000">
        <ele>36.000000</ele>
        <time>2010-01-01T10:21:07Z</time>
      </trkpt>
      <trkpt lat="43.77880000" lon="11.10023000">
        <ele>36.000000</ele>
        <time>2010-01-01T10:21:07Z</time>
      </trkpt>
      <trkpt lat="43.77909000" lon="11.10039000">
        <ele>36.000000</ele>
        <time>2010-01-01T10:21:20Z</time>
      </trkpt>
      <trkpt lat="43.77950000" lon="11.10054000">
        <ele>38.000000</ele>
        <time>2010-01-01T10:21:37Z</time>
      </trkpt>
      <trkpt lat="43.77982000" lon="11.10061000">
        <ele>37.000000</ele>
        <time>2010-01-01T10:21:50Z</time>
      </trkpt>
      <trkpt lat="43.78008000" lon="11.10063000">
        <ele>36.000000</ele>
        <time>2010-01-01T10:22:00Z</time>
      </trkpt>
      <trkpt lat="43.78080000" lon="11.10064000">
        <ele>36.000000</ele>
        <time>2010-01-01T10:22:29Z</time>
      </trkpt>
      <trkpt lat="43.78104000" lon="11.10062000">
        <ele>36.000000</ele>
        <time>2010-01-01T10:22:39Z</time>
      </trkpt>
      <trkpt lat="43.78161000" lon="11.10054000">
        <ele>36.000000</ele>
        <time>2010-01-01T10:23:02Z</time>
      </trkpt>
      <trkpt lat="43.78257000" lon="11.10033000">
        <ele>36.000000</ele>
        <time>2010-01-01T10:23:40Z</time>
      </trkpt>
      <trkpt lat="43.78407000" lon="11.09997000">
        <ele>36.000000</ele>
        <time>2010-01-01T10:24:41Z</time>
      </trkpt>
      <trkpt lat="43.78448000" lon="11.09993000">
        <ele>36.000000</ele>
        <time>2010-01-01T10:24:58Z</time>
      </trkpt>
      <trkpt lat="43.78502000" lon="11.09998000">
        <ele>36.000000</ele>
        <time>2010-01-01T10:25:19Z</time>
      </trkpt>
      <trkpt lat="43.78539000" lon="11.10010000">
        <ele>36.000000</ele>
        <time>2010-01-01T10:25:35Z</time>
      </trkpt>
      <trkpt lat="43.78555640" lon="11.10017180">
        <ele>37.000000</ele>
        <time>2010-01-01T10:25:42Z</time>
      </trkpt>
      <trkpt lat="43.78560500" lon="11.10028500">
        <ele>36.000000</ele>
        <time>2010-01-01T10:25:45Z</time>
      </trkpt>
      <trkpt lat="43.78562000" lon="11.10048000">
        <ele>36.000000</ele>
        <time>2010-01-01T10:25:51Z</time>
      </trkpt>
      <trkpt lat="43.78566000" lon="11.10065000">
        <ele>35.000000</ele>
        <time>2010-01-01T10:25:56Z</time>
      </trkpt>
      <trkpt lat="43.78582000" lon="11.10115000">
        <ele>35.000000</ele>
        <time>2010-01-01T10:26:12Z</time>
      </trkpt>
      <trkpt lat="43.78605000" lon="11.10176000">
        <ele>35.000000</ele>
        <time>2010-01-01T10:26:32Z</time>
      </trkpt>
      <trkpt lat="43.78616000" lon="11.10199000">
        <ele>34.000000</ele>
        <time>2010-01-01T10:26:40Z</time>
      </trkpt>
      <trkpt lat="43.78627000" lon="11.10212000">
        <ele>34.000000</ele>
        <time>2010-01-01T10:26:46Z</time>
      </trkpt>
      <trkpt lat="43.78713000" lon="11.10301000">
        <ele>37.000000</ele>
        <time>2010-01-01T10:27:29Z</time>
      </trkpt>
      <trkpt lat="43.78826000" lon="11.10419000">
        <ele>34.000000</ele>
        <time>2010-01-01T10:28:25Z</time>
      </trkpt>
      <trkpt lat="43.78863000" lon="11.10460000">
        <ele>36.000000</ele>
        <time>2010-01-01T10:28:44Z</time>
      </trkpt>
      <trkpt lat="43.78977000" lon="11.10610000">
        <ele>37.000000</ele>
        <time>2010-01-01T10:29:47Z</time>
      </trkpt>
      <trkpt lat="43.79036000" lon="11.10702000">
        <ele>36.000000</ele>
        <time>2010-01-01T10:30:23Z</time>
      </trkpt>
      <trkpt lat="43.79119000" lon="11.10849000">
        <ele>37.000000</ele>
        <time>2010-01-01T10:31:17Z</time>
      </trkpt>
      <trkpt lat="43.79137000" lon="11.10884000">
        <ele>36.000000</ele>
        <time>2010-01-01T10:31:29Z</time>
      </trkpt>
      <trkpt lat="43.79164000" lon="11.10953000">
        <ele>35.000000</ele>
        <time>2010-01-01T10:31:52Z</time>
      </trkpt>
      <trkpt lat="43.79174000" lon="11.10994000">
        <ele>37.000000</ele>
        <time>2010-01-01T10:32:04Z</time>
      </trkpt>
      <trkpt lat="43.79179000" lon="11.11036000">
        <ele>37.000000</ele>
        <time>2010-01-01T10:32:17Z</time>
      </trkpt>
      <trkpt lat="43.79175000" lon="11.11090000">
        <ele>38.000000</ele>
        <time>2010-01-01T10:32:32Z</time>
      </trkpt>
      <trkpt lat="43.79157000" lon="11.11201000">
        <ele>36.000000</ele>
        <time>2010-01-01T10:33:05Z</time>
      </trkpt>
      <trkpt lat="43.79139000" lon="11.11265000">
        <ele>35.000000</ele>
        <time>2010-01-01T10:33:25Z</time>
      </trkpt>
      <trkpt lat="43.79136000" lon="11.11308000">
        <ele>35.000000</ele>
        <time>2010-01-01T10:33:38Z</time>
      </trkpt>
      <trkpt lat="43.79136000" lon="11.11336000">
        <ele>35.000000</ele>
        <time>2010-01-01T10:33:46Z</time>
      </trkpt>
      <trkpt lat="43.79160000" lon="11.11489000">
        <ele>35.000000</ele>
        <time>2010-01-01T10:34:31Z</time>
      </trkpt>
      <trkpt lat="43.79194000" lon="11.11703000">
        <ele>34.000000</ele>
        <time>2010-01-01T10:35:34Z</time>
      </trkpt>
      <trkpt lat="43.79197000" lon="11.11743000">
        <ele>35.000000</ele>
        <time>2010-01-01T10:35:46Z</time>
      </trkpt>
      <trkpt lat="43.79196000" lon="11.11784000">
        <ele>39.000000</ele>
        <time>2010-01-01T10:35:58Z</time>
      </trkpt>
      <trkpt lat="43.79184000" lon="11.11929000">
        <ele>35.000000</ele>
        <time>2010-01-01T10:36:40Z</time>
      </trkpt>
      <trkpt lat="43.79193000" lon="11.12013000">
        <ele>38.000000</ele>
        <time>2010-01-01T10:37:04Z</time>
      </trkpt>
      <trkpt lat="43.79196000" lon="11.12055000">
        <ele>38.000000</ele>
        <time>2010-01-01T10:37:17Z</time>
      </trkpt>
      <trkpt lat="43.79197000" lon="11.12149000">
        <ele>35.000000</ele>
        <time>2010-01-01T10:37:44Z</time>
      </trkpt>
      <trkpt lat="43.79203000" lon="11.12233000">
        <ele>34.000000</ele>
        <time>2010-01-01T10:38:08Z</time>
      </trkpt>
      <trkpt lat="43.79200000" lon="11.12276000">
        <ele>34.000000</ele>
        <time>2010-01-01T10:38:21Z</time>
      </trkpt>
      <trkpt lat="43.79190000" lon="11.12332000">
        <ele>35.000000</ele>
        <time>2010-01-01T10:38:37Z</time>
      </trkpt>
      <trkpt lat="43.79175000" lon="11.12373000">
        <ele>35.000000</ele>
        <time>2010-01-01T10:38:51Z</time>
      </trkpt>
      <trkpt lat="43.79159000" lon="11.12407000">
        <ele>34.000000</ele>
        <time>2010-01-01T10:39:02Z</time>
      </trkpt>
      <trkpt lat="43.79150000" lon="11.12431000">
        <ele>34.000000</ele>
        <time>2010-01-01T10:39:10Z</time>
      </trkpt>
      <trkpt lat="43.79145000" lon="11.12457000">
        <ele>34.000000</ele>
        <time>2010-01-01T10:39:18Z</time>
      </trkpt>
      <trkpt lat="43.79142000" lon="11.12485000">
        <ele>34.000000</ele>
        <time>2010-01-01T10:39:26Z</time>
      </trkpt>
      <trkpt lat="43.79141000" lon="11.12514000">
        <ele>34.000000</ele>
        <time>2010-01-01T10:39:34Z</time>
      </trkpt>
      <trkpt lat="43.79145000" lon="11.12594000">
        <ele>35.000000</ele>
        <time>2010-01-01T10:39:58Z</time>
      </trkpt>
      <trkpt lat="43.79156000" lon="11.12642000">
        <ele>37.000000</ele>
        <time>2010-01-01T10:40:12Z</time>
      </trkpt>
      <trkpt lat="43.79165000" lon="11.12697000">
        <ele>37.000000</ele>
        <time>2010-01-01T10:40:29Z</time>
      </trkpt>
      <trkpt lat="43.79171000" lon="11.12779000">
        <ele>37.000000</ele>
        <time>2010-01-01T10:40:52Z</time>
      </trkpt>
      <trkpt lat="43.79169000" lon="11.12798000">
        <ele>37.000000</ele>
        <time>2010-01-01T10:40:58Z</time>
      </trkpt>
      <trkpt lat="43.79158000" lon="11.12801000">
        <ele>37.000000</ele>
        <time>2010-01-01T10:41:02Z</time>
      </trkpt>
      <trkpt lat="43.79128000" lon="11.12803000">
        <ele>37.000000</ele>
        <time>2010-01-01T10:41:14Z</time>
      </trkpt>
      <trkpt lat="43.79109000" lon="11.12809000">
        <ele>38.000000</ele>
        <time>2010-01-01T10:41:22Z</time>
      </trkpt>
      <trkpt lat="43.79096000" lon="11.12817000">
        <ele>38.000000</ele>
        <time>2010-01-01T10:41:28Z</time>
      </trkpt>
      <trkpt lat="43.79007000" lon="11.12891000">
        <ele>38.000000</ele>
        <time>2010-01-01T10:42:09Z</time>
      </trkpt>
      <trkpt lat="43.79029000" lon="11.12942000">
        <ele>38.000000</ele>
        <time>2010-01-01T10:42:27Z</time>
      </trkpt>
      <trkpt lat="43.79047000" lon="11.12967000">
        <ele>38.000000</ele>
        <time>2010-01-01T10:42:37Z</time>
      </trkpt>
      <trkpt lat="43.79054000" lon="11.12981000">
        <ele>37.000000</ele>
        <time>2010-01-01T10:42:42Z</time>
      </trkpt>
      <trkpt lat="43.79056000" lon="11.13032000">
        <ele>38.000000</ele>
        <time>2010-01-01T10:42:56Z</time>
      </trkpt>
      <trkpt lat="43.79068000" lon="11.13075000">
        <ele>39.000000</ele>
        <time>2010-01-01T10:43:10Z</time>
      </trkpt>
      <trkpt lat="43.79076890" lon="11.13110300">
        <ele>39.000000</ele>
        <time>2010-01-01T10:43:21Z</time>
      </trkpt>
      <trkpt lat="43.78563000" lon="11.14159040">
        <ele>40.000000</ele>
        <time>2010-01-01T10:49:27Z</time>
      </trkpt>
      <trkpt lat="43.78576170" lon="11.14234680">
        <ele>39.000000</ele>
        <time>2010-01-01T10:49:49Z</time>
      </trkpt>
      <trkpt lat="43.78935930" lon="11.14494320">
        <ele>38.000000</ele>
        <time>2010-01-01T10:52:32Z</time>
      </trkpt>
      <trkpt lat="43.78776380" lon="11.15403050">
        <ele>35.000000</ele>
        <time>2010-01-01T10:57:02Z</time>
      </trkpt>
      <trkpt lat="43.78777160" lon="11.15469570">
        <ele>35.000000</ele>
        <time>2010-01-01T10:57:21Z</time>
      </trkpt>
      <trkpt lat="43.78787610" lon="11.15498540">
        <ele>34.000000</ele>
        <time>2010-01-01T10:57:31Z</time>
      </trkpt>
      <trkpt lat="43.78877070" lon="11.15614410">
        <ele>36.000000</ele>
        <time>2010-01-01T10:58:20Z</time>
      </trkpt>
      <trkpt lat="43.78889460" lon="11.15749590">
        <ele>36.000000</ele>
        <time>2010-01-01T10:58:59Z</time>
      </trkpt>
      <trkpt lat="43.78856550" lon="11.15786070">
        <ele>38.000000</ele>
        <time>2010-01-01T10:59:16Z</time>
      </trkpt>
      <trkpt lat="43.78853840" lon="11.15825230">
        <ele>39.000000</ele>
        <time>2010-01-01T10:59:27Z</time>
      </trkpt>
      <trkpt lat="43.78866230" lon="11.15857950">
        <ele>38.000000</ele>
        <time>2010-01-01T10:59:38Z</time>
      </trkpt>
      <trkpt lat="43.78901080" lon="11.15887460">
        <ele>36.000000</ele>
        <time>2010-01-01T10:59:54Z</time>
      </trkpt>
      <trkpt lat="43.78965750" lon="11.16474330">
        <ele>38.000000</ele>
        <time>2010-01-01T11:02:46Z</time>
      </trkpt>
      <trkpt lat="43.79018030" lon="11.17347650">
        <ele>38.000000</ele>
        <time>2010-01-01T11:06:59Z</time>
      </trkpt>
      <trkpt lat="43.79086570" lon="11.17341750">
        <ele>40.000000</ele>
        <time>2010-01-01T11:07:27Z</time>
      </trkpt>
      <trkpt lat="43.79171380" lon="11.17343900">
        <ele>39.000000</ele>
        <time>2010-01-01T11:08:01Z</time>
      </trkpt>
      <trkpt lat="43.79318910" lon="11.17338000">
        <ele>39.000000</ele>
        <time>2010-01-01T11:09:00Z</time>
      </trkpt>
      <trkpt lat="43.79377380" lon="11.18326660">
        <ele>40.000000</ele>
        <time>2010-01-01T11:13:46Z</time>
      </trkpt>
      <trkpt lat="43.79445530" lon="11.19320150">
        <ele>40.000000</ele>
        <time>2010-01-01T11:18:35Z</time>
      </trkpt>
      <trkpt lat="43.79357250" lon="11.19552960">
        <ele>38.000000</ele>
        <time>2010-01-01T11:19:51Z</time>
      </trkpt>
      <trkpt lat="43.79271280" lon="11.19505760">
        <ele>39.000000</ele>
        <time>2010-01-01T11:20:28Z</time>
      </trkpt>
      <trkpt lat="43.79261220" lon="11.19467130">
        <ele>39.000000</ele>
        <time>2010-01-01T11:20:39Z</time>
      </trkpt>
      <trkpt lat="43.79200810" lon="11.19455330">
        <ele>41.000000</ele>
        <time>2010-01-01T11:21:04Z</time>
      </trkpt>
      <trkpt lat="43.79140400" lon="11.19462840">
        <ele>41.000000</ele>
        <time>2010-01-01T11:21:28Z</time>
      </trkpt>
      <trkpt lat="43.79109030" lon="11.19458010">
        <ele>39.000000</ele>
        <time>2010-01-01T11:21:41Z</time>
      </trkpt>
      <trkpt lat="43.79108640" lon="11.19852840">
        <ele>39.000000</ele>
        <time>2010-01-01T11:23:35Z</time>
      </trkpt>
      <trkpt lat="43.79059080" lon="11.19853370">
        <ele>43.000000</ele>
        <time>2010-01-01T11:23:55Z</time>
      </trkpt>
      <trkpt lat="43.79057140" lon="11.19873760">
        <ele>45.000000</ele>
        <time>2010-01-01T11:24:01Z</time>
      </trkpt>
      <trkpt lat="43.79033520" lon="11.19856590">
        <ele>46.000000</ele>
        <time>2010-01-01T11:24:11Z</time>
      </trkpt>
      <trkpt lat="43.79007190" lon="11.19860880">
        <ele>47.000000</ele>
        <time>2010-01-01T11:24:22Z</time>
      </trkpt>
      <trkpt lat="43.78573450" lon="11.20748690">
        <ele>45.000000</ele>
        <time>2010-01-01T11:29:32Z</time>
      </trkpt>
      <trkpt lat="43.78066000" lon="11.21876000">
        <ele>43.000000</ele>
        <time>2010-01-01T11:35:56Z</time>
      </trkpt>
      <trkpt lat="43.77850000" lon="11.22443000">
        <ele>47.000000</ele>
        <time>2010-01-01T11:39:01Z</time>
      </trkpt>
      <trkpt lat="43.77800000" lon="11.22602000">
        <ele>50.000000</ele>
        <time>2010-01-01T11:39:51Z</time>
      </trkpt>
      <trkpt lat="43.77687000" lon="11.23010000">
        <ele>46.000000</ele>
        <time>2010-01-01T11:41:57Z</time>
      </trkpt>
      <trkpt lat="43.77558000" lon="11.23455000">
        <ele>42.000000</ele>
        <time>2010-01-01T11:44:16Z</time>
      </trkpt>
      <trkpt lat="43.77553000" lon="11.23484000">
        <ele>42.000000</ele>
        <time>2010-01-01T11:44:25Z</time>
      </trkpt>
      <trkpt lat="43.77564000" lon="11.23516000">
        <ele>45.000000</ele>
        <time>2010-01-01T11:44:35Z</time>
      </trkpt>
      <trkpt lat="43.77591000" lon="11.23534000">
        <ele>47.000000</ele>
        <time>2010-01-01T11:44:47Z</time>
      </trkpt>
      <trkpt lat="43.77603000" lon="11.23550000">
        <ele>47.000000</ele>
        <time>2010-01-01T11:44:54Z</time>
      </trkpt>
      <trkpt lat="43.77583000" lon="11.23623000">
        <ele>46.000000</ele>
        <time>2010-01-01T11:45:16Z</time>
      </trkpt>
      <trkpt lat="43.77569000" lon="11.23673000">
        <ele>50.000000</ele>
        <time>2010-01-01T11:45:32Z</time>
      </trkpt>
      <trkpt lat="43.77555000" lon="11.23685000">
        <ele>52.000000</ele>
        <time>2010-01-01T11:45:38Z</time>
      </trkpt>
      <trkpt lat="43.77500000" lon="11.23639000">
        <ele>47.000000</ele>
        <time>2010-01-01T11:46:04Z</time>
      </trkpt>
      <trkpt lat="43.77308000" lon="11.24255000">
        <ele>51.000000</ele>
        <time>2010-01-01T11:49:18Z</time>
      </trkpt>
      <trkpt lat="43.77202000" lon="11.24500000">
        <ele>52.000000</ele>
        <time>2010-01-01T11:50:40Z</time>
      </trkpt>
      <trkpt lat="43.77077000" lon="11.24772000">
        <ele>52.000000</ele>
        <time>2010-01-01T11:52:14Z</time>
      </trkpt>
      <trkpt lat="43.77000000" lon="11.24937000">
        <ele>52.000000</ele>
        <time>2010-01-01T11:53:10Z</time>
      </trkpt>
      <trkpt lat="43.76946000" lon="11.25060000">
        <ele>51.000000</ele>
        <time>2010-01-01T11:53:52Z</time>
      </trkpt>
      <trkpt lat="43.77035390" lon="11.25130890">
        <ele>62.000000</ele>
        <time>2010-01-01T11:54:33Z</time>
      </trkpt>
      <trkpt lat="43.77149000" lon="11.25136000">
        <ele>65.000000</ele>
        <time>2010-01-01T11:55:19Z</time>
      </trkpt>
      <trkpt lat="43.77148000" lon="11.25357000">
        <ele>70.000000</ele>
        <time>2010-01-01T11:56:23Z</time>
      </trkpt>
      <trkpt lat="43.77274000" lon="11.25360000">
        <ele>63.000000</ele>
        <time>2010-01-01T11:57:13Z</time>
      </trkpt>
      <trkpt lat="43.77286790" lon="11.25542870">
        <ele>58.000000</ele>
        <time>2010-01-01T11:58:06Z</time>
      </trkpt>
      <trkpt lat="43.77259670" lon="11.25782660">
        <ele>64.000000</ele>
        <time>2010-01-01T11:59:16Z</time>
      </trkpt>
      <trkpt lat="43.77152000" lon="11.25792000">
        <ele>66.000000</ele>
        <time>2010-01-01T11:59:59Z</time>
      </trkpt>
      <trkpt lat="43.77121000" lon="11.25792000">
        <ele>67.000000</ele>
        <time>2010-01-01T12:00:12Z</time>
      </trkpt>
      <trkpt lat="43.77061000" lon="11.25784000">
        <ele>77.000000</ele>
        <time>2010-01-01T12:00:36Z</time>
      </trkpt>
      <trkpt lat="43.77029000" lon="11.25776000">
        <ele>73.000000</ele>
        <time>2010-01-01T12:00:49Z</time>
      </trkpt>
      <trkpt lat="43.77007000" lon="11.25744000">
        <ele>64.000000</ele>
        <time>2010-01-01T12:01:02Z</time>
      </trkpt>
      <trkpt lat="43.77019000" lon="11.25684000">
        <ele>63.000000</ele>
        <time>2010-01-01T12:01:20Z</time>
      </trkpt>
      <trkpt lat="43.77021060" lon="11.25610470">
        <ele>62.000000</ele>
        <time>2010-01-01T12:01:41Z</time>
      </trkpt>
      <trkpt lat="43.76992390" lon="11.25608860">
        <ele>59.000000</ele>
        <time>2010-01-01T12:01:53Z</time>
      </trkpt>
      <trkpt lat="43.76944000" lon="11.25513000">
        <ele>62.000000</ele>
        <time>2010-01-01T12:02:26Z</time>
      </trkpt>
      <trkpt lat="43.76961000" lon="11.25437000">
        <ele>58.000000</ele>
        <time>2010-01-01T12:02:49Z</time>
      </trkpt>
      <trkpt lat="43.76891000" lon="11.25380000">
        <ele>58.000000</ele>
        <time>2010-01-01T12:03:22Z</time>
      </trkpt>
      <trkpt lat="43.76739000" lon="11.25269000">
        <ele>62.000000</ele>
        <time>2010-01-01T12:04:31Z</time>
      </trkpt>
      <trkpt lat="43.76700000" lon="11.25412000">
        <ele>61.000000</ele>
        <time>2010-01-01T12:05:15Z</time>
      </trkpt>
      <trkpt lat="43.76691000" lon="11.25441000">
        <ele>61.000000</ele>
        <time>2010-01-01T12:05:24Z</time>
      </trkpt>
      <trkpt lat="43.76658000" lon="11.25544000">
        <ele>61.000000</ele>
        <time>2010-01-01T12:05:57Z</time>
      </trkpt>
      <trkpt lat="43.76548000" lon="11.25839000">
        <ele>50.000000</ele>
        <time>2010-01-01T12:07:33Z</time>
      </trkpt>
      <trkpt lat="43.76457000" lon="11.26785000">
        <ele>53.000000</ele>
        <time>2010-01-01T12:12:08Z</time>
      </trkpt>
      <trkpt lat="43.76436000" lon="11.26944000">
        <ele>50.000000</ele>
        <time>2010-01-01T12:12:55Z</time>
      </trkpt>
      <trkpt lat="43.76418000" lon="11.26991000">
        <ele>51.000000</ele>
        <time>2010-01-01T12:13:11Z</time>
      </trkpt>
      <trkpt lat="43.76396000" lon="11.27036000">
        <ele>52.000000</ele>
        <time>2010-01-01T12:13:26Z</time>
      </trkpt>
      <trkpt lat="43.76361710" lon="11.27097480">
        <ele>51.000000</ele>
        <time>2010-01-01T12:13:49Z</time>
      </trkpt>
      <trkpt lat="43.76353000" lon="11.27133000">
        <ele>52.000000</ele>
        <time>2010-01-01T12:14:00Z</time>
      </trkpt>
      <trkpt lat="43.76352000" lon="11.27152000">
        <ele>52.000000</ele>
        <time>2010-01-01T12:14:05Z</time>
      </trkpt>
      <trkpt lat="43.76356000" lon="11.27167000">
        <ele>52.000000</ele>
        <time>2010-01-01T12:14:10Z</time>
      </trkpt>
      <trkpt lat="43.76354000" lon="11.27212000">
        <ele>52.000000</ele>
        <time>2010-01-01T12:14:23Z</time>
      </trkpt>
      <trkpt lat="43.76327000" lon="11.27420000">
        <ele>54.000000</ele>
        <time>2010-01-01T12:15:24Z</time>
      </trkpt>
      <trkpt lat="43.76327000" lon="11.27707000">
        <ele>53.000000</ele>
        <time>2010-01-01T12:16:47Z</time>
      </trkpt>
      <trkpt lat="43.76327000" lon="11.27846000">
        <ele>51.000000</ele>
        <time>2010-01-01T12:17:27Z</time>
      </trkpt>
      <trkpt lat="43.76255000" lon="11.27881000">
        <ele>51.000000</ele>
        <time>2010-01-01T12:17:58Z</time>
      </trkpt>
      <trkpt lat="43.76247800" lon="11.27901610">
        <ele>52.000000</ele>
        <time>2010-01-01T12:18:04Z</time>
      </trkpt>
      <trkpt lat="43.76233000" lon="11.27921000">
        <ele>53.000000</ele>
        <time>2010-01-01T12:18:12Z</time>
      </trkpt>
      <trkpt lat="43.76176000" lon="11.27967000">
        <ele>55.000000</ele>
        <time>2010-01-01T12:18:39Z</time>
      </trkpt>
      <trkpt lat="43.76126000" lon="11.28021000">
        <ele>55.000000</ele>
        <time>2010-01-01T12:19:04Z</time>
      </trkpt>
      <trkpt lat="43.75966000" lon="11.28225000">
        <ele>56.000000</ele>
        <time>2010-01-01T12:20:31Z</time>
      </trkpt>
      <trkpt lat="43.75863000" lon="11.28369000">
        <ele>54.000000</ele>
        <time>2010-01-01T12:21:30Z</time>
      </trkpt>
      <trkpt lat="43.75826000" lon="11.28444000">
        <ele>53.000000</ele>
        <time>2010-01-01T12:21:56Z</time>
      </trkpt>
      <trkpt lat="43.75810000" lon="11.28491000">
        <ele>54.000000</ele>
        <time>2010-01-01T12:22:11Z</time>
      </trkpt>
      <trkpt lat="43.75781000" lon="11.28551000">
        <ele>54.000000</ele>
        <time>2010-01-01T12:22:32Z</time>
      </trkpt>
      <trkpt lat="43.75740000" lon="11.28591000">
        <ele>53.000000</ele>
        <time>2010-01-01T12:22:52Z</time>
      </trkpt>
      <trkpt lat="43.75708000" lon="11.28633000">
        <ele>53.000000</ele>
        <time>2010-01-01T12:23:10Z</time>
      </trkpt>
      <trkpt lat="43.75649000" lon="11.28756000">
        <ele>55.000000</ele>
        <time>2010-01-01T12:23:52Z</time>
      </trkpt>
      <trkpt lat="43.75631000" lon="11.28806000">
        <ele>56.000000</ele>
        <time>2010-01-01T12:24:08Z</time>
      </trkpt>
      <trkpt lat="43.75614000" lon="11.28893000">
        <ele>54.000000</ele>
        <time>2010-01-01T12:24:35Z</time>
      </trkpt>
      <trkpt lat="43.75602000" lon="11.28980000">
        <ele>55.000000</ele>
        <time>2010-01-01T12:25:00Z</time>
      </trkpt>
      <trkpt lat="43.75599000" lon="11.29024000">
        <ele>56.000000</ele>
        <time>2010-01-01T12:25:13Z</time>
      </trkpt>
      <trkpt lat="43.75599000" lon="11.29106000">
        <ele>54.000000</ele>
        <time>2010-01-01T12:25:37Z</time>
      </trkpt>
      <trkpt lat="43.75613000" lon="11.29238000">
        <ele>56.000000</ele>
        <time>2010-01-01T12:26:15Z</time>
      </trkpt>
      <trkpt lat="43.75609000" lon="11.29284000">
        <ele>56.000000</ele>
        <time>2010-01-01T12:26:29Z</time>
      </trkpt>
      <trkpt lat="43.75610000" lon="11.29303000">
        <ele>56.000000</ele>
        <time>2010-01-01T12:26:34Z</time>
      </trkpt>
      <trkpt lat="43.75569000" lon="11.29588000">
        <ele>59.000000</ele>
        <time>2010-01-01T12:27:58Z</time>
      </trkpt>
      <trkpt lat="43.75544000" lon="11.29762000">
        <ele>60.000000</ele>
        <time>2010-01-01T12:28:49Z</time>
      </trkpt>
      <trkpt lat="43.75531000" lon="11.29838000">
        <ele>60.000000</ele>
        <time>2010-01-01T12:29:12Z</time>
      </trkpt>
      <trkpt lat="43.75514000" lon="11.29851000">
        <ele>60.000000</ele>
        <time>2010-01-01T12:29:20Z</time>
      </trkpt>
      <trkpt lat="43.75511000" lon="11.29862000">
        <ele>60.000000</ele>
        <time>2010-01-01T12:29:23Z</time>
      </trkpt>
      <trkpt lat="43.75513000" lon="11.29876000">
        <ele>60.000000</ele>
        <time>2010-01-01T12:29:27Z</time>
      </trkpt>
      <trkpt lat="43.75522000" lon="11.29884000">
        <ele>60.000000</ele>
        <time>2010-01-01T12:29:32Z</time>
      </trkpt>
      <trkpt lat="43.75492000" lon="11.30150000">
        <ele>60.000000</ele>
        <time>2010-01-01T12:30:49Z</time>
      </trkpt>
      <trkpt lat="43.75465000" lon="11.30384000">
        <ele>59.000000</ele>
        <time>2010-01-01T12:31:58Z</time>
      </trkpt>
      <trkpt lat="43.75442000" lon="11.30549000">
        <ele>60.000000</ele>
        <time>2010-01-01T12:32:47Z</time>
      </trkpt>
      <trkpt lat="43.75437000" lon="11.30556000">
        <ele>60.000000</ele>
        <time>2010-01-01T12:32:49Z</time>
      </trkpt>
      <trkpt lat="43.75423000" lon="11.30558000">
        <ele>59.000000</ele>
        <time>2010-01-01T12:32:55Z</time>
      </trkpt>
      <trkpt lat="43.75417000" lon="11.30554000">
        <ele>59.000000</ele>
        <time>2010-01-01T12:32:58Z</time>
      </trkpt>
      <trkpt lat="43.75404000" lon="11.30562000">
        <ele>58.000000</ele>
        <time>2010-01-01T12:33:03Z</time>
      </trkpt>
      <trkpt lat="43.75402000" lon="11.30570000">
        <ele>58.000000</ele>
        <time>2010-01-01T12:33:06Z</time>
      </trkpt>
      <trkpt lat="43.75402000" lon="11.30594000">
        <ele>58.000000</ele>
        <time>2010-01-01T12:33:13Z</time>
      </trkpt>
      <trkpt lat="43.75407000" lon="11.30606000">
        <ele>58.000000</ele>
        <time>2010-01-01T12:33:17Z</time>
      </trkpt>
      <trkpt lat="43.75428000" lon="11.30642000">
        <ele>60.000000</ele>
        <time>2010-01-01T12:33:30Z</time>
      </trkpt>
      <trkpt lat="43.75396000" lon="11.30920000">
        <ele>62.000000</ele>
        <time>2010-01-01T12:34:52Z</time>
      </trkpt>
      <trkpt lat="43.75393000" lon="11.30939000">
        <ele>62.000000</ele>
        <time>2010-01-01T12:34:57Z</time>
      </trkpt>
      <trkpt lat="43.75374000" lon="11.31100000">
        <ele>61.000000</ele>
        <time>2010-01-01T12:35:44Z</time>
      </trkpt>
      <trkpt lat="43.75336000" lon="11.31365000">
        <ele>65.000000</ele>
        <time>2010-01-01T12:37:02Z</time>
      </trkpt>
      <trkpt lat="43.75278000" lon="11.31756000">
        <ele>69.000000</ele>
        <time>2010-01-01T12:38:58Z</time>
      </trkpt>
      <trkpt lat="43.75267000" lon="11.31798000">
        <ele>71.000000</ele>
        <time>2010-01-01T12:39:11Z</time>
      </trkpt>
      <trkpt lat="43.75215000" lon="11.31952000">
        <ele>75.000000</ele>
        <time>2010-01-01T12:40:00Z</time>
      </trkpt>
      <trkpt lat="43.75211000" lon="11.32028000">
        <ele>77.000000</ele>
        <time>2010-01-01T12:40:22Z</time>
      </trkpt>
      <trkpt lat="43.75208000" lon="11.32049000">
        <ele>79.000000</ele>
        <time>2010-01-01T12:40:28Z</time>
      </trkpt>
      <trkpt lat="43.75192000" lon="11.32123000">
        <ele>83.000000</ele>
        <time>2010-01-01T12:40:51Z</time>
      </trkpt>
      <trkpt lat="43.75186000" lon="11.32135000">
        <ele>83.000000</ele>
        <time>2010-01-01T12:40:55Z</time>
      </trkpt>
      <trkpt lat="43.75184000" lon="11.32154000">
        <ele>85.000000</ele>
        <time>2010-01-01T12:41:00Z</time>
      </trkpt>
      <trkpt lat="43.75171000" lon="11.32202000">
        <ele>89.000000</ele>
        <time>2010-01-01T12:41:15Z</time>
      </trkpt>
      <trkpt lat="43.75151000" lon="11.32258000">
        <ele>93.000000</ele>
        <time>2010-01-01T12:41:33Z</time>
      </trkpt>
      <trkpt lat="43.75148000" lon="11.32282000">
        <ele>94.000000</ele>
        <time>2010-01-01T12:41:40Z</time>
      </trkpt>
      <trkpt lat="43.75148000" lon="11.32312000">
        <ele>98.000000</ele>
        <time>2010-01-01T12:41:49Z</time>
      </trkpt>
      <trkpt lat="43.75146000" lon="11.32322000">
        <ele>99.000000</ele>
        <time>2010-01-01T12:41:52Z</time>
      </trkpt>
      <trkpt lat="43.75109000" lon="11.32432000">
        <ele>114.00000</ele>
        <time>2010-01-01T12:42:27Z</time>
      </trkpt>
      <trkpt lat="43.75019000" lon="11.32626000">
        <ele>132.00000</ele>
        <time>2010-01-01T12:43:34Z</time>
      </trkpt>
      <trkpt lat="43.75005000" lon="11.32676000">
        <ele>134.00000</ele>
        <time>2010-01-01T12:43:49Z</time>
      </trkpt>
      <trkpt lat="43.75002000" lon="11.32702000">
        <ele>135.00000</ele>
        <time>2010-01-01T12:43:57Z</time>
      </trkpt>
      <trkpt lat="43.74987000" lon="11.32784000">
        <ele>141.00000</ele>
        <time>2010-01-01T12:44:21Z</time>
      </trkpt>
      <trkpt lat="43.74982000" lon="11.32906000">
        <ele>152.00000</ele>
        <time>2010-01-01T12:44:57Z</time>
      </trkpt>
      <trkpt lat="43.74967000" lon="11.33033000">
        <ele>156.00000</ele>
        <time>2010-01-01T12:45:34Z</time>
      </trkpt>
      <trkpt lat="43.74903000" lon="11.33295000">
        <ele>157.00000</ele>
        <time>2010-01-01T12:46:54Z</time>
      </trkpt>
      <trkpt lat="43.74882000" lon="11.33371000">
        <ele>156.00000</ele>
        <time>2010-01-01T12:47:17Z</time>
      </trkpt>
      <trkpt lat="43.74861000" lon="11.33423000">
        <ele>159.00000</ele>
        <time>2010-01-01T12:47:35Z</time>
      </trkpt>
      <trkpt lat="43.74854000" lon="11.33429000">
        <ele>159.00000</ele>
        <time>2010-01-01T12:47:38Z</time>
      </trkpt>
      <trkpt lat="43.74845000" lon="11.33451000">
        <ele>160.00000</ele>
        <time>2010-01-01T12:47:45Z</time>
      </trkpt>
      <trkpt lat="43.74672000" lon="11.33725000">
        <ele>176.00000</ele>
        <time>2010-01-01T12:49:30Z</time>
      </trkpt>
      <trkpt lat="43.74456000" lon="11.33975000">
        <ele>185.00000</ele>
        <time>2010-01-01T12:51:23Z</time>
      </trkpt>
      <trkpt lat="43.74399000" lon="11.34087000">
        <ele>180.00000</ele>
        <time>2010-01-01T12:52:03Z</time>
      </trkpt>
      <trkpt lat="43.74366000" lon="11.34142000">
        <ele>182.00000</ele>
        <time>2010-01-01T12:52:23Z</time>
      </trkpt>
      <trkpt lat="43.74350000" lon="11.34160000">
        <ele>184.00000</ele>
        <time>2010-01-01T12:52:32Z</time>
      </trkpt>
      <trkpt lat="43.74344000" lon="11.34162000">
        <ele>184.00000</ele>
        <time>2010-01-01T12:52:34Z</time>
      </trkpt>
      <trkpt lat="43.74312000" lon="11.34202000">
        <ele>189.00000</ele>
        <time>2010-01-01T12:52:51Z</time>
      </trkpt>
      <trkpt lat="43.74211000" lon="11.34299000">
        <ele>200.00000</ele>
        <time>2010-01-01T12:53:41Z</time>
      </trkpt>
      <trkpt lat="43.74162000" lon="11.34371000">
        <ele>206.00000</ele>
        <time>2010-01-01T12:54:09Z</time>
      </trkpt>
      <trkpt lat="43.74135000" lon="11.34416000">
        <ele>214.00000</ele>
        <time>2010-01-01T12:54:26Z</time>
      </trkpt>
      <trkpt lat="43.74113000" lon="11.34470000">
        <ele>221.00000</ele>
        <time>2010-01-01T12:54:44Z</time>
      </trkpt>
      <trkpt lat="43.74066000" lon="11.34602000">
        <ele>235.00000</ele>
        <time>2010-01-01T12:55:27Z</time>
      </trkpt>
      <trkpt lat="43.74035000" lon="11.34768000">
        <ele>245.00000</ele>
        <time>2010-01-01T12:56:16Z</time>
      </trkpt>
      <trkpt lat="43.74016000" lon="11.34827000">
        <ele>248.00000</ele>
        <time>2010-01-01T12:56:35Z</time>
      </trkpt>
      <trkpt lat="43.73980000" lon="11.34907000">
        <ele>253.00000</ele>
        <time>2010-01-01T12:57:02Z</time>
      </trkpt>
      <trkpt lat="43.73963000" lon="11.34941000">
        <ele>256.00000</ele>
        <time>2010-01-01T12:57:14Z</time>
      </trkpt>
      <trkpt lat="43.73939000" lon="11.34958000">
        <ele>259.00000</ele>
        <time>2010-01-01T12:57:25Z</time>
      </trkpt>
      <trkpt lat="43.73867100" lon="11.34996510">
        <ele>275.00000</ele>
        <time>2010-01-01T12:57:56Z</time>
      </trkpt>
    </trkseg>
  </trk>
</gpx>

